<?xml version="1.0" encoding="UTF-8" standalone="no" ?>
<gpx xmlns="http://www.topografix.com/GPX/1/1" xmlns:xsi="http://www.w3.org/2001/XMLSchema-instance" xsi:schemaLocation="http://www.topografix.com/GPX/1/1 http://www.topografix.com/GPX/1/1/gpx.xsd" version="1.1" creator="VisuGPX - https://www.visugpx.com">
  <metadata>
    <name>SAINT JULIEN CHAPTEUIL 29 KM RANDO EN BOUCLE</name>
    <desc><![CDATA[SAINT JULIEN CHAPTEUIL 29KM. RANDO EN BOUCLE.DEPART ARRIVEE MAISON DE RETRAITE DE ST JULIEN. MONTCHANIS. MONTROUGE. QUEYRIERES. RAFFY. TESTAVOYRE. BOUSSOULET. LE VILLARET. PEYRE DE BARD. TABLE PICNIC A QUEYRIERES. TRES BELLES VUES.]]></desc>
  </metadata>
  <trk>
    <name><![CDATA[SAINT JULIEN CHAPTEUIL 29 KM RANDO EN BOUCLE_1]]></name>
    <extensions>
      <line xmlns="http://www.topografix.com/GPX/gpx_style/0/2">
        <color>0000FF</color>
        <width>4</width>
      </line>
    </extensions>
    <trkseg>
      <trkpt lat="45.03626" lon="4.06496">
        <ele>835</ele>
        <time>2016-07-24T15:54:12Z</time>
      </trkpt>
      <trkpt lat="45.03633" lon="4.06496">
        <ele>835</ele>
        <time>2016-07-24T07:03:03Z</time>
      </trkpt>
      <trkpt lat="45.03633" lon="4.06496">
        <ele>835</ele>
        <time>2016-07-24T07:03:03Z</time>
      </trkpt>
      <trkpt lat="45.03636" lon="4.06513">
        <ele>837</ele>
        <time>2016-07-24T07:03:18Z</time>
      </trkpt>
      <trkpt lat="45.03636" lon="4.0651">
        <ele>837</ele>
        <time>2016-07-24T07:03:21Z</time>
      </trkpt>
      <trkpt lat="45.03634" lon="4.06509">
        <ele>837</ele>
        <time>2016-07-24T07:03:39Z</time>
      </trkpt>
      <trkpt lat="45.03637" lon="4.06519">
        <ele>837</ele>
        <time>2016-07-24T07:04:00Z</time>
      </trkpt>
      <trkpt lat="45.03638" lon="4.06537">
        <ele>837</ele>
        <time>2016-07-24T07:04:15Z</time>
      </trkpt>
      <trkpt lat="45.03639" lon="4.06545">
        <ele>837</ele>
        <time>2016-07-24T07:04:22Z</time>
      </trkpt>
      <trkpt lat="45.0364" lon="4.06565">
        <ele>837</ele>
        <time>2016-07-24T07:04:39Z</time>
      </trkpt>
      <trkpt lat="45.03646" lon="4.06571">
        <ele>838</ele>
        <time>2016-07-24T07:04:53Z</time>
      </trkpt>
      <trkpt lat="45.03655" lon="4.06567">
        <ele>838</ele>
        <time>2016-07-24T07:05:03Z</time>
      </trkpt>
      <trkpt lat="45.03673" lon="4.06557">
        <ele>835</ele>
        <time>2016-07-24T07:05:19Z</time>
      </trkpt>
      <trkpt lat="45.03693" lon="4.06542">
        <ele>834</ele>
        <time>2016-07-24T07:05:37Z</time>
      </trkpt>
      <trkpt lat="45.03714" lon="4.06539">
        <ele>834</ele>
        <time>2016-07-24T07:05:55Z</time>
      </trkpt>
      <trkpt lat="45.03728" lon="4.06564">
        <ele>833</ele>
        <time>2016-07-24T07:06:12Z</time>
      </trkpt>
      <trkpt lat="45.0374" lon="4.06594">
        <ele>834</ele>
        <time>2016-07-24T07:06:31Z</time>
      </trkpt>
      <trkpt lat="45.03754" lon="4.06614">
        <ele>832</ele>
        <time>2016-07-24T07:06:47Z</time>
      </trkpt>
      <trkpt lat="45.03769" lon="4.06632">
        <ele>832</ele>
        <time>2016-07-24T07:07:03Z</time>
      </trkpt>
      <trkpt lat="45.03789" lon="4.0666">
        <ele>832</ele>
        <time>2016-07-24T07:07:24Z</time>
      </trkpt>
      <trkpt lat="45.03801" lon="4.06679">
        <ele>835</ele>
        <time>2016-07-24T07:07:41Z</time>
      </trkpt>
      <trkpt lat="45.03802" lon="4.0668">
        <ele>835</ele>
        <time>2016-07-24T07:07:42Z</time>
      </trkpt>
      <trkpt lat="45.03806" lon="4.06684">
        <ele>835</ele>
        <time>2016-07-24T07:07:47Z</time>
      </trkpt>
      <trkpt lat="45.03824" lon="4.06704">
        <ele>835</ele>
        <time>2016-07-24T07:08:04Z</time>
      </trkpt>
      <trkpt lat="45.03843" lon="4.06735">
        <ele>833</ele>
        <time>2016-07-24T07:08:24Z</time>
      </trkpt>
      <trkpt lat="45.03847" lon="4.06754">
        <ele>834</ele>
        <time>2016-07-24T07:08:34Z</time>
      </trkpt>
      <trkpt lat="45.03849" lon="4.06762">
        <ele>834</ele>
        <time>2016-07-24T07:08:38Z</time>
      </trkpt>
      <trkpt lat="45.03855" lon="4.0681">
        <ele>835</ele>
        <time>2016-07-24T07:09:02Z</time>
      </trkpt>
      <trkpt lat="45.0386" lon="4.06848">
        <ele>836</ele>
        <time>2016-07-24T07:09:22Z</time>
      </trkpt>
      <trkpt lat="45.03868" lon="4.06888">
        <ele>836</ele>
        <time>2016-07-24T07:09:43Z</time>
      </trkpt>
      <trkpt lat="45.03876" lon="4.06919">
        <ele>837</ele>
        <time>2016-07-24T07:10:00Z</time>
      </trkpt>
      <trkpt lat="45.03887" lon="4.06951">
        <ele>837</ele>
        <time>2016-07-24T07:10:18Z</time>
      </trkpt>
      <trkpt lat="45.03895" lon="4.06972">
        <ele>837</ele>
        <time>2016-07-24T07:10:31Z</time>
      </trkpt>
      <trkpt lat="45.0392" lon="4.07">
        <ele>836</ele>
        <time>2016-07-24T07:10:54Z</time>
      </trkpt>
      <trkpt lat="45.03932" lon="4.07015">
        <ele>837</ele>
        <time>2016-07-24T07:11:05Z</time>
      </trkpt>
      <trkpt lat="45.03945" lon="4.07044">
        <ele>838</ele>
        <time>2016-07-24T07:11:24Z</time>
      </trkpt>
      <trkpt lat="45.03953" lon="4.07051">
        <ele>839</ele>
        <time>2016-07-24T07:11:32Z</time>
      </trkpt>
      <trkpt lat="45.03974" lon="4.07061">
        <ele>839</ele>
        <time>2016-07-24T07:11:49Z</time>
      </trkpt>
      <trkpt lat="45.03996" lon="4.07066">
        <ele>840</ele>
        <time>2016-07-24T07:12:07Z</time>
      </trkpt>
      <trkpt lat="45.04014" lon="4.07073">
        <ele>840</ele>
        <time>2016-07-24T07:12:22Z</time>
      </trkpt>
      <trkpt lat="45.04039" lon="4.07089">
        <ele>843</ele>
        <time>2016-07-24T07:12:41Z</time>
      </trkpt>
      <trkpt lat="45.04062" lon="4.07112">
        <ele>843</ele>
        <time>2016-07-24T07:13:00Z</time>
      </trkpt>
      <trkpt lat="45.04081" lon="4.07138">
        <ele>844</ele>
        <time>2016-07-24T07:13:18Z</time>
      </trkpt>
      <trkpt lat="45.04104" lon="4.07166">
        <ele>844</ele>
        <time>2016-07-24T07:13:39Z</time>
      </trkpt>
      <trkpt lat="45.04126" lon="4.07182">
        <ele>846</ele>
        <time>2016-07-24T07:13:57Z</time>
      </trkpt>
      <trkpt lat="45.04151" lon="4.072">
        <ele>846</ele>
        <time>2016-07-24T07:14:17Z</time>
      </trkpt>
      <trkpt lat="45.04173" lon="4.0722">
        <ele>845</ele>
        <time>2016-07-24T07:14:35Z</time>
      </trkpt>
      <trkpt lat="45.04191" lon="4.07248">
        <ele>845</ele>
        <time>2016-07-24T07:14:54Z</time>
      </trkpt>
      <trkpt lat="45.04212" lon="4.07268">
        <ele>846</ele>
        <time>2016-07-24T07:15:13Z</time>
      </trkpt>
      <trkpt lat="45.04232" lon="4.0727">
        <ele>846</ele>
        <time>2016-07-24T07:15:30Z</time>
      </trkpt>
      <trkpt lat="45.04256" lon="4.07267">
        <ele>845</ele>
        <time>2016-07-24T07:15:48Z</time>
      </trkpt>
      <trkpt lat="45.04273" lon="4.0726">
        <ele>846</ele>
        <time>2016-07-24T07:16:04Z</time>
      </trkpt>
      <trkpt lat="45.04297" lon="4.0725">
        <ele>847</ele>
        <time>2016-07-24T07:16:21Z</time>
      </trkpt>
      <trkpt lat="45.04323" lon="4.07254">
        <ele>848</ele>
        <time>2016-07-24T07:16:39Z</time>
      </trkpt>
      <trkpt lat="45.04326" lon="4.07255">
        <ele>848</ele>
        <time>2016-07-24T07:16:41Z</time>
      </trkpt>
      <trkpt lat="45.04342" lon="4.07269">
        <ele>853</ele>
        <time>2016-07-24T07:16:54Z</time>
      </trkpt>
      <trkpt lat="45.04365" lon="4.07278">
        <ele>855</ele>
        <time>2016-07-24T07:17:12Z</time>
      </trkpt>
      <trkpt lat="45.04382" lon="4.07262">
        <ele>857</ele>
        <time>2016-07-24T07:17:28Z</time>
      </trkpt>
      <trkpt lat="45.04393" lon="4.07236">
        <ele>857</ele>
        <time>2016-07-24T07:17:45Z</time>
      </trkpt>
      <trkpt lat="45.04403" lon="4.07208">
        <ele>857</ele>
        <time>2016-07-24T07:18:03Z</time>
      </trkpt>
      <trkpt lat="45.04409" lon="4.07207">
        <ele>858</ele>
        <time>2016-07-24T07:18:09Z</time>
      </trkpt>
      <trkpt lat="45.04421" lon="4.07229">
        <ele>865</ele>
        <time>2016-07-24T07:18:26Z</time>
      </trkpt>
      <trkpt lat="45.04433" lon="4.07255">
        <ele>867</ele>
        <time>2016-07-24T07:18:44Z</time>
      </trkpt>
      <trkpt lat="45.04443" lon="4.07278">
        <ele>870</ele>
        <time>2016-07-24T07:19:00Z</time>
      </trkpt>
      <trkpt lat="45.04453" lon="4.07301">
        <ele>871</ele>
        <time>2016-07-24T07:19:16Z</time>
      </trkpt>
      <trkpt lat="45.04461" lon="4.0732">
        <ele>873</ele>
        <time>2016-07-24T07:19:30Z</time>
      </trkpt>
      <trkpt lat="45.0447" lon="4.0734">
        <ele>876</ele>
        <time>2016-07-24T07:19:46Z</time>
      </trkpt>
      <trkpt lat="45.04473" lon="4.07346">
        <ele>877</ele>
        <time>2016-07-24T07:19:59Z</time>
      </trkpt>
      <trkpt lat="45.04475" lon="4.07348">
        <ele>877</ele>
        <time>2016-07-24T07:20:10Z</time>
      </trkpt>
      <trkpt lat="45.04485" lon="4.07358">
        <ele>878</ele>
        <time>2016-07-24T07:20:24Z</time>
      </trkpt>
      <trkpt lat="45.04489" lon="4.07361">
        <ele>878</ele>
        <time>2016-07-24T07:20:29Z</time>
      </trkpt>
      <trkpt lat="45.04501" lon="4.07376">
        <ele>886</ele>
        <time>2016-07-24T07:20:46Z</time>
      </trkpt>
      <trkpt lat="45.04505" lon="4.07401">
        <ele>886</ele>
        <time>2016-07-24T07:21:02Z</time>
      </trkpt>
      <trkpt lat="45.04508" lon="4.07413">
        <ele>886</ele>
        <time>2016-07-24T07:21:12Z</time>
      </trkpt>
      <trkpt lat="45.04509" lon="4.07417">
        <ele>887</ele>
        <time>2016-07-24T07:21:18Z</time>
      </trkpt>
      <trkpt lat="45.04507" lon="4.07429">
        <ele>888</ele>
        <time>2016-07-24T07:21:28Z</time>
      </trkpt>
      <trkpt lat="45.04508" lon="4.07436">
        <ele>888</ele>
        <time>2016-07-24T07:21:47Z</time>
      </trkpt>
      <trkpt lat="45.04508" lon="4.07436">
        <ele>888</ele>
        <time>2016-07-24T07:21:59Z</time>
      </trkpt>
      <trkpt lat="45.04509" lon="4.07437">
        <ele>889</ele>
        <time>2016-07-24T07:22:01Z</time>
      </trkpt>
      <trkpt lat="45.04523" lon="4.07454">
        <ele>890</ele>
        <time>2016-07-24T07:22:15Z</time>
      </trkpt>
      <trkpt lat="45.04537" lon="4.07461">
        <ele>891</ele>
        <time>2016-07-24T07:22:28Z</time>
      </trkpt>
      <trkpt lat="45.04557" lon="4.07457">
        <ele>892</ele>
        <time>2016-07-24T07:22:46Z</time>
      </trkpt>
      <trkpt lat="45.04565" lon="4.07456">
        <ele>893</ele>
        <time>2016-07-24T07:22:53Z</time>
      </trkpt>
      <trkpt lat="45.04576" lon="4.0746">
        <ele>893</ele>
        <time>2016-07-24T07:23:06Z</time>
      </trkpt>
      <trkpt lat="45.04577" lon="4.07478">
        <ele>894</ele>
        <time>2016-07-24T07:23:21Z</time>
      </trkpt>
      <trkpt lat="45.04578" lon="4.07499">
        <ele>897</ele>
        <time>2016-07-24T07:23:39Z</time>
      </trkpt>
      <trkpt lat="45.04581" lon="4.07515">
        <ele>898</ele>
        <time>2016-07-24T07:23:52Z</time>
      </trkpt>
      <trkpt lat="45.04582" lon="4.0752">
        <ele>897</ele>
        <time>2016-07-24T07:24:07Z</time>
      </trkpt>
      <trkpt lat="45.04584" lon="4.07545">
        <ele>906</ele>
        <time>2016-07-24T07:24:21Z</time>
      </trkpt>
      <trkpt lat="45.04584" lon="4.07546">
        <ele>906</ele>
        <time>2016-07-24T07:24:22Z</time>
      </trkpt>
      <trkpt lat="45.04583" lon="4.07575">
        <ele>902</ele>
        <time>2016-07-24T07:24:40Z</time>
      </trkpt>
      <trkpt lat="45.04586" lon="4.07593">
        <ele>909</ele>
        <time>2016-07-24T07:24:54Z</time>
      </trkpt>
      <trkpt lat="45.04592" lon="4.0761">
        <ele>913</ele>
        <time>2016-07-24T07:25:08Z</time>
      </trkpt>
      <trkpt lat="45.046" lon="4.07623">
        <ele>915</ele>
        <time>2016-07-24T07:25:21Z</time>
      </trkpt>
      <trkpt lat="45.04614" lon="4.07621">
        <ele>916</ele>
        <time>2016-07-24T07:25:34Z</time>
      </trkpt>
      <trkpt lat="45.04631" lon="4.07613">
        <ele>917</ele>
        <time>2016-07-24T07:25:50Z</time>
      </trkpt>
      <trkpt lat="45.04639" lon="4.07607">
        <ele>917</ele>
        <time>2016-07-24T07:26:04Z</time>
      </trkpt>
      <trkpt lat="45.04653" lon="4.07598">
        <ele>918</ele>
        <time>2016-07-24T07:26:17Z</time>
      </trkpt>
      <trkpt lat="45.04666" lon="4.07593">
        <ele>919</ele>
        <time>2016-07-24T07:26:29Z</time>
      </trkpt>
      <trkpt lat="45.0467" lon="4.07593">
        <ele>923</ele>
        <time>2016-07-24T07:26:32Z</time>
      </trkpt>
      <trkpt lat="45.04675" lon="4.07597">
        <ele>924</ele>
        <time>2016-07-24T07:26:47Z</time>
      </trkpt>
      <trkpt lat="45.04678" lon="4.07598">
        <ele>924</ele>
        <time>2016-07-24T07:27:02Z</time>
      </trkpt>
      <trkpt lat="45.04684" lon="4.07602">
        <ele>925</ele>
        <time>2016-07-24T07:27:10Z</time>
      </trkpt>
      <trkpt lat="45.04699" lon="4.076">
        <ele>927</ele>
        <time>2016-07-24T07:27:26Z</time>
      </trkpt>
      <trkpt lat="45.04702" lon="4.07599">
        <ele>927</ele>
        <time>2016-07-24T07:27:30Z</time>
      </trkpt>
      <trkpt lat="45.0471" lon="4.07606">
        <ele>928</ele>
        <time>2016-07-24T07:27:40Z</time>
      </trkpt>
      <trkpt lat="45.04711" lon="4.07607">
        <ele>928</ele>
        <time>2016-07-24T07:27:41Z</time>
      </trkpt>
      <trkpt lat="45.04712" lon="4.07626">
        <ele>929</ele>
        <time>2016-07-24T07:27:54Z</time>
      </trkpt>
      <trkpt lat="45.04711" lon="4.07633">
        <ele>929</ele>
        <time>2016-07-24T07:27:58Z</time>
      </trkpt>
      <trkpt lat="45.04705" lon="4.07652">
        <ele>930</ele>
        <time>2016-07-24T07:28:13Z</time>
      </trkpt>
      <trkpt lat="45.04702" lon="4.07658">
        <ele>930</ele>
        <time>2016-07-24T07:28:26Z</time>
      </trkpt>
      <trkpt lat="45.04697" lon="4.07665">
        <ele>929</ele>
        <time>2016-07-24T07:28:42Z</time>
      </trkpt>
      <trkpt lat="45.04696" lon="4.07666">
        <ele>929</ele>
        <time>2016-07-24T07:28:45Z</time>
      </trkpt>
      <trkpt lat="45.04693" lon="4.07668">
        <ele>935</ele>
        <time>2016-07-24T07:29:00Z</time>
      </trkpt>
      <trkpt lat="45.04692" lon="4.07669">
        <ele>935</ele>
        <time>2016-07-24T07:29:23Z</time>
      </trkpt>
      <trkpt lat="45.04692" lon="4.07672">
        <ele>935</ele>
        <time>2016-07-24T07:29:37Z</time>
      </trkpt>
      <trkpt lat="45.04692" lon="4.07674">
        <ele>935</ele>
        <time>2016-07-24T07:29:56Z</time>
      </trkpt>
      <trkpt lat="45.04688" lon="4.07695">
        <ele>936</ele>
        <time>2016-07-24T07:30:10Z</time>
      </trkpt>
      <trkpt lat="45.04681" lon="4.07708">
        <ele>937</ele>
        <time>2016-07-24T07:30:23Z</time>
      </trkpt>
      <trkpt lat="45.04676" lon="4.07719">
        <ele>938</ele>
        <time>2016-07-24T07:30:35Z</time>
      </trkpt>
      <trkpt lat="45.04672" lon="4.07735">
        <ele>938</ele>
        <time>2016-07-24T07:30:47Z</time>
      </trkpt>
      <trkpt lat="45.04672" lon="4.07738">
        <ele>939</ele>
        <time>2016-07-24T07:30:49Z</time>
      </trkpt>
      <trkpt lat="45.04674" lon="4.07761">
        <ele>942</ele>
        <time>2016-07-24T07:31:05Z</time>
      </trkpt>
      <trkpt lat="45.04681" lon="4.07778">
        <ele>944</ele>
        <time>2016-07-24T07:31:18Z</time>
      </trkpt>
      <trkpt lat="45.04694" lon="4.07794">
        <ele>945</ele>
        <time>2016-07-24T07:31:36Z</time>
      </trkpt>
      <trkpt lat="45.04701" lon="4.07799">
        <ele>946</ele>
        <time>2016-07-24T07:31:43Z</time>
      </trkpt>
      <trkpt lat="45.04709" lon="4.07813">
        <ele>947</ele>
        <time>2016-07-24T07:31:58Z</time>
      </trkpt>
      <trkpt lat="45.04709" lon="4.07816">
        <ele>947</ele>
        <time>2016-07-24T07:32:00Z</time>
      </trkpt>
      <trkpt lat="45.04708" lon="4.07838">
        <ele>950</ele>
        <time>2016-07-24T07:32:15Z</time>
      </trkpt>
      <trkpt lat="45.04706" lon="4.0785">
        <ele>950</ele>
        <time>2016-07-24T07:32:24Z</time>
      </trkpt>
      <trkpt lat="45.04698" lon="4.07872">
        <ele>950</ele>
        <time>2016-07-24T07:32:40Z</time>
      </trkpt>
      <trkpt lat="45.04693" lon="4.07898">
        <ele>949</ele>
        <time>2016-07-24T07:32:56Z</time>
      </trkpt>
      <trkpt lat="45.04687" lon="4.07922">
        <ele>950</ele>
        <time>2016-07-24T07:33:10Z</time>
      </trkpt>
      <trkpt lat="45.04687" lon="4.0793">
        <ele>951</ele>
        <time>2016-07-24T07:33:15Z</time>
      </trkpt>
      <trkpt lat="45.04689" lon="4.07953">
        <ele>952</ele>
        <time>2016-07-24T07:33:31Z</time>
      </trkpt>
      <trkpt lat="45.04692" lon="4.07974">
        <ele>953</ele>
        <time>2016-07-24T07:33:45Z</time>
      </trkpt>
      <trkpt lat="45.04695" lon="4.07995">
        <ele>953</ele>
        <time>2016-07-24T07:34:00Z</time>
      </trkpt>
      <trkpt lat="45.04702" lon="4.08018">
        <ele>955</ele>
        <time>2016-07-24T07:34:16Z</time>
      </trkpt>
      <trkpt lat="45.04708" lon="4.08041">
        <ele>956</ele>
        <time>2016-07-24T07:34:29Z</time>
      </trkpt>
      <trkpt lat="45.04709" lon="4.08046">
        <ele>956</ele>
        <time>2016-07-24T07:34:33Z</time>
      </trkpt>
      <trkpt lat="45.04717" lon="4.08064">
        <ele>958</ele>
        <time>2016-07-24T07:34:47Z</time>
      </trkpt>
      <trkpt lat="45.04718" lon="4.08067">
        <ele>958</ele>
        <time>2016-07-24T07:34:50Z</time>
      </trkpt>
      <trkpt lat="45.04723" lon="4.0808">
        <ele>959</ele>
        <time>2016-07-24T07:35:01Z</time>
      </trkpt>
      <trkpt lat="45.0473" lon="4.08091">
        <ele>959</ele>
        <time>2016-07-24T07:35:12Z</time>
      </trkpt>
      <trkpt lat="45.04739" lon="4.08108">
        <ele>959</ele>
        <time>2016-07-24T07:35:26Z</time>
      </trkpt>
      <trkpt lat="45.04745" lon="4.08117">
        <ele>958</ele>
        <time>2016-07-24T07:35:34Z</time>
      </trkpt>
      <trkpt lat="45.04754" lon="4.08131">
        <ele>971</ele>
        <time>2016-07-24T07:35:49Z</time>
      </trkpt>
      <trkpt lat="45.04763" lon="4.08145">
        <ele>970</ele>
        <time>2016-07-24T07:36:03Z</time>
      </trkpt>
      <trkpt lat="45.04777" lon="4.08162">
        <ele>971</ele>
        <time>2016-07-24T07:36:18Z</time>
      </trkpt>
      <trkpt lat="45.04784" lon="4.0818">
        <ele>970</ele>
        <time>2016-07-24T07:36:31Z</time>
      </trkpt>
      <trkpt lat="45.0479" lon="4.0819">
        <ele>971</ele>
        <time>2016-07-24T07:36:39Z</time>
      </trkpt>
      <trkpt lat="45.04799" lon="4.08209">
        <ele>971</ele>
        <time>2016-07-24T07:36:53Z</time>
      </trkpt>
      <trkpt lat="45.04809" lon="4.08223">
        <ele>972</ele>
        <time>2016-07-24T07:37:06Z</time>
      </trkpt>
      <trkpt lat="45.04817" lon="4.08235">
        <ele>973</ele>
        <time>2016-07-24T07:37:17Z</time>
      </trkpt>
      <trkpt lat="45.04823" lon="4.08242">
        <ele>975</ele>
        <time>2016-07-24T07:37:23Z</time>
      </trkpt>
      <trkpt lat="45.04827" lon="4.08248">
        <ele>976</ele>
        <time>2016-07-24T07:37:29Z</time>
      </trkpt>
      <trkpt lat="45.04839" lon="4.08267">
        <ele>980</ele>
        <time>2016-07-24T07:37:44Z</time>
      </trkpt>
      <trkpt lat="45.04854" lon="4.08284">
        <ele>981</ele>
        <time>2016-07-24T07:37:59Z</time>
      </trkpt>
      <trkpt lat="45.04871" lon="4.08301">
        <ele>982</ele>
        <time>2016-07-24T07:38:16Z</time>
      </trkpt>
      <trkpt lat="45.04875" lon="4.08308">
        <ele>982</ele>
        <time>2016-07-24T07:38:21Z</time>
      </trkpt>
      <trkpt lat="45.0489" lon="4.08327">
        <ele>984</ele>
        <time>2016-07-24T07:38:38Z</time>
      </trkpt>
      <trkpt lat="45.04904" lon="4.08341">
        <ele>983</ele>
        <time>2016-07-24T07:38:52Z</time>
      </trkpt>
      <trkpt lat="45.04905" lon="4.08341">
        <ele>984</ele>
        <time>2016-07-24T07:38:53Z</time>
      </trkpt>
      <trkpt lat="45.04907" lon="4.08342">
        <ele>984</ele>
        <time>2016-07-24T07:38:55Z</time>
      </trkpt>
      <trkpt lat="45.04923" lon="4.08348">
        <ele>991</ele>
        <time>2016-07-24T07:39:09Z</time>
      </trkpt>
      <trkpt lat="45.04934" lon="4.0835">
        <ele>991</ele>
        <time>2016-07-24T07:39:17Z</time>
      </trkpt>
      <trkpt lat="45.04954" lon="4.08341">
        <ele>993</ele>
        <time>2016-07-24T07:39:35Z</time>
      </trkpt>
      <trkpt lat="45.04957" lon="4.0834">
        <ele>993</ele>
        <time>2016-07-24T07:39:38Z</time>
      </trkpt>
      <trkpt lat="45.04972" lon="4.08337">
        <ele>995</ele>
        <time>2016-07-24T07:39:52Z</time>
      </trkpt>
      <trkpt lat="45.04972" lon="4.08335">
        <ele>995</ele>
        <time>2016-07-24T07:39:53Z</time>
      </trkpt>
      <trkpt lat="45.04971" lon="4.08303">
        <ele>995</ele>
        <time>2016-07-24T07:40:12Z</time>
      </trkpt>
      <trkpt lat="45.04976" lon="4.08278">
        <ele>995</ele>
        <time>2016-07-24T07:40:27Z</time>
      </trkpt>
      <trkpt lat="45.04992" lon="4.08249">
        <ele>996</ele>
        <time>2016-07-24T07:40:45Z</time>
      </trkpt>
      <trkpt lat="45.05004" lon="4.08232">
        <ele>1000</ele>
        <time>2016-07-24T07:41:00Z</time>
      </trkpt>
      <trkpt lat="45.05022" lon="4.08247">
        <ele>1001</ele>
        <time>2016-07-24T07:41:17Z</time>
      </trkpt>
      <trkpt lat="45.05035" lon="4.08272">
        <ele>1004</ele>
        <time>2016-07-24T07:41:35Z</time>
      </trkpt>
      <trkpt lat="45.05036" lon="4.08275">
        <ele>1004</ele>
        <time>2016-07-24T07:41:37Z</time>
      </trkpt>
      <trkpt lat="45.05036" lon="4.08279">
        <ele>1004</ele>
        <time>2016-07-24T07:41:40Z</time>
      </trkpt>
      <trkpt lat="45.05037" lon="4.08282">
        <ele>1004</ele>
        <time>2016-07-24T07:41:42Z</time>
      </trkpt>
      <trkpt lat="45.0504" lon="4.08306">
        <ele>1005</ele>
        <time>2016-07-24T07:41:57Z</time>
      </trkpt>
      <trkpt lat="45.05046" lon="4.0833">
        <ele>1005</ele>
        <time>2016-07-24T07:42:12Z</time>
      </trkpt>
      <trkpt lat="45.05056" lon="4.08358">
        <ele>1006</ele>
        <time>2016-07-24T07:42:30Z</time>
      </trkpt>
      <trkpt lat="45.05067" lon="4.08371">
        <ele>1006</ele>
        <time>2016-07-24T07:42:45Z</time>
      </trkpt>
      <trkpt lat="45.05079" lon="4.08384">
        <ele>1007</ele>
        <time>2016-07-24T07:43:00Z</time>
      </trkpt>
      <trkpt lat="45.05093" lon="4.08402">
        <ele>1014</ele>
        <time>2016-07-24T07:43:15Z</time>
      </trkpt>
      <trkpt lat="45.05099" lon="4.08412">
        <ele>1014</ele>
        <time>2016-07-24T07:43:23Z</time>
      </trkpt>
      <trkpt lat="45.0511" lon="4.08438">
        <ele>1016</ele>
        <time>2016-07-24T07:43:41Z</time>
      </trkpt>
      <trkpt lat="45.05119" lon="4.08466">
        <ele>1018</ele>
        <time>2016-07-24T07:43:58Z</time>
      </trkpt>
      <trkpt lat="45.05128" lon="4.08488">
        <ele>1019</ele>
        <time>2016-07-24T07:44:13Z</time>
      </trkpt>
      <trkpt lat="45.05138" lon="4.08512">
        <ele>1019</ele>
        <time>2016-07-24T07:44:28Z</time>
      </trkpt>
      <trkpt lat="45.05153" lon="4.08528">
        <ele>1020</ele>
        <time>2016-07-24T07:44:43Z</time>
      </trkpt>
      <trkpt lat="45.05154" lon="4.0853">
        <ele>1020</ele>
        <time>2016-07-24T07:44:58Z</time>
      </trkpt>
      <trkpt lat="45.05157" lon="4.08533">
        <ele>1020</ele>
        <time>2016-07-24T07:45:14Z</time>
      </trkpt>
      <trkpt lat="45.05169" lon="4.08547">
        <ele>1030</ele>
        <time>2016-07-24T07:45:27Z</time>
      </trkpt>
      <trkpt lat="45.05174" lon="4.08554">
        <ele>1029</ele>
        <time>2016-07-24T07:45:34Z</time>
      </trkpt>
      <trkpt lat="45.05181" lon="4.0856">
        <ele>1030</ele>
        <time>2016-07-24T07:45:47Z</time>
      </trkpt>
      <trkpt lat="45.05186" lon="4.08561">
        <ele>1030</ele>
        <time>2016-07-24T07:45:57Z</time>
      </trkpt>
      <trkpt lat="45.05193" lon="4.08563">
        <ele>1031</ele>
        <time>2016-07-24T07:46:04Z</time>
      </trkpt>
      <trkpt lat="45.05209" lon="4.08556">
        <ele>1032</ele>
        <time>2016-07-24T07:46:20Z</time>
      </trkpt>
      <trkpt lat="45.0521" lon="4.08556">
        <ele>1032</ele>
        <time>2016-07-24T07:46:21Z</time>
      </trkpt>
      <trkpt lat="45.05206" lon="4.08526">
        <ele>1033</ele>
        <time>2016-07-24T07:46:38Z</time>
      </trkpt>
      <trkpt lat="45.05202" lon="4.08505">
        <ele>1032</ele>
        <time>2016-07-24T07:46:51Z</time>
      </trkpt>
      <trkpt lat="45.05207" lon="4.08473">
        <ele>1034</ele>
        <time>2016-07-24T07:47:09Z</time>
      </trkpt>
      <trkpt lat="45.05222" lon="4.0845">
        <ele>1035</ele>
        <time>2016-07-24T07:47:25Z</time>
      </trkpt>
      <trkpt lat="45.05227" lon="4.08435">
        <ele>1035</ele>
        <time>2016-07-24T07:47:33Z</time>
      </trkpt>
      <trkpt lat="45.05224" lon="4.0842">
        <ele>1035</ele>
        <time>2016-07-24T07:47:41Z</time>
      </trkpt>
      <trkpt lat="45.05214" lon="4.08398">
        <ele>1033</ele>
        <time>2016-07-24T07:47:58Z</time>
      </trkpt>
      <trkpt lat="45.05207" lon="4.08384">
        <ele>1032</ele>
        <time>2016-07-24T07:48:11Z</time>
      </trkpt>
      <trkpt lat="45.05189" lon="4.08357">
        <ele>1030</ele>
        <time>2016-07-24T07:48:29Z</time>
      </trkpt>
      <trkpt lat="45.05174" lon="4.0833">
        <ele>1026</ele>
        <time>2016-07-24T07:48:46Z</time>
      </trkpt>
      <trkpt lat="45.05163" lon="4.08296">
        <ele>1020</ele>
        <time>2016-07-24T07:49:05Z</time>
      </trkpt>
      <trkpt lat="45.05152" lon="4.08255">
        <ele>1022</ele>
        <time>2016-07-24T07:49:28Z</time>
      </trkpt>
      <trkpt lat="45.05144" lon="4.08223">
        <ele>1020</ele>
        <time>2016-07-24T07:49:46Z</time>
      </trkpt>
      <trkpt lat="45.05142" lon="4.08203">
        <ele>1019</ele>
        <time>2016-07-24T07:50:03Z</time>
      </trkpt>
      <trkpt lat="45.05143" lon="4.08208">
        <ele>1019</ele>
        <time>2016-07-24T07:50:14Z</time>
      </trkpt>
      <trkpt lat="45.05141" lon="4.08196">
        <ele>1019</ele>
        <time>2016-07-24T07:50:29Z</time>
      </trkpt>
      <trkpt lat="45.05143" lon="4.08178">
        <ele>1020</ele>
        <time>2016-07-24T07:50:40Z</time>
      </trkpt>
      <trkpt lat="45.05147" lon="4.08171">
        <ele>1021</ele>
        <time>2016-07-24T07:50:45Z</time>
      </trkpt>
      <trkpt lat="45.05158" lon="4.0815">
        <ele>1021</ele>
        <time>2016-07-24T07:51:01Z</time>
      </trkpt>
      <trkpt lat="45.05169" lon="4.08136">
        <ele>1031</ele>
        <time>2016-07-24T07:51:16Z</time>
      </trkpt>
      <trkpt lat="45.05177" lon="4.08127">
        <ele>1032</ele>
        <time>2016-07-24T07:51:27Z</time>
      </trkpt>
      <trkpt lat="45.05181" lon="4.08121">
        <ele>1032</ele>
        <time>2016-07-24T07:51:32Z</time>
      </trkpt>
      <trkpt lat="45.05188" lon="4.08108">
        <ele>1032</ele>
        <time>2016-07-24T07:51:42Z</time>
      </trkpt>
      <trkpt lat="45.05193" lon="4.0809">
        <ele>1032</ele>
        <time>2016-07-24T07:51:56Z</time>
      </trkpt>
      <trkpt lat="45.05203" lon="4.08081">
        <ele>1032</ele>
        <time>2016-07-24T07:52:10Z</time>
      </trkpt>
      <trkpt lat="45.05213" lon="4.0808">
        <ele>1033</ele>
        <time>2016-07-24T07:52:20Z</time>
      </trkpt>
      <trkpt lat="45.05226" lon="4.08082">
        <ele>1036</ele>
        <time>2016-07-24T07:52:34Z</time>
      </trkpt>
      <trkpt lat="45.0523" lon="4.08084">
        <ele>1038</ele>
        <time>2016-07-24T07:52:38Z</time>
      </trkpt>
      <trkpt lat="45.05232" lon="4.08086">
        <ele>1038</ele>
        <time>2016-07-24T07:52:43Z</time>
      </trkpt>
      <trkpt lat="45.05242" lon="4.08103">
        <ele>1038</ele>
        <time>2016-07-24T07:52:57Z</time>
      </trkpt>
      <trkpt lat="45.0525" lon="4.08119">
        <ele>1048</ele>
        <time>2016-07-24T07:53:10Z</time>
      </trkpt>
      <trkpt lat="45.0525" lon="4.0814">
        <ele>1049</ele>
        <time>2016-07-24T07:53:23Z</time>
      </trkpt>
      <trkpt lat="45.05251" lon="4.08149">
        <ele>1048</ele>
        <time>2016-07-24T07:53:29Z</time>
      </trkpt>
      <trkpt lat="45.0525" lon="4.08152">
        <ele>1048</ele>
        <time>2016-07-24T07:53:31Z</time>
      </trkpt>
      <trkpt lat="45.05248" lon="4.08167">
        <ele>1045</ele>
        <time>2016-07-24T07:53:44Z</time>
      </trkpt>
      <trkpt lat="45.05253" lon="4.08186">
        <ele>1048</ele>
        <time>2016-07-24T07:53:56Z</time>
      </trkpt>
      <trkpt lat="45.05259" lon="4.08204">
        <ele>1049</ele>
        <time>2016-07-24T07:54:08Z</time>
      </trkpt>
      <trkpt lat="45.05262" lon="4.08227">
        <ele>1048</ele>
        <time>2016-07-24T07:54:23Z</time>
      </trkpt>
      <trkpt lat="45.05264" lon="4.08236">
        <ele>1047</ele>
        <time>2016-07-24T07:54:31Z</time>
      </trkpt>
      <trkpt lat="45.05278" lon="4.08246">
        <ele>1048</ele>
        <time>2016-07-24T07:54:45Z</time>
      </trkpt>
      <trkpt lat="45.0529" lon="4.08251">
        <ele>1049</ele>
        <time>2016-07-24T07:54:59Z</time>
      </trkpt>
      <trkpt lat="45.053" lon="4.08251">
        <ele>1051</ele>
        <time>2016-07-24T07:55:11Z</time>
      </trkpt>
      <trkpt lat="45.05316" lon="4.08254">
        <ele>1053</ele>
        <time>2016-07-24T07:55:23Z</time>
      </trkpt>
      <trkpt lat="45.05323" lon="4.08256">
        <ele>1054</ele>
        <time>2016-07-24T07:55:29Z</time>
      </trkpt>
      <trkpt lat="45.05329" lon="4.08259">
        <ele>1055</ele>
        <time>2016-07-24T07:55:34Z</time>
      </trkpt>
      <trkpt lat="45.05334" lon="4.08266">
        <ele>1067</ele>
        <time>2016-07-24T07:55:49Z</time>
      </trkpt>
      <trkpt lat="45.05333" lon="4.08279">
        <ele>1053</ele>
        <time>2016-07-24T07:56:02Z</time>
      </trkpt>
      <trkpt lat="45.05334" lon="4.08297">
        <ele>1071</ele>
        <time>2016-07-24T07:56:15Z</time>
      </trkpt>
      <trkpt lat="45.0534" lon="4.08305">
        <ele>1071</ele>
        <time>2016-07-24T07:56:27Z</time>
      </trkpt>
      <trkpt lat="45.05345" lon="4.08314">
        <ele>1071</ele>
        <time>2016-07-24T07:56:39Z</time>
      </trkpt>
      <trkpt lat="45.05349" lon="4.08324">
        <ele>1070</ele>
        <time>2016-07-24T07:56:51Z</time>
      </trkpt>
      <trkpt lat="45.05351" lon="4.08347">
        <ele>1069</ele>
        <time>2016-07-24T07:57:06Z</time>
      </trkpt>
      <trkpt lat="45.05356" lon="4.08359">
        <ele>1071</ele>
        <time>2016-07-24T07:57:13Z</time>
      </trkpt>
      <trkpt lat="45.05366" lon="4.08376">
        <ele>1073</ele>
        <time>2016-07-24T07:57:28Z</time>
      </trkpt>
      <trkpt lat="45.05372" lon="4.08388">
        <ele>1073</ele>
        <time>2016-07-24T07:57:40Z</time>
      </trkpt>
      <trkpt lat="45.05383" lon="4.08404">
        <ele>1075</ele>
        <time>2016-07-24T07:57:54Z</time>
      </trkpt>
      <trkpt lat="45.05394" lon="4.08409">
        <ele>1077</ele>
        <time>2016-07-24T07:58:05Z</time>
      </trkpt>
      <trkpt lat="45.05412" lon="4.08412">
        <ele>1081</ele>
        <time>2016-07-24T07:58:21Z</time>
      </trkpt>
      <trkpt lat="45.05422" lon="4.0842">
        <ele>1084</ele>
        <time>2016-07-24T07:58:34Z</time>
      </trkpt>
      <trkpt lat="45.05423" lon="4.08421">
        <ele>1084</ele>
        <time>2016-07-24T07:58:51Z</time>
      </trkpt>
      <trkpt lat="45.05423" lon="4.08421">
        <ele>1084</ele>
        <time>2016-07-24T07:59:23Z</time>
      </trkpt>
      <trkpt lat="45.05425" lon="4.08421">
        <ele>1085</ele>
        <time>2016-07-24T08:00:01Z</time>
      </trkpt>
      <trkpt lat="45.05426" lon="4.0842">
        <ele>1085</ele>
        <time>2016-07-24T08:00:25Z</time>
      </trkpt>
      <trkpt lat="45.05428" lon="4.08415">
        <ele>1089</ele>
        <time>2016-07-24T08:00:37Z</time>
      </trkpt>
      <trkpt lat="45.0543" lon="4.08413">
        <ele>1090</ele>
        <time>2016-07-24T08:00:48Z</time>
      </trkpt>
      <trkpt lat="45.05434" lon="4.08407">
        <ele>1092</ele>
        <time>2016-07-24T08:01:02Z</time>
      </trkpt>
      <trkpt lat="45.05438" lon="4.084">
        <ele>1094</ele>
        <time>2016-07-24T08:01:17Z</time>
      </trkpt>
      <trkpt lat="45.05439" lon="4.08396">
        <ele>1095</ele>
        <time>2016-07-24T08:01:31Z</time>
      </trkpt>
      <trkpt lat="45.05442" lon="4.08382">
        <ele>1098</ele>
        <time>2016-07-24T08:01:44Z</time>
      </trkpt>
      <trkpt lat="45.05441" lon="4.08372">
        <ele>1098</ele>
        <time>2016-07-24T08:01:57Z</time>
      </trkpt>
      <trkpt lat="45.0544" lon="4.08353">
        <ele>1099</ele>
        <time>2016-07-24T08:02:11Z</time>
      </trkpt>
      <trkpt lat="45.05447" lon="4.08339">
        <ele>1101</ele>
        <time>2016-07-24T08:02:23Z</time>
      </trkpt>
      <trkpt lat="45.05451" lon="4.08334">
        <ele>1102</ele>
        <time>2016-07-24T08:02:35Z</time>
      </trkpt>
      <trkpt lat="45.05452" lon="4.08331">
        <ele>1111</ele>
        <time>2016-07-24T08:02:44Z</time>
      </trkpt>
      <trkpt lat="45.05449" lon="4.08326">
        <ele>1110</ele>
        <time>2016-07-24T08:03:00Z</time>
      </trkpt>
      <trkpt lat="45.05444" lon="4.08314">
        <ele>1110</ele>
        <time>2016-07-24T08:03:11Z</time>
      </trkpt>
      <trkpt lat="45.0544" lon="4.08303">
        <ele>1111</ele>
        <time>2016-07-24T08:03:24Z</time>
      </trkpt>
      <trkpt lat="45.05441" lon="4.08297">
        <ele>1112</ele>
        <time>2016-07-24T08:03:35Z</time>
      </trkpt>
      <trkpt lat="45.05442" lon="4.0829">
        <ele>1112</ele>
        <time>2016-07-24T08:03:47Z</time>
      </trkpt>
      <trkpt lat="45.05446" lon="4.08286">
        <ele>1113</ele>
        <time>2016-07-24T08:03:59Z</time>
      </trkpt>
      <trkpt lat="45.05448" lon="4.08283">
        <ele>1114</ele>
        <time>2016-07-24T08:04:17Z</time>
      </trkpt>
      <trkpt lat="45.05449" lon="4.08281">
        <ele>1114</ele>
        <time>2016-07-24T08:04:29Z</time>
      </trkpt>
      <trkpt lat="45.05451" lon="4.08281">
        <ele>1115</ele>
        <time>2016-07-24T08:04:48Z</time>
      </trkpt>
      <trkpt lat="45.05454" lon="4.08276">
        <ele>1116</ele>
        <time>2016-07-24T08:05:14Z</time>
      </trkpt>
      <trkpt lat="45.05453" lon="4.08273">
        <ele>1115</ele>
        <time>2016-07-24T08:05:26Z</time>
      </trkpt>
      <trkpt lat="45.05443" lon="4.0827">
        <ele>1113</ele>
        <time>2016-07-24T08:05:39Z</time>
      </trkpt>
      <trkpt lat="45.0544" lon="4.08266">
        <ele>1112</ele>
        <time>2016-07-24T08:05:49Z</time>
      </trkpt>
      <trkpt lat="45.05433" lon="4.08254">
        <ele>1109</ele>
        <time>2016-07-24T08:06:02Z</time>
      </trkpt>
      <trkpt lat="45.05429" lon="4.08239">
        <ele>1111</ele>
        <time>2016-07-24T08:06:16Z</time>
      </trkpt>
      <trkpt lat="45.05429" lon="4.08237">
        <ele>1112</ele>
        <time>2016-07-24T08:06:29Z</time>
      </trkpt>
      <trkpt lat="45.0543" lon="4.08238">
        <ele>1112</ele>
        <time>2016-07-24T08:06:48Z</time>
      </trkpt>
      <trkpt lat="45.05433" lon="4.08241">
        <ele>1112</ele>
        <time>2016-07-24T08:06:59Z</time>
      </trkpt>
      <trkpt lat="45.05438" lon="4.08241">
        <ele>1114</ele>
        <time>2016-07-24T08:07:14Z</time>
      </trkpt>
      <trkpt lat="45.05441" lon="4.08233">
        <ele>1116</ele>
        <time>2016-07-24T08:07:28Z</time>
      </trkpt>
      <trkpt lat="45.05443" lon="4.08225">
        <ele>1117</ele>
        <time>2016-07-24T08:07:42Z</time>
      </trkpt>
      <trkpt lat="45.05441" lon="4.08222">
        <ele>1117</ele>
        <time>2016-07-24T08:07:55Z</time>
      </trkpt>
      <trkpt lat="45.05442" lon="4.08221">
        <ele>1117</ele>
        <time>2016-07-24T08:08:26Z</time>
      </trkpt>
      <trkpt lat="45.05441" lon="4.08222">
        <ele>1117</ele>
        <time>2016-07-24T08:08:48Z</time>
      </trkpt>
      <trkpt lat="45.05441" lon="4.08221">
        <ele>1117</ele>
        <time>2016-07-24T08:09:08Z</time>
      </trkpt>
      <trkpt lat="45.0544" lon="4.08222">
        <ele>1116</ele>
        <time>2016-07-24T08:09:33Z</time>
      </trkpt>
      <trkpt lat="45.05445" lon="4.08221">
        <ele>1118</ele>
        <time>2016-07-24T08:09:55Z</time>
      </trkpt>
      <trkpt lat="45.05451" lon="4.0822">
        <ele>1119</ele>
        <time>2016-07-24T08:10:08Z</time>
      </trkpt>
      <trkpt lat="45.05462" lon="4.08216">
        <ele>1123</ele>
        <time>2016-07-24T08:10:22Z</time>
      </trkpt>
      <trkpt lat="45.05468" lon="4.08211">
        <ele>1124</ele>
        <time>2016-07-24T08:10:34Z</time>
      </trkpt>
      <trkpt lat="45.05475" lon="4.08201">
        <ele>1127</ele>
        <time>2016-07-24T08:10:47Z</time>
      </trkpt>
      <trkpt lat="45.05481" lon="4.0819">
        <ele>1130</ele>
        <time>2016-07-24T08:11:02Z</time>
      </trkpt>
      <trkpt lat="45.05481" lon="4.08184">
        <ele>1131</ele>
        <time>2016-07-24T08:11:16Z</time>
      </trkpt>
      <trkpt lat="45.05482" lon="4.08181">
        <ele>1132</ele>
        <time>2016-07-24T08:11:28Z</time>
      </trkpt>
      <trkpt lat="45.05485" lon="4.08179">
        <ele>1134</ele>
        <time>2016-07-24T08:11:33Z</time>
      </trkpt>
      <trkpt lat="45.05489" lon="4.08178">
        <ele>1137</ele>
        <time>2016-07-24T08:11:44Z</time>
      </trkpt>
      <trkpt lat="45.0549" lon="4.08172">
        <ele>1139</ele>
        <time>2016-07-24T08:11:58Z</time>
      </trkpt>
      <trkpt lat="45.0549" lon="4.08168">
        <ele>1140</ele>
        <time>2016-07-24T08:12:08Z</time>
      </trkpt>
      <trkpt lat="45.05492" lon="4.08164">
        <ele>1139</ele>
        <time>2016-07-24T08:12:20Z</time>
      </trkpt>
      <trkpt lat="45.05493" lon="4.08153">
        <ele>1134</ele>
        <time>2016-07-24T08:12:34Z</time>
      </trkpt>
      <trkpt lat="45.05494" lon="4.08149">
        <ele>1132</ele>
        <time>2016-07-24T08:12:38Z</time>
      </trkpt>
      <trkpt lat="45.05495" lon="4.08143">
        <ele>1129</ele>
        <time>2016-07-24T08:12:44Z</time>
      </trkpt>
      <trkpt lat="45.05496" lon="4.08138">
        <ele>1127</ele>
        <time>2016-07-24T08:12:50Z</time>
      </trkpt>
      <trkpt lat="45.055" lon="4.08133">
        <ele>1152</ele>
        <time>2016-07-24T08:13:03Z</time>
      </trkpt>
      <trkpt lat="45.05502" lon="4.08129">
        <ele>1152</ele>
        <time>2016-07-24T08:13:15Z</time>
      </trkpt>
      <trkpt lat="45.05501" lon="4.08129">
        <ele>1152</ele>
        <time>2016-07-24T08:13:37Z</time>
      </trkpt>
      <trkpt lat="45.05503" lon="4.08129">
        <ele>1152</ele>
        <time>2016-07-24T08:13:48Z</time>
      </trkpt>
      <trkpt lat="45.05512" lon="4.08141">
        <ele>1154</ele>
        <time>2016-07-24T08:14:03Z</time>
      </trkpt>
      <trkpt lat="45.0552" lon="4.08143">
        <ele>1155</ele>
        <time>2016-07-24T08:14:16Z</time>
      </trkpt>
      <trkpt lat="45.05527" lon="4.08142">
        <ele>1156</ele>
        <time>2016-07-24T08:14:32Z</time>
      </trkpt>
      <trkpt lat="45.05532" lon="4.08142">
        <ele>1157</ele>
        <time>2016-07-24T08:14:44Z</time>
      </trkpt>
      <trkpt lat="45.05547" lon="4.08146">
        <ele>1160</ele>
        <time>2016-07-24T08:14:58Z</time>
      </trkpt>
      <trkpt lat="45.05561" lon="4.08143">
        <ele>1163</ele>
        <time>2016-07-24T08:15:11Z</time>
      </trkpt>
      <trkpt lat="45.05571" lon="4.08142">
        <ele>1164</ele>
        <time>2016-07-24T08:15:24Z</time>
      </trkpt>
      <trkpt lat="45.05583" lon="4.08145">
        <ele>1167</ele>
        <time>2016-07-24T08:15:37Z</time>
      </trkpt>
      <trkpt lat="45.05592" lon="4.08145">
        <ele>1179</ele>
        <time>2016-07-24T08:15:50Z</time>
      </trkpt>
      <trkpt lat="45.05601" lon="4.0815">
        <ele>1179</ele>
        <time>2016-07-24T08:16:01Z</time>
      </trkpt>
      <trkpt lat="45.05602" lon="4.08152">
        <ele>1179</ele>
        <time>2016-07-24T08:16:20Z</time>
      </trkpt>
      <trkpt lat="45.05603" lon="4.08151">
        <ele>1179</ele>
        <time>2016-07-24T08:16:37Z</time>
      </trkpt>
      <trkpt lat="45.05603" lon="4.08151">
        <ele>1179</ele>
        <time>2016-07-24T08:16:52Z</time>
      </trkpt>
      <trkpt lat="45.05603" lon="4.08151">
        <ele>1179</ele>
        <time>2016-07-24T08:17:10Z</time>
      </trkpt>
      <trkpt lat="45.05608" lon="4.08154">
        <ele>1180</ele>
        <time>2016-07-24T08:17:22Z</time>
      </trkpt>
      <trkpt lat="45.05616" lon="4.08154">
        <ele>1181</ele>
        <time>2016-07-24T08:17:36Z</time>
      </trkpt>
      <trkpt lat="45.05624" lon="4.08151">
        <ele>1181</ele>
        <time>2016-07-24T08:17:50Z</time>
      </trkpt>
      <trkpt lat="45.05631" lon="4.08146">
        <ele>1182</ele>
        <time>2016-07-24T08:18:03Z</time>
      </trkpt>
      <trkpt lat="45.05639" lon="4.0814">
        <ele>1182</ele>
        <time>2016-07-24T08:18:17Z</time>
      </trkpt>
      <trkpt lat="45.05649" lon="4.0814">
        <ele>1183</ele>
        <time>2016-07-24T08:18:30Z</time>
      </trkpt>
      <trkpt lat="45.05659" lon="4.08142">
        <ele>1185</ele>
        <time>2016-07-24T08:18:44Z</time>
      </trkpt>
      <trkpt lat="45.0567" lon="4.08144">
        <ele>1190</ele>
        <time>2016-07-24T08:18:58Z</time>
      </trkpt>
      <trkpt lat="45.05682" lon="4.08144">
        <ele>1190</ele>
        <time>2016-07-24T08:19:13Z</time>
      </trkpt>
      <trkpt lat="45.0569" lon="4.08144">
        <ele>1190</ele>
        <time>2016-07-24T08:19:23Z</time>
      </trkpt>
      <trkpt lat="45.05695" lon="4.08145">
        <ele>1190</ele>
        <time>2016-07-24T08:19:37Z</time>
      </trkpt>
      <trkpt lat="45.05697" lon="4.08145">
        <ele>1191</ele>
        <time>2016-07-24T08:19:52Z</time>
      </trkpt>
      <trkpt lat="45.05705" lon="4.08146">
        <ele>1191</ele>
        <time>2016-07-24T08:20:05Z</time>
      </trkpt>
      <trkpt lat="45.05712" lon="4.08143">
        <ele>1191</ele>
        <time>2016-07-24T08:20:19Z</time>
      </trkpt>
      <trkpt lat="45.05723" lon="4.08149">
        <ele>1192</ele>
        <time>2016-07-24T08:20:33Z</time>
      </trkpt>
      <trkpt lat="45.05731" lon="4.08156">
        <ele>1193</ele>
        <time>2016-07-24T08:20:45Z</time>
      </trkpt>
      <trkpt lat="45.05735" lon="4.08169">
        <ele>1194</ele>
        <time>2016-07-24T08:20:56Z</time>
      </trkpt>
      <trkpt lat="45.05739" lon="4.08181">
        <ele>1194</ele>
        <time>2016-07-24T08:21:08Z</time>
      </trkpt>
      <trkpt lat="45.05742" lon="4.08188">
        <ele>1193</ele>
        <time>2016-07-24T08:21:21Z</time>
      </trkpt>
      <trkpt lat="45.05745" lon="4.08196">
        <ele>1192</ele>
        <time>2016-07-24T08:21:33Z</time>
      </trkpt>
      <trkpt lat="45.05749" lon="4.08199">
        <ele>1192</ele>
        <time>2016-07-24T08:21:44Z</time>
      </trkpt>
      <trkpt lat="45.05755" lon="4.08201">
        <ele>1189</ele>
        <time>2016-07-24T08:21:57Z</time>
      </trkpt>
      <trkpt lat="45.0576" lon="4.08204">
        <ele>1188</ele>
        <time>2016-07-24T08:22:10Z</time>
      </trkpt>
      <trkpt lat="45.0577" lon="4.08212">
        <ele>1187</ele>
        <time>2016-07-24T08:22:22Z</time>
      </trkpt>
      <trkpt lat="45.05772" lon="4.08218">
        <ele>1187</ele>
        <time>2016-07-24T08:22:26Z</time>
      </trkpt>
      <trkpt lat="45.05778" lon="4.08231">
        <ele>1187</ele>
        <time>2016-07-24T08:22:39Z</time>
      </trkpt>
      <trkpt lat="45.05781" lon="4.08241">
        <ele>1186</ele>
        <time>2016-07-24T08:22:50Z</time>
      </trkpt>
      <trkpt lat="45.05797" lon="4.0826">
        <ele>1185</ele>
        <time>2016-07-24T08:23:03Z</time>
      </trkpt>
      <trkpt lat="45.05806" lon="4.08274">
        <ele>1185</ele>
        <time>2016-07-24T08:23:16Z</time>
      </trkpt>
      <trkpt lat="45.05809" lon="4.08289">
        <ele>1185</ele>
        <time>2016-07-24T08:23:28Z</time>
      </trkpt>
      <trkpt lat="45.05805" lon="4.08294">
        <ele>1185</ele>
        <time>2016-07-24T08:23:39Z</time>
      </trkpt>
      <trkpt lat="45.05801" lon="4.08295">
        <ele>1185</ele>
        <time>2016-07-24T08:23:42Z</time>
      </trkpt>
      <trkpt lat="45.0578" lon="4.08291">
        <ele>1186</ele>
        <time>2016-07-24T08:23:56Z</time>
      </trkpt>
      <trkpt lat="45.05761" lon="4.08286">
        <ele>1186</ele>
        <time>2016-07-24T08:24:10Z</time>
      </trkpt>
      <trkpt lat="45.05753" lon="4.08283">
        <ele>1186</ele>
        <time>2016-07-24T08:24:23Z</time>
      </trkpt>
      <trkpt lat="45.05749" lon="4.08292">
        <ele>1182</ele>
        <time>2016-07-24T08:24:36Z</time>
      </trkpt>
      <trkpt lat="45.05744" lon="4.08293">
        <ele>1181</ele>
        <time>2016-07-24T08:24:47Z</time>
      </trkpt>
      <trkpt lat="45.05736" lon="4.08295">
        <ele>1181</ele>
        <time>2016-07-24T08:25:00Z</time>
      </trkpt>
      <trkpt lat="45.05728" lon="4.083">
        <ele>1180</ele>
        <time>2016-07-24T08:25:16Z</time>
      </trkpt>
      <trkpt lat="45.05724" lon="4.08303">
        <ele>1180</ele>
        <time>2016-07-24T08:25:29Z</time>
      </trkpt>
      <trkpt lat="45.0571" lon="4.08307">
        <ele>1178</ele>
        <time>2016-07-24T08:25:41Z</time>
      </trkpt>
      <trkpt lat="45.0568" lon="4.08318">
        <ele>1172</ele>
        <time>2016-07-24T08:25:55Z</time>
      </trkpt>
      <trkpt lat="45.05674" lon="4.08325">
        <ele>1170</ele>
        <time>2016-07-24T08:26:09Z</time>
      </trkpt>
      <trkpt lat="45.05667" lon="4.08329">
        <ele>1167</ele>
        <time>2016-07-24T08:26:22Z</time>
      </trkpt>
      <trkpt lat="45.05649" lon="4.08333">
        <ele>1162</ele>
        <time>2016-07-24T08:26:35Z</time>
      </trkpt>
      <trkpt lat="45.05633" lon="4.08333">
        <ele>1160</ele>
        <time>2016-07-24T08:26:50Z</time>
      </trkpt>
      <trkpt lat="45.05627" lon="4.08333">
        <ele>1159</ele>
        <time>2016-07-24T08:27:05Z</time>
      </trkpt>
      <trkpt lat="45.05619" lon="4.08335">
        <ele>1148</ele>
        <time>2016-07-24T08:27:18Z</time>
      </trkpt>
      <trkpt lat="45.05608" lon="4.0834">
        <ele>1146</ele>
        <time>2016-07-24T08:27:31Z</time>
      </trkpt>
      <trkpt lat="45.05601" lon="4.08341">
        <ele>1145</ele>
        <time>2016-07-24T08:27:42Z</time>
      </trkpt>
      <trkpt lat="45.05598" lon="4.08343">
        <ele>1145</ele>
        <time>2016-07-24T08:27:49Z</time>
      </trkpt>
      <trkpt lat="45.05599" lon="4.08346">
        <ele>1145</ele>
        <time>2016-07-24T08:27:54Z</time>
      </trkpt>
      <trkpt lat="45.05579" lon="4.08362">
        <ele>1130</ele>
        <time>2016-07-24T08:28:07Z</time>
      </trkpt>
      <trkpt lat="45.05575" lon="4.08376">
        <ele>1127</ele>
        <time>2016-07-24T08:28:20Z</time>
      </trkpt>
      <trkpt lat="45.05575" lon="4.08393">
        <ele>1126</ele>
        <time>2016-07-24T08:28:32Z</time>
      </trkpt>
      <trkpt lat="45.05574" lon="4.08402">
        <ele>1126</ele>
        <time>2016-07-24T08:28:38Z</time>
      </trkpt>
      <trkpt lat="45.05574" lon="4.08422">
        <ele>1122</ele>
        <time>2016-07-24T08:28:55Z</time>
      </trkpt>
      <trkpt lat="45.05574" lon="4.08436">
        <ele>1118</ele>
        <time>2016-07-24T08:29:07Z</time>
      </trkpt>
      <trkpt lat="45.05572" lon="4.08446">
        <ele>1116</ele>
        <time>2016-07-24T08:29:18Z</time>
      </trkpt>
      <trkpt lat="45.0557" lon="4.0846">
        <ele>1114</ele>
        <time>2016-07-24T08:29:33Z</time>
      </trkpt>
      <trkpt lat="45.05562" lon="4.08472">
        <ele>1113</ele>
        <time>2016-07-24T08:29:45Z</time>
      </trkpt>
      <trkpt lat="45.0556" lon="4.08474">
        <ele>1112</ele>
        <time>2016-07-24T08:30:04Z</time>
      </trkpt>
      <trkpt lat="45.05548" lon="4.0848">
        <ele>1110</ele>
        <time>2016-07-24T08:30:16Z</time>
      </trkpt>
      <trkpt lat="45.05542" lon="4.08492">
        <ele>1109</ele>
        <time>2016-07-24T08:30:27Z</time>
      </trkpt>
      <trkpt lat="45.05533" lon="4.08505">
        <ele>1103</ele>
        <time>2016-07-24T08:30:40Z</time>
      </trkpt>
      <trkpt lat="45.05529" lon="4.08513">
        <ele>1102</ele>
        <time>2016-07-24T08:30:51Z</time>
      </trkpt>
      <trkpt lat="45.05527" lon="4.08514">
        <ele>1102</ele>
        <time>2016-07-24T08:30:53Z</time>
      </trkpt>
      <trkpt lat="45.05518" lon="4.08523">
        <ele>1101</ele>
        <time>2016-07-24T08:31:05Z</time>
      </trkpt>
      <trkpt lat="45.05516" lon="4.08527">
        <ele>1101</ele>
        <time>2016-07-24T08:31:11Z</time>
      </trkpt>
      <trkpt lat="45.05504" lon="4.08545">
        <ele>1100</ele>
        <time>2016-07-24T08:31:23Z</time>
      </trkpt>
      <trkpt lat="45.05499" lon="4.08555">
        <ele>1086</ele>
        <time>2016-07-24T08:31:30Z</time>
      </trkpt>
      <trkpt lat="45.05495" lon="4.08564">
        <ele>1086</ele>
        <time>2016-07-24T08:31:36Z</time>
      </trkpt>
      <trkpt lat="45.05493" lon="4.08566">
        <ele>1086</ele>
        <time>2016-07-24T08:31:38Z</time>
      </trkpt>
      <trkpt lat="45.05484" lon="4.08595">
        <ele>1084</ele>
        <time>2016-07-24T08:31:54Z</time>
      </trkpt>
      <trkpt lat="45.05473" lon="4.08608">
        <ele>1082</ele>
        <time>2016-07-24T08:32:07Z</time>
      </trkpt>
      <trkpt lat="45.05465" lon="4.08618">
        <ele>1081</ele>
        <time>2016-07-24T08:32:17Z</time>
      </trkpt>
      <trkpt lat="45.05457" lon="4.08628">
        <ele>1080</ele>
        <time>2016-07-24T08:32:29Z</time>
      </trkpt>
      <trkpt lat="45.05447" lon="4.08642">
        <ele>1078</ele>
        <time>2016-07-24T08:32:44Z</time>
      </trkpt>
      <trkpt lat="45.05437" lon="4.08647">
        <ele>1077</ele>
        <time>2016-07-24T08:32:50Z</time>
      </trkpt>
      <trkpt lat="45.05418" lon="4.08649">
        <ele>1075</ele>
        <time>2016-07-24T08:33:04Z</time>
      </trkpt>
      <trkpt lat="45.05407" lon="4.08652">
        <ele>1066</ele>
        <time>2016-07-24T08:33:16Z</time>
      </trkpt>
      <trkpt lat="45.05396" lon="4.08657">
        <ele>1065</ele>
        <time>2016-07-24T08:33:28Z</time>
      </trkpt>
      <trkpt lat="45.05384" lon="4.08662">
        <ele>1063</ele>
        <time>2016-07-24T08:33:38Z</time>
      </trkpt>
      <trkpt lat="45.05381" lon="4.08664">
        <ele>1062</ele>
        <time>2016-07-24T08:33:42Z</time>
      </trkpt>
      <trkpt lat="45.05367" lon="4.08675">
        <ele>1058</ele>
        <time>2016-07-24T08:33:55Z</time>
      </trkpt>
      <trkpt lat="45.05357" lon="4.08688">
        <ele>1056</ele>
        <time>2016-07-24T08:34:05Z</time>
      </trkpt>
      <trkpt lat="45.05353" lon="4.08691">
        <ele>1056</ele>
        <time>2016-07-24T08:34:09Z</time>
      </trkpt>
      <trkpt lat="45.05345" lon="4.08689">
        <ele>1055</ele>
        <time>2016-07-24T08:34:17Z</time>
      </trkpt>
      <trkpt lat="45.05341" lon="4.08687">
        <ele>1055</ele>
        <time>2016-07-24T08:34:21Z</time>
      </trkpt>
      <trkpt lat="45.05337" lon="4.08692">
        <ele>1055</ele>
        <time>2016-07-24T08:34:26Z</time>
      </trkpt>
      <trkpt lat="45.05341" lon="4.08714">
        <ele>1054</ele>
        <time>2016-07-24T08:34:42Z</time>
      </trkpt>
      <trkpt lat="45.0535" lon="4.08734">
        <ele>1053</ele>
        <time>2016-07-24T08:34:55Z</time>
      </trkpt>
      <trkpt lat="45.05365" lon="4.08756">
        <ele>1051</ele>
        <time>2016-07-24T08:35:11Z</time>
      </trkpt>
      <trkpt lat="45.05374" lon="4.08774">
        <ele>1051</ele>
        <time>2016-07-24T08:35:26Z</time>
      </trkpt>
      <trkpt lat="45.05375" lon="4.08777">
        <ele>1051</ele>
        <time>2016-07-24T08:35:28Z</time>
      </trkpt>
      <trkpt lat="45.0538" lon="4.08787">
        <ele>1051</ele>
        <time>2016-07-24T08:35:35Z</time>
      </trkpt>
      <trkpt lat="45.05382" lon="4.08795">
        <ele>1051</ele>
        <time>2016-07-24T08:35:45Z</time>
      </trkpt>
      <trkpt lat="45.05385" lon="4.0881">
        <ele>1051</ele>
        <time>2016-07-24T08:35:51Z</time>
      </trkpt>
      <trkpt lat="45.05387" lon="4.08815">
        <ele>1051</ele>
        <time>2016-07-24T08:35:54Z</time>
      </trkpt>
      <trkpt lat="45.05396" lon="4.0884">
        <ele>1049</ele>
        <time>2016-07-24T08:36:09Z</time>
      </trkpt>
      <trkpt lat="45.05405" lon="4.08867">
        <ele>1048</ele>
        <time>2016-07-24T08:36:25Z</time>
      </trkpt>
      <trkpt lat="45.0541" lon="4.08884">
        <ele>1048</ele>
        <time>2016-07-24T08:36:39Z</time>
      </trkpt>
      <trkpt lat="45.05413" lon="4.08888">
        <ele>1049</ele>
        <time>2016-07-24T08:36:55Z</time>
      </trkpt>
      <trkpt lat="45.05416" lon="4.08894">
        <ele>1049</ele>
        <time>2016-07-24T08:36:59Z</time>
      </trkpt>
      <trkpt lat="45.05421" lon="4.08905">
        <ele>1059</ele>
        <time>2016-07-24T08:37:06Z</time>
      </trkpt>
      <trkpt lat="45.05423" lon="4.08914">
        <ele>1057</ele>
        <time>2016-07-24T08:37:11Z</time>
      </trkpt>
      <trkpt lat="45.05429" lon="4.08929">
        <ele>1059</ele>
        <time>2016-07-24T08:37:22Z</time>
      </trkpt>
      <trkpt lat="45.05433" lon="4.08937">
        <ele>1061</ele>
        <time>2016-07-24T08:37:27Z</time>
      </trkpt>
      <trkpt lat="45.0544" lon="4.08951">
        <ele>1062</ele>
        <time>2016-07-24T08:37:39Z</time>
      </trkpt>
      <trkpt lat="45.05447" lon="4.0897">
        <ele>1062</ele>
        <time>2016-07-24T08:37:54Z</time>
      </trkpt>
      <trkpt lat="45.05454" lon="4.08993">
        <ele>1063</ele>
        <time>2016-07-24T08:38:08Z</time>
      </trkpt>
      <trkpt lat="45.05456" lon="4.09014">
        <ele>1061</ele>
        <time>2016-07-24T08:38:20Z</time>
      </trkpt>
      <trkpt lat="45.05467" lon="4.09038">
        <ele>1061</ele>
        <time>2016-07-24T08:38:35Z</time>
      </trkpt>
      <trkpt lat="45.05474" lon="4.09055">
        <ele>1062</ele>
        <time>2016-07-24T08:38:46Z</time>
      </trkpt>
      <trkpt lat="45.05486" lon="4.09072">
        <ele>1064</ele>
        <time>2016-07-24T08:39:01Z</time>
      </trkpt>
      <trkpt lat="45.05496" lon="4.09087">
        <ele>1065</ele>
        <time>2016-07-24T08:39:14Z</time>
      </trkpt>
      <trkpt lat="45.05501" lon="4.09102">
        <ele>1073</ele>
        <time>2016-07-24T08:39:22Z</time>
      </trkpt>
      <trkpt lat="45.05508" lon="4.09138">
        <ele>1072</ele>
        <time>2016-07-24T08:39:42Z</time>
      </trkpt>
      <trkpt lat="45.05509" lon="4.09154">
        <ele>1067</ele>
        <time>2016-07-24T08:39:56Z</time>
      </trkpt>
      <trkpt lat="45.0551" lon="4.09156">
        <ele>1067</ele>
        <time>2016-07-24T08:39:57Z</time>
      </trkpt>
      <trkpt lat="45.05509" lon="4.09168">
        <ele>1059</ele>
        <time>2016-07-24T08:40:06Z</time>
      </trkpt>
      <trkpt lat="45.0551" lon="4.09174">
        <ele>1060</ele>
        <time>2016-07-24T08:40:10Z</time>
      </trkpt>
      <trkpt lat="45.05512" lon="4.09192">
        <ele>1060</ele>
        <time>2016-07-24T08:40:23Z</time>
      </trkpt>
      <trkpt lat="45.05513" lon="4.09203">
        <ele>1060</ele>
        <time>2016-07-24T08:40:30Z</time>
      </trkpt>
      <trkpt lat="45.0552" lon="4.09219">
        <ele>1058</ele>
        <time>2016-07-24T08:40:45Z</time>
      </trkpt>
      <trkpt lat="45.05529" lon="4.09232">
        <ele>1058</ele>
        <time>2016-07-24T08:40:59Z</time>
      </trkpt>
      <trkpt lat="45.05534" lon="4.09244">
        <ele>1058</ele>
        <time>2016-07-24T08:41:12Z</time>
      </trkpt>
      <trkpt lat="45.05544" lon="4.09261">
        <ele>1051</ele>
        <time>2016-07-24T08:41:25Z</time>
      </trkpt>
      <trkpt lat="45.05548" lon="4.09274">
        <ele>1052</ele>
        <time>2016-07-24T08:41:37Z</time>
      </trkpt>
      <trkpt lat="45.05551" lon="4.09285">
        <ele>1051</ele>
        <time>2016-07-24T08:41:44Z</time>
      </trkpt>
      <trkpt lat="45.05549" lon="4.09303">
        <ele>1049</ele>
        <time>2016-07-24T08:41:59Z</time>
      </trkpt>
      <trkpt lat="45.05548" lon="4.09319">
        <ele>1049</ele>
        <time>2016-07-24T08:42:08Z</time>
      </trkpt>
      <trkpt lat="45.05548" lon="4.09334">
        <ele>1047</ele>
        <time>2016-07-24T08:42:21Z</time>
      </trkpt>
      <trkpt lat="45.05546" lon="4.0935">
        <ele>1046</ele>
        <time>2016-07-24T08:42:38Z</time>
      </trkpt>
      <trkpt lat="45.05543" lon="4.09354">
        <ele>1045</ele>
        <time>2016-07-24T08:42:42Z</time>
      </trkpt>
      <trkpt lat="45.05536" lon="4.09371">
        <ele>1045</ele>
        <time>2016-07-24T08:42:55Z</time>
      </trkpt>
      <trkpt lat="45.0553" lon="4.09382">
        <ele>1044</ele>
        <time>2016-07-24T08:43:08Z</time>
      </trkpt>
      <trkpt lat="45.05529" lon="4.09384">
        <ele>1043</ele>
        <time>2016-07-24T08:43:23Z</time>
      </trkpt>
      <trkpt lat="45.05523" lon="4.09391">
        <ele>1042</ele>
        <time>2016-07-24T08:43:34Z</time>
      </trkpt>
      <trkpt lat="45.05512" lon="4.09404">
        <ele>1038</ele>
        <time>2016-07-24T08:43:46Z</time>
      </trkpt>
      <trkpt lat="45.05505" lon="4.09417">
        <ele>1035</ele>
        <time>2016-07-24T08:43:55Z</time>
      </trkpt>
      <trkpt lat="45.05491" lon="4.09435">
        <ele>1024</ele>
        <time>2016-07-24T08:44:09Z</time>
      </trkpt>
      <trkpt lat="45.0548" lon="4.09445">
        <ele>1021</ele>
        <time>2016-07-24T08:44:22Z</time>
      </trkpt>
      <trkpt lat="45.05478" lon="4.09447">
        <ele>1021</ele>
        <time>2016-07-24T08:44:23Z</time>
      </trkpt>
      <trkpt lat="45.0547" lon="4.09463">
        <ele>1020</ele>
        <time>2016-07-24T08:44:35Z</time>
      </trkpt>
      <trkpt lat="45.05465" lon="4.09485">
        <ele>1020</ele>
        <time>2016-07-24T08:44:50Z</time>
      </trkpt>
      <trkpt lat="45.05464" lon="4.09504">
        <ele>1022</ele>
        <time>2016-07-24T08:45:03Z</time>
      </trkpt>
      <trkpt lat="45.05461" lon="4.09525">
        <ele>1021</ele>
        <time>2016-07-24T08:45:16Z</time>
      </trkpt>
      <trkpt lat="45.05458" lon="4.09541">
        <ele>1020</ele>
        <time>2016-07-24T08:45:26Z</time>
      </trkpt>
      <trkpt lat="45.0546" lon="4.09569">
        <ele>1021</ele>
        <time>2016-07-24T08:45:38Z</time>
      </trkpt>
      <trkpt lat="45.05456" lon="4.09589">
        <ele>1019</ele>
        <time>2016-07-24T08:45:50Z</time>
      </trkpt>
      <trkpt lat="45.05456" lon="4.09609">
        <ele>1020</ele>
        <time>2016-07-24T08:46:03Z</time>
      </trkpt>
      <trkpt lat="45.05454" lon="4.09617">
        <ele>1019</ele>
        <time>2016-07-24T08:46:15Z</time>
      </trkpt>
      <trkpt lat="45.05451" lon="4.09627">
        <ele>1018</ele>
        <time>2016-07-24T08:46:31Z</time>
      </trkpt>
      <trkpt lat="45.05448" lon="4.09619">
        <ele>1017</ele>
        <time>2016-07-24T08:46:43Z</time>
      </trkpt>
      <trkpt lat="45.05444" lon="4.09614">
        <ele>1016</ele>
        <time>2016-07-24T08:46:56Z</time>
      </trkpt>
      <trkpt lat="45.0544" lon="4.09621">
        <ele>1014</ele>
        <time>2016-07-24T08:47:09Z</time>
      </trkpt>
      <trkpt lat="45.05438" lon="4.09626">
        <ele>1014</ele>
        <time>2016-07-24T08:47:17Z</time>
      </trkpt>
      <trkpt lat="45.05432" lon="4.09634">
        <ele>1012</ele>
        <time>2016-07-24T08:47:29Z</time>
      </trkpt>
      <trkpt lat="45.05426" lon="4.09631">
        <ele>1011</ele>
        <time>2016-07-24T08:47:42Z</time>
      </trkpt>
      <trkpt lat="45.05423" lon="4.09633">
        <ele>1010</ele>
        <time>2016-07-24T08:47:56Z</time>
      </trkpt>
      <trkpt lat="45.05416" lon="4.09623">
        <ele>988</ele>
        <time>2016-07-24T08:48:09Z</time>
      </trkpt>
      <trkpt lat="45.0541" lon="4.09612">
        <ele>987</ele>
        <time>2016-07-24T08:48:22Z</time>
      </trkpt>
      <trkpt lat="45.05408" lon="4.09599">
        <ele>988</ele>
        <time>2016-07-24T08:48:33Z</time>
      </trkpt>
      <trkpt lat="45.05404" lon="4.09581">
        <ele>988</ele>
        <time>2016-07-24T08:48:46Z</time>
      </trkpt>
      <trkpt lat="45.05401" lon="4.09564">
        <ele>987</ele>
        <time>2016-07-24T08:48:56Z</time>
      </trkpt>
      <trkpt lat="45.05399" lon="4.09553">
        <ele>986</ele>
        <time>2016-07-24T08:49:02Z</time>
      </trkpt>
      <trkpt lat="45.05393" lon="4.09536">
        <ele>985</ele>
        <time>2016-07-24T08:49:14Z</time>
      </trkpt>
      <trkpt lat="45.0539" lon="4.09528">
        <ele>985</ele>
        <time>2016-07-24T08:49:22Z</time>
      </trkpt>
      <trkpt lat="45.05385" lon="4.09512">
        <ele>985</ele>
        <time>2016-07-24T08:49:36Z</time>
      </trkpt>
      <trkpt lat="45.05382" lon="4.09498">
        <ele>985</ele>
        <time>2016-07-24T08:49:49Z</time>
      </trkpt>
      <trkpt lat="45.0538" lon="4.09494">
        <ele>984</ele>
        <time>2016-07-24T08:49:53Z</time>
      </trkpt>
      <trkpt lat="45.05378" lon="4.09481">
        <ele>984</ele>
        <time>2016-07-24T08:50:05Z</time>
      </trkpt>
      <trkpt lat="45.05379" lon="4.09468">
        <ele>984</ele>
        <time>2016-07-24T08:50:17Z</time>
      </trkpt>
      <trkpt lat="45.05377" lon="4.09461">
        <ele>984</ele>
        <time>2016-07-24T08:50:30Z</time>
      </trkpt>
      <trkpt lat="45.05372" lon="4.09459">
        <ele>983</ele>
        <time>2016-07-24T08:50:46Z</time>
      </trkpt>
      <trkpt lat="45.05369" lon="4.0946">
        <ele>983</ele>
        <time>2016-07-24T08:50:58Z</time>
      </trkpt>
      <trkpt lat="45.05368" lon="4.09463">
        <ele>982</ele>
        <time>2016-07-24T08:51:12Z</time>
      </trkpt>
      <trkpt lat="45.05364" lon="4.09466">
        <ele>982</ele>
        <time>2016-07-24T08:51:27Z</time>
      </trkpt>
      <trkpt lat="45.05363" lon="4.09466">
        <ele>982</ele>
        <time>2016-07-24T08:51:29Z</time>
      </trkpt>
      <trkpt lat="45.05349" lon="4.0946">
        <ele>980</ele>
        <time>2016-07-24T08:51:43Z</time>
      </trkpt>
      <trkpt lat="45.05346" lon="4.09459">
        <ele>980</ele>
        <time>2016-07-24T08:51:46Z</time>
      </trkpt>
      <trkpt lat="45.05332" lon="4.09449">
        <ele>976</ele>
        <time>2016-07-24T08:52:01Z</time>
      </trkpt>
      <trkpt lat="45.05326" lon="4.09444">
        <ele>976</ele>
        <time>2016-07-24T08:52:10Z</time>
      </trkpt>
      <trkpt lat="45.05318" lon="4.09431">
        <ele>976</ele>
        <time>2016-07-24T08:52:21Z</time>
      </trkpt>
      <trkpt lat="45.05309" lon="4.09415">
        <ele>974</ele>
        <time>2016-07-24T08:52:35Z</time>
      </trkpt>
      <trkpt lat="45.05308" lon="4.09413">
        <ele>975</ele>
        <time>2016-07-24T08:52:37Z</time>
      </trkpt>
      <trkpt lat="45.05298" lon="4.09396">
        <ele>975</ele>
        <time>2016-07-24T08:52:52Z</time>
      </trkpt>
      <trkpt lat="45.05292" lon="4.09378">
        <ele>976</ele>
        <time>2016-07-24T08:53:05Z</time>
      </trkpt>
      <trkpt lat="45.05291" lon="4.0937">
        <ele>975</ele>
        <time>2016-07-24T08:53:16Z</time>
      </trkpt>
      <trkpt lat="45.05288" lon="4.09373">
        <ele>975</ele>
        <time>2016-07-24T08:53:27Z</time>
      </trkpt>
      <trkpt lat="45.05287" lon="4.09376">
        <ele>975</ele>
        <time>2016-07-24T08:53:29Z</time>
      </trkpt>
      <trkpt lat="45.05275" lon="4.09387">
        <ele>976</ele>
        <time>2016-07-24T08:53:42Z</time>
      </trkpt>
      <trkpt lat="45.05273" lon="4.09401">
        <ele>977</ele>
        <time>2016-07-24T08:53:53Z</time>
      </trkpt>
      <trkpt lat="45.05279" lon="4.09414">
        <ele>977</ele>
        <time>2016-07-24T08:54:05Z</time>
      </trkpt>
      <trkpt lat="45.05286" lon="4.09424">
        <ele>979</ele>
        <time>2016-07-24T08:54:16Z</time>
      </trkpt>
      <trkpt lat="45.05292" lon="4.0944">
        <ele>979</ele>
        <time>2016-07-24T08:54:26Z</time>
      </trkpt>
      <trkpt lat="45.05296" lon="4.09449">
        <ele>979</ele>
        <time>2016-07-24T08:54:39Z</time>
      </trkpt>
      <trkpt lat="45.05293" lon="4.0945">
        <ele>980</ele>
        <time>2016-07-24T08:54:51Z</time>
      </trkpt>
      <trkpt lat="45.05295" lon="4.09451">
        <ele>979</ele>
        <time>2016-07-24T08:55:06Z</time>
      </trkpt>
      <trkpt lat="45.05298" lon="4.09454">
        <ele>979</ele>
        <time>2016-07-24T08:55:25Z</time>
      </trkpt>
      <trkpt lat="45.05296" lon="4.09455">
        <ele>979</ele>
        <time>2016-07-24T08:55:40Z</time>
      </trkpt>
      <trkpt lat="45.05294" lon="4.09454">
        <ele>980</ele>
        <time>2016-07-24T08:55:58Z</time>
      </trkpt>
      <trkpt lat="45.05292" lon="4.09459">
        <ele>980</ele>
        <time>2016-07-24T08:56:09Z</time>
      </trkpt>
      <trkpt lat="45.05295" lon="4.0946">
        <ele>980</ele>
        <time>2016-07-24T08:56:20Z</time>
      </trkpt>
      <trkpt lat="45.05294" lon="4.0946">
        <ele>980</ele>
        <time>2016-07-24T08:56:47Z</time>
      </trkpt>
      <trkpt lat="45.05293" lon="4.0946">
        <ele>980</ele>
        <time>2016-07-24T08:57:00Z</time>
      </trkpt>
      <trkpt lat="45.05293" lon="4.09466">
        <ele>980</ele>
        <time>2016-07-24T08:57:11Z</time>
      </trkpt>
      <trkpt lat="45.05293" lon="4.0947">
        <ele>980</ele>
        <time>2016-07-24T08:57:23Z</time>
      </trkpt>
      <trkpt lat="45.05293" lon="4.09475">
        <ele>981</ele>
        <time>2016-07-24T08:57:34Z</time>
      </trkpt>
      <trkpt lat="45.05297" lon="4.09479">
        <ele>980</ele>
        <time>2016-07-24T08:57:40Z</time>
      </trkpt>
      <trkpt lat="45.05305" lon="4.09484">
        <ele>979</ele>
        <time>2016-07-24T08:57:52Z</time>
      </trkpt>
      <trkpt lat="45.05313" lon="4.09497">
        <ele>977</ele>
        <time>2016-07-24T08:58:05Z</time>
      </trkpt>
      <trkpt lat="45.05316" lon="4.09507">
        <ele>980</ele>
        <time>2016-07-24T08:58:15Z</time>
      </trkpt>
      <trkpt lat="45.05313" lon="4.09516">
        <ele>981</ele>
        <time>2016-07-24T08:58:23Z</time>
      </trkpt>
      <trkpt lat="45.05315" lon="4.09526">
        <ele>982</ele>
        <time>2016-07-24T08:58:25Z</time>
      </trkpt>
      <trkpt lat="45.05313" lon="4.09532">
        <ele>983</ele>
        <time>2016-07-24T08:58:27Z</time>
      </trkpt>
      <trkpt lat="45.05313" lon="4.09554">
        <ele>983</ele>
        <time>2016-07-24T08:58:38Z</time>
      </trkpt>
      <trkpt lat="45.05314" lon="4.09573">
        <ele>982</ele>
        <time>2016-07-24T08:58:51Z</time>
      </trkpt>
      <trkpt lat="45.05311" lon="4.09587">
        <ele>985</ele>
        <time>2016-07-24T08:59:01Z</time>
      </trkpt>
      <trkpt lat="45.05308" lon="4.09603">
        <ele>987</ele>
        <time>2016-07-24T08:59:15Z</time>
      </trkpt>
      <trkpt lat="45.05304" lon="4.09619">
        <ele>988</ele>
        <time>2016-07-24T08:59:27Z</time>
      </trkpt>
      <trkpt lat="45.05301" lon="4.09636">
        <ele>989</ele>
        <time>2016-07-24T08:59:39Z</time>
      </trkpt>
      <trkpt lat="45.053" lon="4.09641">
        <ele>989</ele>
        <time>2016-07-24T08:59:50Z</time>
      </trkpt>
      <trkpt lat="45.05301" lon="4.0965">
        <ele>989</ele>
        <time>2016-07-24T08:59:56Z</time>
      </trkpt>
      <trkpt lat="45.05302" lon="4.09675">
        <ele>989</ele>
        <time>2016-07-24T09:00:10Z</time>
      </trkpt>
      <trkpt lat="45.05298" lon="4.09712">
        <ele>990</ele>
        <time>2016-07-24T09:00:23Z</time>
      </trkpt>
      <trkpt lat="45.05296" lon="4.0972">
        <ele>991</ele>
        <time>2016-07-24T09:00:47Z</time>
      </trkpt>
      <trkpt lat="45.05295" lon="4.09721">
        <ele>991</ele>
        <time>2016-07-24T09:01:08Z</time>
      </trkpt>
      <trkpt lat="45.05295" lon="4.09722">
        <ele>991</ele>
        <time>2016-07-24T09:01:27Z</time>
      </trkpt>
      <trkpt lat="45.05295" lon="4.09721">
        <ele>991</ele>
        <time>2016-07-24T09:01:47Z</time>
      </trkpt>
      <trkpt lat="45.05296" lon="4.0972">
        <ele>991</ele>
        <time>2016-07-24T09:02:13Z</time>
      </trkpt>
      <trkpt lat="45.05295" lon="4.09722">
        <ele>991</ele>
        <time>2016-07-24T09:02:26Z</time>
      </trkpt>
      <trkpt lat="45.05297" lon="4.09725">
        <ele>990</ele>
        <time>2016-07-24T09:02:42Z</time>
      </trkpt>
      <trkpt lat="45.05297" lon="4.09725">
        <ele>990</ele>
        <time>2016-07-24T09:03:02Z</time>
      </trkpt>
      <trkpt lat="45.05296" lon="4.09726">
        <ele>990</ele>
        <time>2016-07-24T09:03:25Z</time>
      </trkpt>
      <trkpt lat="45.05298" lon="4.09725">
        <ele>990</ele>
        <time>2016-07-24T09:03:50Z</time>
      </trkpt>
      <trkpt lat="45.05299" lon="4.09726">
        <ele>990</ele>
        <time>2016-07-24T09:04:16Z</time>
      </trkpt>
      <trkpt lat="45.05298" lon="4.09725">
        <ele>990</ele>
        <time>2016-07-24T09:04:30Z</time>
      </trkpt>
      <trkpt lat="45.05298" lon="4.09739">
        <ele>990</ele>
        <time>2016-07-24T09:04:48Z</time>
      </trkpt>
      <trkpt lat="45.05299" lon="4.09743">
        <ele>989</ele>
        <time>2016-07-24T09:04:51Z</time>
      </trkpt>
      <trkpt lat="45.05303" lon="4.0976">
        <ele>988</ele>
        <time>2016-07-24T09:05:04Z</time>
      </trkpt>
      <trkpt lat="45.0531" lon="4.09776">
        <ele>988</ele>
        <time>2016-07-24T09:05:18Z</time>
      </trkpt>
      <trkpt lat="45.05317" lon="4.09788">
        <ele>987</ele>
        <time>2016-07-24T09:05:29Z</time>
      </trkpt>
      <trkpt lat="45.0532" lon="4.09794">
        <ele>987</ele>
        <time>2016-07-24T09:05:33Z</time>
      </trkpt>
      <trkpt lat="45.05328" lon="4.09809">
        <ele>985</ele>
        <time>2016-07-24T09:05:46Z</time>
      </trkpt>
      <trkpt lat="45.05336" lon="4.09825">
        <ele>976</ele>
        <time>2016-07-24T09:05:57Z</time>
      </trkpt>
      <trkpt lat="45.05342" lon="4.09852">
        <ele>975</ele>
        <time>2016-07-24T09:06:09Z</time>
      </trkpt>
      <trkpt lat="45.05348" lon="4.09872">
        <ele>976</ele>
        <time>2016-07-24T09:06:23Z</time>
      </trkpt>
      <trkpt lat="45.05355" lon="4.09909">
        <ele>977</ele>
        <time>2016-07-24T09:06:40Z</time>
      </trkpt>
      <trkpt lat="45.05359" lon="4.09931">
        <ele>979</ele>
        <time>2016-07-24T09:06:53Z</time>
      </trkpt>
      <trkpt lat="45.05363" lon="4.09946">
        <ele>979</ele>
        <time>2016-07-24T09:07:04Z</time>
      </trkpt>
      <trkpt lat="45.05364" lon="4.09969">
        <ele>979</ele>
        <time>2016-07-24T09:07:18Z</time>
      </trkpt>
      <trkpt lat="45.05368" lon="4.09992">
        <ele>980</ele>
        <time>2016-07-24T09:07:33Z</time>
      </trkpt>
      <trkpt lat="45.05371" lon="4.10014">
        <ele>983</ele>
        <time>2016-07-24T09:07:46Z</time>
      </trkpt>
      <trkpt lat="45.05373" lon="4.10021">
        <ele>983</ele>
        <time>2016-07-24T09:07:50Z</time>
      </trkpt>
      <trkpt lat="45.05373" lon="4.10032">
        <ele>983</ele>
        <time>2016-07-24T09:08:03Z</time>
      </trkpt>
      <trkpt lat="45.05374" lon="4.10036">
        <ele>983</ele>
        <time>2016-07-24T09:08:21Z</time>
      </trkpt>
      <trkpt lat="45.05374" lon="4.10039">
        <ele>983</ele>
        <time>2016-07-24T09:08:41Z</time>
      </trkpt>
      <trkpt lat="45.05378" lon="4.10057">
        <ele>983</ele>
        <time>2016-07-24T09:08:55Z</time>
      </trkpt>
      <trkpt lat="45.05385" lon="4.10073">
        <ele>982</ele>
        <time>2016-07-24T09:09:09Z</time>
      </trkpt>
      <trkpt lat="45.05397" lon="4.10091">
        <ele>983</ele>
        <time>2016-07-24T09:09:25Z</time>
      </trkpt>
      <trkpt lat="45.05407" lon="4.10106">
        <ele>983</ele>
        <time>2016-07-24T09:09:39Z</time>
      </trkpt>
      <trkpt lat="45.0541" lon="4.1011">
        <ele>984</ele>
        <time>2016-07-24T09:09:43Z</time>
      </trkpt>
      <trkpt lat="45.05415" lon="4.10116">
        <ele>984</ele>
        <time>2016-07-24T09:09:49Z</time>
      </trkpt>
      <trkpt lat="45.05419" lon="4.10118">
        <ele>980</ele>
        <time>2016-07-24T09:09:52Z</time>
      </trkpt>
      <trkpt lat="45.05428" lon="4.10132">
        <ele>981</ele>
        <time>2016-07-24T09:10:06Z</time>
      </trkpt>
      <trkpt lat="45.05429" lon="4.10153">
        <ele>982</ele>
        <time>2016-07-24T09:10:21Z</time>
      </trkpt>
      <trkpt lat="45.05432" lon="4.10152">
        <ele>982</ele>
        <time>2016-07-24T09:10:35Z</time>
      </trkpt>
      <trkpt lat="45.05438" lon="4.10151">
        <ele>982</ele>
        <time>2016-07-24T09:10:49Z</time>
      </trkpt>
      <trkpt lat="45.05451" lon="4.10154">
        <ele>981</ele>
        <time>2016-07-24T09:11:04Z</time>
      </trkpt>
      <trkpt lat="45.0546" lon="4.10161">
        <ele>981</ele>
        <time>2016-07-24T09:11:17Z</time>
      </trkpt>
      <trkpt lat="45.0547" lon="4.10174">
        <ele>986</ele>
        <time>2016-07-24T09:11:29Z</time>
      </trkpt>
      <trkpt lat="45.0548" lon="4.10186">
        <ele>986</ele>
        <time>2016-07-24T09:11:42Z</time>
      </trkpt>
      <trkpt lat="45.05487" lon="4.10201">
        <ele>987</ele>
        <time>2016-07-24T09:11:53Z</time>
      </trkpt>
      <trkpt lat="45.0549" lon="4.10205">
        <ele>987</ele>
        <time>2016-07-24T09:11:56Z</time>
      </trkpt>
      <trkpt lat="45.05489" lon="4.10194">
        <ele>986</ele>
        <time>2016-07-24T09:12:08Z</time>
      </trkpt>
      <trkpt lat="45.05491" lon="4.10188">
        <ele>986</ele>
        <time>2016-07-24T09:12:12Z</time>
      </trkpt>
      <trkpt lat="45.05497" lon="4.10177">
        <ele>984</ele>
        <time>2016-07-24T09:12:20Z</time>
      </trkpt>
      <trkpt lat="45.05509" lon="4.10166">
        <ele>982</ele>
        <time>2016-07-24T09:12:31Z</time>
      </trkpt>
      <trkpt lat="45.05507" lon="4.10145">
        <ele>982</ele>
        <time>2016-07-24T09:12:46Z</time>
      </trkpt>
      <trkpt lat="45.05505" lon="4.10143">
        <ele>982</ele>
        <time>2016-07-24T09:12:48Z</time>
      </trkpt>
      <trkpt lat="45.055" lon="4.10126">
        <ele>980</ele>
        <time>2016-07-24T09:13:01Z</time>
      </trkpt>
      <trkpt lat="45.055" lon="4.10119">
        <ele>980</ele>
        <time>2016-07-24T09:13:12Z</time>
      </trkpt>
      <trkpt lat="45.05503" lon="4.10111">
        <ele>981</ele>
        <time>2016-07-24T09:13:25Z</time>
      </trkpt>
      <trkpt lat="45.05506" lon="4.10098">
        <ele>980</ele>
        <time>2016-07-24T09:13:36Z</time>
      </trkpt>
      <trkpt lat="45.05509" lon="4.1009">
        <ele>980</ele>
        <time>2016-07-24T09:13:48Z</time>
      </trkpt>
      <trkpt lat="45.05513" lon="4.10069">
        <ele>983</ele>
        <time>2016-07-24T09:14:00Z</time>
      </trkpt>
      <trkpt lat="45.05515" lon="4.10057">
        <ele>984</ele>
        <time>2016-07-24T09:14:10Z</time>
      </trkpt>
      <trkpt lat="45.05518" lon="4.10044">
        <ele>985</ele>
        <time>2016-07-24T09:14:24Z</time>
      </trkpt>
      <trkpt lat="45.05516" lon="4.10025">
        <ele>985</ele>
        <time>2016-07-24T09:14:38Z</time>
      </trkpt>
      <trkpt lat="45.05512" lon="4.10014">
        <ele>985</ele>
        <time>2016-07-24T09:14:50Z</time>
      </trkpt>
      <trkpt lat="45.05504" lon="4.09998">
        <ele>985</ele>
        <time>2016-07-24T09:15:04Z</time>
      </trkpt>
      <trkpt lat="45.05498" lon="4.09978">
        <ele>981</ele>
        <time>2016-07-24T09:15:18Z</time>
      </trkpt>
      <trkpt lat="45.05495" lon="4.09969">
        <ele>981</ele>
        <time>2016-07-24T09:15:24Z</time>
      </trkpt>
      <trkpt lat="45.05492" lon="4.09946">
        <ele>983</ele>
        <time>2016-07-24T09:15:38Z</time>
      </trkpt>
      <trkpt lat="45.05492" lon="4.09925">
        <ele>987</ele>
        <time>2016-07-24T09:15:50Z</time>
      </trkpt>
      <trkpt lat="45.05491" lon="4.09919">
        <ele>987</ele>
        <time>2016-07-24T09:15:53Z</time>
      </trkpt>
      <trkpt lat="45.05487" lon="4.09895">
        <ele>989</ele>
        <time>2016-07-24T09:16:07Z</time>
      </trkpt>
      <trkpt lat="45.05484" lon="4.09886">
        <ele>990</ele>
        <time>2016-07-24T09:16:13Z</time>
      </trkpt>
      <trkpt lat="45.05477" lon="4.09873">
        <ele>990</ele>
        <time>2016-07-24T09:16:26Z</time>
      </trkpt>
      <trkpt lat="45.05477" lon="4.09864">
        <ele>992</ele>
        <time>2016-07-24T09:16:38Z</time>
      </trkpt>
      <trkpt lat="45.05483" lon="4.09858">
        <ele>994</ele>
        <time>2016-07-24T09:16:50Z</time>
      </trkpt>
      <trkpt lat="45.0549" lon="4.09856">
        <ele>996</ele>
        <time>2016-07-24T09:17:03Z</time>
      </trkpt>
      <trkpt lat="45.05492" lon="4.09853">
        <ele>997</ele>
        <time>2016-07-24T09:17:15Z</time>
      </trkpt>
      <trkpt lat="45.05494" lon="4.09845">
        <ele>1001</ele>
        <time>2016-07-24T09:17:35Z</time>
      </trkpt>
      <trkpt lat="45.05496" lon="4.09842">
        <ele>1003</ele>
        <time>2016-07-24T09:17:52Z</time>
      </trkpt>
      <trkpt lat="45.05497" lon="4.09842">
        <ele>1003</ele>
        <time>2016-07-24T09:18:09Z</time>
      </trkpt>
      <trkpt lat="45.05499" lon="4.09843">
        <ele>1003</ele>
        <time>2016-07-24T09:18:26Z</time>
      </trkpt>
      <trkpt lat="45.05498" lon="4.09844">
        <ele>1003</ele>
        <time>2016-07-24T09:18:42Z</time>
      </trkpt>
      <trkpt lat="45.05498" lon="4.09842">
        <ele>1003</ele>
        <time>2016-07-24T09:18:57Z</time>
      </trkpt>
      <trkpt lat="45.05501" lon="4.09844">
        <ele>1012</ele>
        <time>2016-07-24T09:19:13Z</time>
      </trkpt>
      <trkpt lat="45.05505" lon="4.09847">
        <ele>1013</ele>
        <time>2016-07-24T09:19:28Z</time>
      </trkpt>
      <trkpt lat="45.05508" lon="4.0985">
        <ele>1013</ele>
        <time>2016-07-24T09:19:39Z</time>
      </trkpt>
      <trkpt lat="45.05504" lon="4.09851">
        <ele>1013</ele>
        <time>2016-07-24T09:19:53Z</time>
      </trkpt>
      <trkpt lat="45.05502" lon="4.09849">
        <ele>1012</ele>
        <time>2016-07-24T09:20:09Z</time>
      </trkpt>
      <trkpt lat="45.05506" lon="4.09852">
        <ele>1013</ele>
        <time>2016-07-24T09:20:23Z</time>
      </trkpt>
      <trkpt lat="45.05516" lon="4.09854">
        <ele>1014</ele>
        <time>2016-07-24T09:20:38Z</time>
      </trkpt>
      <trkpt lat="45.05526" lon="4.09858">
        <ele>1015</ele>
        <time>2016-07-24T09:20:51Z</time>
      </trkpt>
      <trkpt lat="45.05532" lon="4.09869">
        <ele>1015</ele>
        <time>2016-07-24T09:21:04Z</time>
      </trkpt>
      <trkpt lat="45.05533" lon="4.09875">
        <ele>1014</ele>
        <time>2016-07-24T09:21:16Z</time>
      </trkpt>
      <trkpt lat="45.05531" lon="4.09875">
        <ele>1014</ele>
        <time>2016-07-24T09:21:30Z</time>
      </trkpt>
      <trkpt lat="45.05531" lon="4.09874">
        <ele>1014</ele>
        <time>2016-07-24T09:21:53Z</time>
      </trkpt>
      <trkpt lat="45.05531" lon="4.09873">
        <ele>1014</ele>
        <time>2016-07-24T09:22:09Z</time>
      </trkpt>
      <trkpt lat="45.05532" lon="4.09873">
        <ele>1014</ele>
        <time>2016-07-24T09:22:20Z</time>
      </trkpt>
      <trkpt lat="45.05536" lon="4.09877">
        <ele>1014</ele>
        <time>2016-07-24T09:22:27Z</time>
      </trkpt>
      <trkpt lat="45.05543" lon="4.09882">
        <ele>1015</ele>
        <time>2016-07-24T09:22:40Z</time>
      </trkpt>
      <trkpt lat="45.05555" lon="4.09888">
        <ele>1016</ele>
        <time>2016-07-24T09:22:53Z</time>
      </trkpt>
      <trkpt lat="45.05564" lon="4.09891">
        <ele>1017</ele>
        <time>2016-07-24T09:23:04Z</time>
      </trkpt>
      <trkpt lat="45.05572" lon="4.09895">
        <ele>1017</ele>
        <time>2016-07-24T09:23:14Z</time>
      </trkpt>
      <trkpt lat="45.05581" lon="4.09894">
        <ele>1018</ele>
        <time>2016-07-24T09:23:25Z</time>
      </trkpt>
      <trkpt lat="45.05587" lon="4.09894">
        <ele>1028</ele>
        <time>2016-07-24T09:23:32Z</time>
      </trkpt>
      <trkpt lat="45.05597" lon="4.09894">
        <ele>1029</ele>
        <time>2016-07-24T09:23:42Z</time>
      </trkpt>
      <trkpt lat="45.05608" lon="4.09891">
        <ele>1030</ele>
        <time>2016-07-24T09:23:54Z</time>
      </trkpt>
      <trkpt lat="45.05615" lon="4.09891">
        <ele>1031</ele>
        <time>2016-07-24T09:24:03Z</time>
      </trkpt>
      <trkpt lat="45.05619" lon="4.09891">
        <ele>1031</ele>
        <time>2016-07-24T09:24:05Z</time>
      </trkpt>
      <trkpt lat="45.05621" lon="4.09889">
        <ele>1031</ele>
        <time>2016-07-24T09:24:07Z</time>
      </trkpt>
      <trkpt lat="45.05634" lon="4.09887">
        <ele>1032</ele>
        <time>2016-07-24T09:24:22Z</time>
      </trkpt>
      <trkpt lat="45.05644" lon="4.09888">
        <ele>1032</ele>
        <time>2016-07-24T09:24:35Z</time>
      </trkpt>
      <trkpt lat="45.05661" lon="4.09882">
        <ele>1033</ele>
        <time>2016-07-24T09:24:48Z</time>
      </trkpt>
      <trkpt lat="45.05668" lon="4.09881">
        <ele>1036</ele>
        <time>2016-07-24T09:24:57Z</time>
      </trkpt>
      <trkpt lat="45.05682" lon="4.09876">
        <ele>1037</ele>
        <time>2016-07-24T09:25:09Z</time>
      </trkpt>
      <trkpt lat="45.0569" lon="4.09873">
        <ele>1037</ele>
        <time>2016-07-24T09:25:20Z</time>
      </trkpt>
      <trkpt lat="45.05702" lon="4.09869">
        <ele>1037</ele>
        <time>2016-07-24T09:25:33Z</time>
      </trkpt>
      <trkpt lat="45.05706" lon="4.09868">
        <ele>1038</ele>
        <time>2016-07-24T09:25:45Z</time>
      </trkpt>
      <trkpt lat="45.05708" lon="4.09867">
        <ele>1038</ele>
        <time>2016-07-24T09:25:47Z</time>
      </trkpt>
      <trkpt lat="45.05714" lon="4.09861">
        <ele>1038</ele>
        <time>2016-07-24T09:25:53Z</time>
      </trkpt>
      <trkpt lat="45.05727" lon="4.09847">
        <ele>1039</ele>
        <time>2016-07-24T09:26:07Z</time>
      </trkpt>
      <trkpt lat="45.05736" lon="4.0984">
        <ele>1040</ele>
        <time>2016-07-24T09:26:18Z</time>
      </trkpt>
      <trkpt lat="45.05749" lon="4.09833">
        <ele>1044</ele>
        <time>2016-07-24T09:26:31Z</time>
      </trkpt>
      <trkpt lat="45.05753" lon="4.0982">
        <ele>1046</ele>
        <time>2016-07-24T09:26:40Z</time>
      </trkpt>
      <trkpt lat="45.05746" lon="4.09811">
        <ele>1055</ele>
        <time>2016-07-24T09:26:52Z</time>
      </trkpt>
      <trkpt lat="45.05736" lon="4.09812">
        <ele>1056</ele>
        <time>2016-07-24T09:27:03Z</time>
      </trkpt>
      <trkpt lat="45.05726" lon="4.09814">
        <ele>1057</ele>
        <time>2016-07-24T09:27:16Z</time>
      </trkpt>
      <trkpt lat="45.05717" lon="4.09816">
        <ele>1058</ele>
        <time>2016-07-24T09:27:29Z</time>
      </trkpt>
      <trkpt lat="45.05716" lon="4.09815">
        <ele>1058</ele>
        <time>2016-07-24T09:27:30Z</time>
      </trkpt>
      <trkpt lat="45.05706" lon="4.09812">
        <ele>1059</ele>
        <time>2016-07-24T09:27:42Z</time>
      </trkpt>
      <trkpt lat="45.05703" lon="4.0981">
        <ele>1060</ele>
        <time>2016-07-24T09:27:58Z</time>
      </trkpt>
      <trkpt lat="45.05696" lon="4.09805">
        <ele>1061</ele>
        <time>2016-07-24T09:28:10Z</time>
      </trkpt>
      <trkpt lat="45.05695" lon="4.09799">
        <ele>1062</ele>
        <time>2016-07-24T09:28:25Z</time>
      </trkpt>
      <trkpt lat="45.057" lon="4.09792">
        <ele>1064</ele>
        <time>2016-07-24T09:28:39Z</time>
      </trkpt>
      <trkpt lat="45.05708" lon="4.0978">
        <ele>1066</ele>
        <time>2016-07-24T09:28:52Z</time>
      </trkpt>
      <trkpt lat="45.057" lon="4.09777">
        <ele>1063.6</ele>
      </trkpt>
      <trkpt lat="45.05718" lon="4.09746">
        <ele>1071.1</ele>
      </trkpt>
      <trkpt lat="45.05699" lon="4.09749">
        <ele>1078.4</ele>
      </trkpt>
      <trkpt lat="45.05697" lon="4.0974">
        <ele>1084.5</ele>
      </trkpt>
      <trkpt lat="45.05679" lon="4.09736">
        <ele>1094.6</ele>
      </trkpt>
      <trkpt lat="45.05661" lon="4.09735">
        <ele>1101.9</ele>
      </trkpt>
      <trkpt lat="45.05648" lon="4.09729">
        <ele>1111.1</ele>
      </trkpt>
      <trkpt lat="45.05651" lon="4.09714">
        <ele>1119</ele>
      </trkpt>
      <trkpt lat="45.05646" lon="4.09676">
        <ele>1135.1</ele>
      </trkpt>
      <trkpt lat="45.05652" lon="4.09635">
        <ele>1147</ele>
      </trkpt>
      <trkpt lat="45.05641" lon="4.09612">
        <ele>1156.5</ele>
      </trkpt>
      <trkpt lat="45.05638" lon="4.09602">
        <ele>1154.6</ele>
      </trkpt>
      <trkpt lat="45.05652" lon="4.09631">
        <ele>1147.4</ele>
      </trkpt>
      <trkpt lat="45.05655" lon="4.09613">
        <ele>1148.2</ele>
      </trkpt>
      <trkpt lat="45.05655" lon="4.09593">
        <ele>1144.8</ele>
      </trkpt>
      <trkpt lat="45.05655" lon="4.09573">
        <ele>1139.1</ele>
      </trkpt>
      <trkpt lat="45.05657" lon="4.09563">
        <ele>1134.6</ele>
      </trkpt>
      <trkpt lat="45.05696" lon="4.09534">
        <ele>1120.5</ele>
      </trkpt>
      <trkpt lat="45.05746" lon="4.09486">
        <ele>1101</ele>
      </trkpt>
      <trkpt lat="45.05781" lon="4.09426">
        <ele>1097.5</ele>
      </trkpt>
      <trkpt lat="45.05784" lon="4.0941">
        <ele>1097.7</ele>
      </trkpt>
      <trkpt lat="45.05797" lon="4.09412">
        <ele>1099</ele>
        <time>2016-07-24T09:56:48Z</time>
      </trkpt>
      <trkpt lat="45.05811" lon="4.09407">
        <ele>1099</ele>
        <time>2016-07-24T09:57:01Z</time>
      </trkpt>
      <trkpt lat="45.05816" lon="4.09406">
        <ele>1099</ele>
        <time>2016-07-24T09:57:06Z</time>
      </trkpt>
      <trkpt lat="45.05826" lon="4.094">
        <ele>1099</ele>
        <time>2016-07-24T09:57:16Z</time>
      </trkpt>
      <trkpt lat="45.0583" lon="4.09397">
        <ele>1100</ele>
        <time>2016-07-24T09:57:25Z</time>
      </trkpt>
      <trkpt lat="45.05841" lon="4.09401">
        <ele>1100</ele>
        <time>2016-07-24T09:57:35Z</time>
      </trkpt>
      <trkpt lat="45.05852" lon="4.09401">
        <ele>1100</ele>
        <time>2016-07-24T09:57:48Z</time>
      </trkpt>
      <trkpt lat="45.05857" lon="4.094">
        <ele>1101</ele>
        <time>2016-07-24T09:57:54Z</time>
      </trkpt>
      <trkpt lat="45.05865" lon="4.09404">
        <ele>1100</ele>
        <time>2016-07-24T09:58:02Z</time>
      </trkpt>
      <trkpt lat="45.05885" lon="4.09413">
        <ele>1100</ele>
        <time>2016-07-24T09:58:19Z</time>
      </trkpt>
      <trkpt lat="45.05911" lon="4.09421">
        <ele>1097</ele>
        <time>2016-07-24T09:58:39Z</time>
      </trkpt>
      <trkpt lat="45.05933" lon="4.0943">
        <ele>1094</ele>
        <time>2016-07-24T09:58:57Z</time>
      </trkpt>
      <trkpt lat="45.05951" lon="4.09439">
        <ele>1093</ele>
        <time>2016-07-24T09:59:13Z</time>
      </trkpt>
      <trkpt lat="45.05953" lon="4.09439">
        <ele>1093</ele>
        <time>2016-07-24T09:59:15Z</time>
      </trkpt>
      <trkpt lat="45.05972" lon="4.09447">
        <ele>1092</ele>
        <time>2016-07-24T09:59:33Z</time>
      </trkpt>
      <trkpt lat="45.05979" lon="4.0945">
        <ele>1092</ele>
        <time>2016-07-24T09:59:41Z</time>
      </trkpt>
      <trkpt lat="45.05994" lon="4.09456">
        <ele>1092</ele>
        <time>2016-07-24T09:59:53Z</time>
      </trkpt>
      <trkpt lat="45.06015" lon="4.0946">
        <ele>1089</ele>
        <time>2016-07-24T10:00:08Z</time>
      </trkpt>
      <trkpt lat="45.06027" lon="4.09459">
        <ele>1089</ele>
        <time>2016-07-24T10:00:20Z</time>
      </trkpt>
      <trkpt lat="45.06038" lon="4.09459">
        <ele>1089</ele>
        <time>2016-07-24T10:00:33Z</time>
      </trkpt>
      <trkpt lat="45.06056" lon="4.0946">
        <ele>1088</ele>
        <time>2016-07-24T10:00:49Z</time>
      </trkpt>
      <trkpt lat="45.06066" lon="4.09463">
        <ele>1088</ele>
        <time>2016-07-24T10:00:58Z</time>
      </trkpt>
      <trkpt lat="45.06082" lon="4.09472">
        <ele>1087</ele>
        <time>2016-07-24T10:01:13Z</time>
      </trkpt>
      <trkpt lat="45.06085" lon="4.09474">
        <ele>1085</ele>
        <time>2016-07-24T10:01:16Z</time>
      </trkpt>
      <trkpt lat="45.06104" lon="4.09482">
        <ele>1085</ele>
        <time>2016-07-24T10:01:34Z</time>
      </trkpt>
      <trkpt lat="45.0612" lon="4.09498">
        <ele>1085</ele>
        <time>2016-07-24T10:01:51Z</time>
      </trkpt>
      <trkpt lat="45.06135" lon="4.0951">
        <ele>1080</ele>
        <time>2016-07-24T10:02:05Z</time>
      </trkpt>
      <trkpt lat="45.06138" lon="4.0951">
        <ele>1080</ele>
        <time>2016-07-24T10:02:08Z</time>
      </trkpt>
      <trkpt lat="45.06144" lon="4.0951">
        <ele>1081</ele>
        <time>2016-07-24T10:02:13Z</time>
      </trkpt>
      <trkpt lat="45.06153" lon="4.09508">
        <ele>1081</ele>
        <time>2016-07-24T10:02:23Z</time>
      </trkpt>
      <trkpt lat="45.06162" lon="4.09503">
        <ele>1082</ele>
        <time>2016-07-24T10:02:33Z</time>
      </trkpt>
      <trkpt lat="45.06164" lon="4.09501">
        <ele>1083</ele>
        <time>2016-07-24T10:02:35Z</time>
      </trkpt>
      <trkpt lat="45.06164" lon="4.09499">
        <ele>1083</ele>
        <time>2016-07-24T10:02:37Z</time>
      </trkpt>
      <trkpt lat="45.06171" lon="4.09489">
        <ele>1084</ele>
        <time>2016-07-24T10:02:52Z</time>
      </trkpt>
      <trkpt lat="45.06172" lon="4.09489">
        <ele>1084</ele>
        <time>2016-07-24T10:03:13Z</time>
      </trkpt>
      <trkpt lat="45.06175" lon="4.09482">
        <ele>1085</ele>
        <time>2016-07-24T10:03:24Z</time>
      </trkpt>
      <trkpt lat="45.06185" lon="4.09467">
        <ele>1086</ele>
        <time>2016-07-24T10:03:38Z</time>
      </trkpt>
      <trkpt lat="45.06188" lon="4.09462">
        <ele>1086</ele>
        <time>2016-07-24T10:03:56Z</time>
      </trkpt>
      <trkpt lat="45.06196" lon="4.09444">
        <ele>1087</ele>
        <time>2016-07-24T10:04:11Z</time>
      </trkpt>
      <trkpt lat="45.06202" lon="4.09437">
        <ele>1087</ele>
        <time>2016-07-24T10:04:20Z</time>
      </trkpt>
      <trkpt lat="45.06205" lon="4.09435">
        <ele>1087</ele>
        <time>2016-07-24T10:04:23Z</time>
      </trkpt>
      <trkpt lat="45.06213" lon="4.09413">
        <ele>1090</ele>
        <time>2016-07-24T10:04:39Z</time>
      </trkpt>
      <trkpt lat="45.06214" lon="4.09383">
        <ele>1091</ele>
        <time>2016-07-24T10:04:57Z</time>
      </trkpt>
      <trkpt lat="45.06218" lon="4.09352">
        <ele>1091</ele>
        <time>2016-07-24T10:05:14Z</time>
      </trkpt>
      <trkpt lat="45.06223" lon="4.09322">
        <ele>1093</ele>
        <time>2016-07-24T10:05:31Z</time>
      </trkpt>
      <trkpt lat="45.06229" lon="4.09292">
        <ele>1093</ele>
        <time>2016-07-24T10:05:47Z</time>
      </trkpt>
      <trkpt lat="45.06235" lon="4.09262">
        <ele>1093</ele>
        <time>2016-07-24T10:06:05Z</time>
      </trkpt>
      <trkpt lat="45.06245" lon="4.09239">
        <ele>1093</ele>
        <time>2016-07-24T10:06:22Z</time>
      </trkpt>
      <trkpt lat="45.06247" lon="4.09236">
        <ele>1093</ele>
        <time>2016-07-24T10:06:25Z</time>
      </trkpt>
      <trkpt lat="45.06252" lon="4.09236">
        <ele>1091</ele>
        <time>2016-07-24T10:06:29Z</time>
      </trkpt>
      <trkpt lat="45.06262" lon="4.09244">
        <ele>1092</ele>
        <time>2016-07-24T10:06:42Z</time>
      </trkpt>
      <trkpt lat="45.06269" lon="4.09246">
        <ele>1091</ele>
        <time>2016-07-24T10:06:56Z</time>
      </trkpt>
      <trkpt lat="45.06272" lon="4.09245">
        <ele>1091</ele>
        <time>2016-07-24T10:07:00Z</time>
      </trkpt>
      <trkpt lat="45.06282" lon="4.09244">
        <ele>1090</ele>
        <time>2016-07-24T10:07:12Z</time>
      </trkpt>
      <trkpt lat="45.06287" lon="4.09244">
        <ele>1090</ele>
        <time>2016-07-24T10:07:16Z</time>
      </trkpt>
      <trkpt lat="45.06311" lon="4.09252">
        <ele>1092</ele>
        <time>2016-07-24T10:07:34Z</time>
      </trkpt>
      <trkpt lat="45.06314" lon="4.09254">
        <ele>1092</ele>
        <time>2016-07-24T10:07:36Z</time>
      </trkpt>
      <trkpt lat="45.06334" lon="4.09264">
        <ele>1091</ele>
        <time>2016-07-24T10:07:53Z</time>
      </trkpt>
      <trkpt lat="45.06335" lon="4.09264">
        <ele>1091</ele>
        <time>2016-07-24T10:08:03Z</time>
      </trkpt>
      <trkpt lat="45.06336" lon="4.09266">
        <ele>1091</ele>
        <time>2016-07-24T10:08:19Z</time>
      </trkpt>
      <trkpt lat="45.06337" lon="4.09266">
        <ele>1091</ele>
        <time>2016-07-24T10:08:36Z</time>
      </trkpt>
      <trkpt lat="45.0634" lon="4.09267">
        <ele>1091</ele>
        <time>2016-07-24T10:08:46Z</time>
      </trkpt>
      <trkpt lat="45.06341" lon="4.09267">
        <ele>1091</ele>
        <time>2016-07-24T10:08:48Z</time>
      </trkpt>
      <trkpt lat="45.0636" lon="4.09268">
        <ele>1091</ele>
        <time>2016-07-24T10:09:04Z</time>
      </trkpt>
      <trkpt lat="45.06378" lon="4.09272">
        <ele>1090</ele>
        <time>2016-07-24T10:09:20Z</time>
      </trkpt>
      <trkpt lat="45.06394" lon="4.09276">
        <ele>1089</ele>
        <time>2016-07-24T10:09:36Z</time>
      </trkpt>
      <trkpt lat="45.0641" lon="4.0928">
        <ele>1089</ele>
        <time>2016-07-24T10:09:52Z</time>
      </trkpt>
      <trkpt lat="45.06418" lon="4.09283">
        <ele>1083</ele>
        <time>2016-07-24T10:10:00Z</time>
      </trkpt>
      <trkpt lat="45.0643" lon="4.09276">
        <ele>1082</ele>
        <time>2016-07-24T10:10:14Z</time>
      </trkpt>
      <trkpt lat="45.06441" lon="4.09265">
        <ele>1081</ele>
        <time>2016-07-24T10:10:27Z</time>
      </trkpt>
      <trkpt lat="45.06447" lon="4.09259">
        <ele>1081</ele>
        <time>2016-07-24T10:10:33Z</time>
      </trkpt>
      <trkpt lat="45.06462" lon="4.09245">
        <ele>1074</ele>
        <time>2016-07-24T10:10:49Z</time>
      </trkpt>
      <trkpt lat="45.06463" lon="4.09245">
        <ele>1074</ele>
        <time>2016-07-24T10:10:50Z</time>
      </trkpt>
      <trkpt lat="45.06467" lon="4.09248">
        <ele>1073</ele>
        <time>2016-07-24T10:10:54Z</time>
      </trkpt>
      <trkpt lat="45.06477" lon="4.09255">
        <ele>1077</ele>
        <time>2016-07-24T10:11:04Z</time>
      </trkpt>
      <trkpt lat="45.06482" lon="4.0926">
        <ele>1077</ele>
        <time>2016-07-24T10:11:09Z</time>
      </trkpt>
      <trkpt lat="45.06486" lon="4.09262">
        <ele>1076</ele>
        <time>2016-07-24T10:11:13Z</time>
      </trkpt>
      <trkpt lat="45.06489" lon="4.09264">
        <ele>1076</ele>
        <time>2016-07-24T10:11:16Z</time>
      </trkpt>
      <trkpt lat="45.06493" lon="4.09267">
        <ele>1076</ele>
        <time>2016-07-24T10:11:20Z</time>
      </trkpt>
      <trkpt lat="45.06509" lon="4.09258">
        <ele>1070</ele>
        <time>2016-07-24T10:11:37Z</time>
      </trkpt>
      <trkpt lat="45.06523" lon="4.09247">
        <ele>1066</ele>
        <time>2016-07-24T10:11:53Z</time>
      </trkpt>
      <trkpt lat="45.06533" lon="4.09237">
        <ele>1065</ele>
        <time>2016-07-24T10:12:05Z</time>
      </trkpt>
      <trkpt lat="45.06538" lon="4.0923">
        <ele>1064</ele>
        <time>2016-07-24T10:12:11Z</time>
      </trkpt>
      <trkpt lat="45.06547" lon="4.09223">
        <ele>1063</ele>
        <time>2016-07-24T10:12:26Z</time>
      </trkpt>
      <trkpt lat="45.0656" lon="4.0921">
        <ele>1062</ele>
        <time>2016-07-24T10:12:40Z</time>
      </trkpt>
      <trkpt lat="45.06569" lon="4.09205">
        <ele>1061</ele>
        <time>2016-07-24T10:12:54Z</time>
      </trkpt>
      <trkpt lat="45.06571" lon="4.09201">
        <ele>1061</ele>
        <time>2016-07-24T10:12:58Z</time>
      </trkpt>
      <trkpt lat="45.06573" lon="4.09195">
        <ele>1061</ele>
        <time>2016-07-24T10:13:03Z</time>
      </trkpt>
      <trkpt lat="45.06572" lon="4.09183">
        <ele>1060</ele>
        <time>2016-07-24T10:13:11Z</time>
      </trkpt>
      <trkpt lat="45.06573" lon="4.0918">
        <ele>1059</ele>
        <time>2016-07-24T10:13:13Z</time>
      </trkpt>
      <trkpt lat="45.06578" lon="4.0918">
        <ele>1059</ele>
        <time>2016-07-24T10:13:18Z</time>
      </trkpt>
      <trkpt lat="45.06582" lon="4.09182">
        <ele>1059</ele>
        <time>2016-07-24T10:13:34Z</time>
      </trkpt>
      <trkpt lat="45.06591" lon="4.09186">
        <ele>1055</ele>
        <time>2016-07-24T10:13:46Z</time>
      </trkpt>
      <trkpt lat="45.06616" lon="4.09181">
        <ele>1054</ele>
        <time>2016-07-24T10:14:06Z</time>
      </trkpt>
      <trkpt lat="45.06635" lon="4.09164">
        <ele>1050</ele>
        <time>2016-07-24T10:14:24Z</time>
      </trkpt>
      <trkpt lat="45.06656" lon="4.09144">
        <ele>1049</ele>
        <time>2016-07-24T10:14:44Z</time>
      </trkpt>
      <trkpt lat="45.06679" lon="4.09121">
        <ele>1046</ele>
        <time>2016-07-24T10:15:05Z</time>
      </trkpt>
      <trkpt lat="45.06702" lon="4.09102">
        <ele>1046</ele>
        <time>2016-07-24T10:15:25Z</time>
      </trkpt>
      <trkpt lat="45.0671" lon="4.09099">
        <ele>1045</ele>
        <time>2016-07-24T10:15:32Z</time>
      </trkpt>
      <trkpt lat="45.06731" lon="4.09097">
        <ele>1045</ele>
        <time>2016-07-24T10:15:48Z</time>
      </trkpt>
      <trkpt lat="45.06756" lon="4.091">
        <ele>1045</ele>
        <time>2016-07-24T10:16:04Z</time>
      </trkpt>
      <trkpt lat="45.06783" lon="4.09107">
        <ele>1047</ele>
        <time>2016-07-24T10:16:24Z</time>
      </trkpt>
      <trkpt lat="45.068" lon="4.0908">
        <ele>1045</ele>
        <time>2016-07-24T10:16:43Z</time>
      </trkpt>
      <trkpt lat="45.06803" lon="4.09072">
        <ele>1045</ele>
        <time>2016-07-24T10:16:48Z</time>
      </trkpt>
      <trkpt lat="45.06804" lon="4.0907">
        <ele>1045</ele>
        <time>2016-07-24T10:16:50Z</time>
      </trkpt>
      <trkpt lat="45.06807" lon="4.09065">
        <ele>1045</ele>
        <time>2016-07-24T10:16:59Z</time>
      </trkpt>
      <trkpt lat="45.06809" lon="4.09059">
        <ele>1045</ele>
        <time>2016-07-24T10:17:03Z</time>
      </trkpt>
      <trkpt lat="45.06814" lon="4.09042">
        <ele>1045</ele>
        <time>2016-07-24T10:17:14Z</time>
      </trkpt>
      <trkpt lat="45.0682" lon="4.09034">
        <ele>1046</ele>
        <time>2016-07-24T10:17:21Z</time>
      </trkpt>
      <trkpt lat="45.06834" lon="4.09008">
        <ele>1049</ele>
        <time>2016-07-24T10:17:39Z</time>
      </trkpt>
      <trkpt lat="45.06848" lon="4.08992">
        <ele>1051</ele>
        <time>2016-07-24T10:17:54Z</time>
      </trkpt>
      <trkpt lat="45.06865" lon="4.08984">
        <ele>1053</ele>
        <time>2016-07-24T10:18:10Z</time>
      </trkpt>
      <trkpt lat="45.06877" lon="4.08978">
        <ele>1054</ele>
        <time>2016-07-24T10:18:27Z</time>
      </trkpt>
      <trkpt lat="45.06879" lon="4.08978">
        <ele>1054</ele>
        <time>2016-07-24T10:18:46Z</time>
      </trkpt>
      <trkpt lat="45.06896" lon="4.08972">
        <ele>1055</ele>
        <time>2016-07-24T10:19:02Z</time>
      </trkpt>
      <trkpt lat="45.06898" lon="4.08969">
        <ele>1055</ele>
        <time>2016-07-24T10:19:15Z</time>
      </trkpt>
      <trkpt lat="45.06901" lon="4.08968">
        <ele>1055</ele>
        <time>2016-07-24T10:19:28Z</time>
      </trkpt>
      <trkpt lat="45.06922" lon="4.08961">
        <ele>1060</ele>
        <time>2016-07-24T10:19:45Z</time>
      </trkpt>
      <trkpt lat="45.06942" lon="4.08954">
        <ele>1061</ele>
        <time>2016-07-24T10:20:02Z</time>
      </trkpt>
      <trkpt lat="45.06964" lon="4.08949">
        <ele>1062</ele>
        <time>2016-07-24T10:20:20Z</time>
      </trkpt>
      <trkpt lat="45.0698" lon="4.08962">
        <ele>1062</ele>
        <time>2016-07-24T10:20:35Z</time>
      </trkpt>
      <trkpt lat="45.06999" lon="4.08967">
        <ele>1062</ele>
        <time>2016-07-24T10:20:51Z</time>
      </trkpt>
      <trkpt lat="45.07023" lon="4.08971">
        <ele>1067</ele>
        <time>2016-07-24T10:21:09Z</time>
      </trkpt>
      <trkpt lat="45.07051" lon="4.08969">
        <ele>1068</ele>
        <time>2016-07-24T10:21:30Z</time>
      </trkpt>
      <trkpt lat="45.07072" lon="4.08968">
        <ele>1069</ele>
        <time>2016-07-24T10:21:46Z</time>
      </trkpt>
      <trkpt lat="45.07099" lon="4.08961">
        <ele>1074</ele>
        <time>2016-07-24T10:22:06Z</time>
      </trkpt>
      <trkpt lat="45.07114" lon="4.08958">
        <ele>1075</ele>
        <time>2016-07-24T10:22:19Z</time>
      </trkpt>
      <trkpt lat="45.07131" lon="4.08947">
        <ele>1076</ele>
        <time>2016-07-24T10:22:36Z</time>
      </trkpt>
      <trkpt lat="45.07139" lon="4.08942">
        <ele>1076</ele>
        <time>2016-07-24T10:22:43Z</time>
      </trkpt>
      <trkpt lat="45.07153" lon="4.0892">
        <ele>1078</ele>
        <time>2016-07-24T10:23:00Z</time>
      </trkpt>
      <trkpt lat="45.07161" lon="4.08903">
        <ele>1079</ele>
        <time>2016-07-24T10:23:12Z</time>
      </trkpt>
      <trkpt lat="45.07175" lon="4.08886">
        <ele>1084</ele>
        <time>2016-07-24T10:23:29Z</time>
      </trkpt>
      <trkpt lat="45.07178" lon="4.08884">
        <ele>1084</ele>
        <time>2016-07-24T10:23:32Z</time>
      </trkpt>
      <trkpt lat="45.07194" lon="4.08868">
        <ele>1085</ele>
        <time>2016-07-24T10:23:50Z</time>
      </trkpt>
      <trkpt lat="45.07213" lon="4.08854">
        <ele>1087</ele>
        <time>2016-07-24T10:24:07Z</time>
      </trkpt>
      <trkpt lat="45.07235" lon="4.0884">
        <ele>1089</ele>
        <time>2016-07-24T10:24:27Z</time>
      </trkpt>
      <trkpt lat="45.07238" lon="4.0884">
        <ele>1090</ele>
        <time>2016-07-24T10:24:31Z</time>
      </trkpt>
      <trkpt lat="45.07247" lon="4.08836">
        <ele>1091</ele>
        <time>2016-07-24T10:24:40Z</time>
      </trkpt>
      <trkpt lat="45.07268" lon="4.08851">
        <ele>1093</ele>
        <time>2016-07-24T10:24:59Z</time>
      </trkpt>
      <trkpt lat="45.07272" lon="4.08852">
        <ele>1094</ele>
        <time>2016-07-24T10:25:02Z</time>
      </trkpt>
      <trkpt lat="45.07296" lon="4.08845">
        <ele>1095</ele>
        <time>2016-07-24T10:25:22Z</time>
      </trkpt>
      <trkpt lat="45.07316" lon="4.08835">
        <ele>1096</ele>
        <time>2016-07-24T10:25:40Z</time>
      </trkpt>
      <trkpt lat="45.07336" lon="4.08824">
        <ele>1099</ele>
        <time>2016-07-24T10:25:59Z</time>
      </trkpt>
      <trkpt lat="45.07356" lon="4.0882">
        <ele>1100</ele>
        <time>2016-07-24T10:26:15Z</time>
      </trkpt>
      <trkpt lat="45.07359" lon="4.0882">
        <ele>1101</ele>
        <time>2016-07-24T10:26:17Z</time>
      </trkpt>
      <trkpt lat="45.0738" lon="4.08818">
        <ele>1102</ele>
        <time>2016-07-24T10:26:34Z</time>
      </trkpt>
      <trkpt lat="45.07406" lon="4.08815">
        <ele>1103</ele>
        <time>2016-07-24T10:26:54Z</time>
      </trkpt>
      <trkpt lat="45.07427" lon="4.08807">
        <ele>1107</ele>
        <time>2016-07-24T10:27:12Z</time>
      </trkpt>
      <trkpt lat="45.07446" lon="4.08798">
        <ele>1107</ele>
        <time>2016-07-24T10:27:29Z</time>
      </trkpt>
      <trkpt lat="45.07452" lon="4.08796">
        <ele>1108</ele>
        <time>2016-07-24T10:27:34Z</time>
      </trkpt>
      <trkpt lat="45.07472" lon="4.0878">
        <ele>1109</ele>
        <time>2016-07-24T10:27:52Z</time>
      </trkpt>
      <trkpt lat="45.07483" lon="4.08768">
        <ele>1109</ele>
        <time>2016-07-24T10:28:02Z</time>
      </trkpt>
      <trkpt lat="45.07493" lon="4.08754">
        <ele>1111</ele>
        <time>2016-07-24T10:28:15Z</time>
      </trkpt>
      <trkpt lat="45.07503" lon="4.08746">
        <ele>1113</ele>
        <time>2016-07-24T10:28:24Z</time>
      </trkpt>
      <trkpt lat="45.07516" lon="4.08769">
        <ele>1113</ele>
        <time>2016-07-24T10:28:39Z</time>
      </trkpt>
      <trkpt lat="45.07531" lon="4.08802">
        <ele>1114</ele>
        <time>2016-07-24T10:28:59Z</time>
      </trkpt>
      <trkpt lat="45.07538" lon="4.08837">
        <ele>1113</ele>
        <time>2016-07-24T10:29:18Z</time>
      </trkpt>
      <trkpt lat="45.07543" lon="4.08873">
        <ele>1113</ele>
        <time>2016-07-24T10:29:35Z</time>
      </trkpt>
      <trkpt lat="45.07548" lon="4.08913">
        <ele>1113</ele>
        <time>2016-07-24T10:29:56Z</time>
      </trkpt>
      <trkpt lat="45.0756" lon="4.08953">
        <ele>1113</ele>
        <time>2016-07-24T10:30:18Z</time>
      </trkpt>
      <trkpt lat="45.07563" lon="4.08987">
        <ele>1113</ele>
        <time>2016-07-24T10:30:36Z</time>
      </trkpt>
      <trkpt lat="45.07569" lon="4.09026">
        <ele>1113</ele>
        <time>2016-07-24T10:30:56Z</time>
      </trkpt>
      <trkpt lat="45.07578" lon="4.09064">
        <ele>1113</ele>
        <time>2016-07-24T10:31:16Z</time>
      </trkpt>
      <trkpt lat="45.0757" lon="4.09103">
        <ele>1112</ele>
        <time>2016-07-24T10:31:36Z</time>
      </trkpt>
      <trkpt lat="45.0756" lon="4.09144">
        <ele>1111</ele>
        <time>2016-07-24T10:31:58Z</time>
      </trkpt>
      <trkpt lat="45.07559" lon="4.09174">
        <ele>1112</ele>
        <time>2016-07-24T10:32:14Z</time>
      </trkpt>
      <trkpt lat="45.07566" lon="4.09203">
        <ele>1111</ele>
        <time>2016-07-24T10:32:28Z</time>
      </trkpt>
      <trkpt lat="45.07576" lon="4.09241">
        <ele>1113</ele>
        <time>2016-07-24T10:32:48Z</time>
      </trkpt>
      <trkpt lat="45.07588" lon="4.09281">
        <ele>1117</ele>
        <time>2016-07-24T10:33:09Z</time>
      </trkpt>
      <trkpt lat="45.07595" lon="4.09321">
        <ele>1116</ele>
        <time>2016-07-24T10:33:29Z</time>
      </trkpt>
      <trkpt lat="45.07593" lon="4.09346">
        <ele>1113.5</ele>
      </trkpt>
      <trkpt lat="45.07589" lon="4.09379">
        <ele>1114.8</ele>
      </trkpt>
      <trkpt lat="45.07562" lon="4.09435">
        <ele>1113.6</ele>
      </trkpt>
      <trkpt lat="45.07564" lon="4.09477">
        <ele>1115.5</ele>
      </trkpt>
      <trkpt lat="45.07526" lon="4.09494">
        <ele>1110.8</ele>
      </trkpt>
      <trkpt lat="45.07519" lon="4.09549">
        <ele>1114.1</ele>
      </trkpt>
      <trkpt lat="45.07491" lon="4.09549">
        <ele>1113.5</ele>
      </trkpt>
      <trkpt lat="45.07477" lon="4.09552">
        <ele>1114.3</ele>
      </trkpt>
      <trkpt lat="45.07469" lon="4.09562">
        <ele>1115.6</ele>
      </trkpt>
      <trkpt lat="45.07464" lon="4.09595">
        <ele>1118.8</ele>
      </trkpt>
      <trkpt lat="45.0746" lon="4.09608">
        <ele>1120.1</ele>
      </trkpt>
      <trkpt lat="45.07422" lon="4.09617">
        <ele>1122.5</ele>
      </trkpt>
      <trkpt lat="45.074" lon="4.09629">
        <ele>1124.1</ele>
      </trkpt>
      <trkpt lat="45.07354" lon="4.09666">
        <ele>1129.4</ele>
      </trkpt>
      <trkpt lat="45.07346" lon="4.0967">
        <ele>1130.8</ele>
      </trkpt>
      <trkpt lat="45.07326" lon="4.09672">
        <ele>1132.7</ele>
      </trkpt>
      <trkpt lat="45.07318" lon="4.09683">
        <ele>1136</ele>
      </trkpt>
      <trkpt lat="45.07299" lon="4.09686">
        <ele>1139.7</ele>
      </trkpt>
      <trkpt lat="45.0728" lon="4.09683">
        <ele>1144.1</ele>
      </trkpt>
      <trkpt lat="45.07274" lon="4.0968">
        <ele>1144.4</ele>
      </trkpt>
      <trkpt lat="45.0726" lon="4.09673">
        <ele>1144.4</ele>
      </trkpt>
      <trkpt lat="45.07256" lon="4.09675">
        <ele>1145.5</ele>
      </trkpt>
      <trkpt lat="45.07248" lon="4.09673">
        <ele>1145.6</ele>
      </trkpt>
      <trkpt lat="45.07234" lon="4.09675">
        <ele>1144.7</ele>
      </trkpt>
      <trkpt lat="45.0723" lon="4.09678">
        <ele>1145.1</ele>
      </trkpt>
      <trkpt lat="45.0722" lon="4.09685">
        <ele>1145.7</ele>
      </trkpt>
      <trkpt lat="45.07216" lon="4.09691">
        <ele>1146.1</ele>
      </trkpt>
      <trkpt lat="45.07208" lon="4.09707">
        <ele>1145.8</ele>
      </trkpt>
      <trkpt lat="45.07207" lon="4.09714">
        <ele>1146.2</ele>
      </trkpt>
      <trkpt lat="45.07208" lon="4.09715">
        <ele>1146.6</ele>
      </trkpt>
      <trkpt lat="45.07211" lon="4.09717">
        <ele>1147.6</ele>
      </trkpt>
      <trkpt lat="45.07215" lon="4.09723">
        <ele>1149.2</ele>
      </trkpt>
      <trkpt lat="45.07213" lon="4.09733">
        <ele>1149.1</ele>
      </trkpt>
      <trkpt lat="45.07215" lon="4.09746">
        <ele>1150</ele>
      </trkpt>
      <trkpt lat="45.07223" lon="4.0978">
        <ele>1151</ele>
      </trkpt>
      <trkpt lat="45.07229" lon="4.09798">
        <ele>1151.2</ele>
      </trkpt>
      <trkpt lat="45.07237" lon="4.09799">
        <ele>1152.4</ele>
      </trkpt>
      <trkpt lat="45.07256" lon="4.09813">
        <ele>1153.8</ele>
      </trkpt>
      <trkpt lat="45.0727" lon="4.09814">
        <ele>1153.9</ele>
      </trkpt>
      <trkpt lat="45.07304" lon="4.09854">
        <ele>1152</ele>
      </trkpt>
      <trkpt lat="45.07344" lon="4.09897">
        <ele>1151.8</ele>
      </trkpt>
      <trkpt lat="45.0735" lon="4.09903">
        <ele>1151.8</ele>
      </trkpt>
      <trkpt lat="45.07355" lon="4.09915">
        <ele>1151.8</ele>
      </trkpt>
      <trkpt lat="45.07356" lon="4.09917">
        <ele>1151.8</ele>
      </trkpt>
      <trkpt lat="45.07361" lon="4.0993">
        <ele>1154</ele>
        <time>2016-07-24T10:42:36Z</time>
      </trkpt>
      <trkpt lat="45.0735" lon="4.09963">
        <ele>1154</ele>
        <time>2016-07-24T10:42:55Z</time>
      </trkpt>
      <trkpt lat="45.07334" lon="4.09998">
        <ele>1152</ele>
        <time>2016-07-24T10:43:17Z</time>
      </trkpt>
      <trkpt lat="45.07317" lon="4.10024">
        <ele>1150</ele>
        <time>2016-07-24T10:43:36Z</time>
      </trkpt>
      <trkpt lat="45.0731" lon="4.10039">
        <ele>1150</ele>
        <time>2016-07-24T10:43:47Z</time>
      </trkpt>
      <trkpt lat="45.07307" lon="4.10044">
        <ele>1149</ele>
        <time>2016-07-24T10:43:51Z</time>
      </trkpt>
      <trkpt lat="45.07291" lon="4.10062">
        <ele>1149</ele>
        <time>2016-07-24T10:44:08Z</time>
      </trkpt>
      <trkpt lat="45.07285" lon="4.10066">
        <ele>1149</ele>
        <time>2016-07-24T10:44:13Z</time>
      </trkpt>
      <trkpt lat="45.07285" lon="4.10072">
        <ele>1149</ele>
        <time>2016-07-24T10:44:17Z</time>
      </trkpt>
      <trkpt lat="45.07274" lon="4.10085">
        <ele>1150</ele>
        <time>2016-07-24T10:44:32Z</time>
      </trkpt>
      <trkpt lat="45.07266" lon="4.1008">
        <ele>1148</ele>
        <time>2016-07-24T10:44:46Z</time>
      </trkpt>
      <trkpt lat="45.07265" lon="4.10081">
        <ele>1148</ele>
        <time>2016-07-24T10:44:47Z</time>
      </trkpt>
      <trkpt lat="45.07253" lon="4.10086">
        <ele>1148</ele>
        <time>2016-07-24T10:44:57Z</time>
      </trkpt>
      <trkpt lat="45.07254" lon="4.10089">
        <ele>1148</ele>
        <time>2016-07-24T10:45:09Z</time>
      </trkpt>
      <trkpt lat="45.07254" lon="4.1009">
        <ele>1148</ele>
        <time>2016-07-24T10:45:21Z</time>
      </trkpt>
      <trkpt lat="45.07254" lon="4.10089">
        <ele>1148</ele>
        <time>2016-07-24T10:45:44Z</time>
      </trkpt>
      <trkpt lat="45.07254" lon="4.10088">
        <ele>1148</ele>
        <time>2016-07-24T10:46:04Z</time>
      </trkpt>
      <trkpt lat="45.07254" lon="4.10089">
        <ele>1148</ele>
        <time>2016-07-24T10:46:26Z</time>
      </trkpt>
      <trkpt lat="45.07255" lon="4.10087">
        <ele>1148</ele>
        <time>2016-07-24T10:46:53Z</time>
      </trkpt>
      <trkpt lat="45.07255" lon="4.10088">
        <ele>1148</ele>
        <time>2016-07-24T10:47:21Z</time>
      </trkpt>
      <trkpt lat="45.07255" lon="4.10088">
        <ele>1148</ele>
        <time>2016-07-24T10:47:56Z</time>
      </trkpt>
      <trkpt lat="45.07256" lon="4.10088">
        <ele>1148</ele>
        <time>2016-07-24T10:48:16Z</time>
      </trkpt>
      <trkpt lat="45.07256" lon="4.10088">
        <ele>1148</ele>
        <time>2016-07-24T10:48:39Z</time>
      </trkpt>
      <trkpt lat="45.07257" lon="4.10088">
        <ele>1148</ele>
        <time>2016-07-24T10:49:03Z</time>
      </trkpt>
      <trkpt lat="45.07257" lon="4.10087">
        <ele>1148</ele>
        <time>2016-07-24T10:49:28Z</time>
      </trkpt>
      <trkpt lat="45.07258" lon="4.10087">
        <ele>1148</ele>
        <time>2016-07-24T10:49:51Z</time>
      </trkpt>
      <trkpt lat="45.07257" lon="4.10087">
        <ele>1148</ele>
        <time>2016-07-24T10:50:21Z</time>
      </trkpt>
      <trkpt lat="45.07257" lon="4.10088">
        <ele>1148</ele>
        <time>2016-07-24T10:50:51Z</time>
      </trkpt>
      <trkpt lat="45.07257" lon="4.10088">
        <ele>1148</ele>
        <time>2016-07-24T10:51:16Z</time>
      </trkpt>
      <trkpt lat="45.07256" lon="4.10088">
        <ele>1148</ele>
        <time>2016-07-24T10:51:37Z</time>
      </trkpt>
      <trkpt lat="45.07258" lon="4.10087">
        <ele>1148</ele>
        <time>2016-07-24T10:52:11Z</time>
      </trkpt>
      <trkpt lat="45.07259" lon="4.10087">
        <ele>1149</ele>
        <time>2016-07-24T10:52:43Z</time>
      </trkpt>
      <trkpt lat="45.0726" lon="4.10087">
        <ele>1149</ele>
        <time>2016-07-24T10:53:11Z</time>
      </trkpt>
      <trkpt lat="45.07259" lon="4.10086">
        <ele>1149</ele>
        <time>2016-07-24T10:53:38Z</time>
      </trkpt>
      <trkpt lat="45.07259" lon="4.10087">
        <ele>1149</ele>
        <time>2016-07-24T10:53:54Z</time>
      </trkpt>
      <trkpt lat="45.07259" lon="4.10084">
        <ele>1149</ele>
        <time>2016-07-24T10:54:27Z</time>
      </trkpt>
      <trkpt lat="45.07258" lon="4.10085">
        <ele>1148</ele>
        <time>2016-07-24T10:54:47Z</time>
      </trkpt>
      <trkpt lat="45.07258" lon="4.10086">
        <ele>1148</ele>
        <time>2016-07-24T10:55:10Z</time>
      </trkpt>
      <trkpt lat="45.07257" lon="4.10086">
        <ele>1148</ele>
        <time>2016-07-24T10:55:38Z</time>
      </trkpt>
      <trkpt lat="45.07256" lon="4.10088">
        <ele>1148</ele>
        <time>2016-07-24T10:55:59Z</time>
      </trkpt>
      <trkpt lat="45.07256" lon="4.10087">
        <ele>1148</ele>
        <time>2016-07-24T10:56:29Z</time>
      </trkpt>
      <trkpt lat="45.07256" lon="4.10088">
        <ele>1148</ele>
        <time>2016-07-24T10:57:02Z</time>
      </trkpt>
      <trkpt lat="45.07256" lon="4.10087">
        <ele>1148</ele>
        <time>2016-07-24T10:57:33Z</time>
      </trkpt>
      <trkpt lat="45.07257" lon="4.10088">
        <ele>1148</ele>
        <time>2016-07-24T10:58:01Z</time>
      </trkpt>
      <trkpt lat="45.07257" lon="4.10088">
        <ele>1148</ele>
        <time>2016-07-24T10:58:25Z</time>
      </trkpt>
      <trkpt lat="45.07256" lon="4.10087">
        <ele>1148</ele>
        <time>2016-07-24T10:58:48Z</time>
      </trkpt>
      <trkpt lat="45.07257" lon="4.10087">
        <ele>1148</ele>
        <time>2016-07-24T10:59:18Z</time>
      </trkpt>
      <trkpt lat="45.07256" lon="4.10087">
        <ele>1148</ele>
        <time>2016-07-24T10:59:39Z</time>
      </trkpt>
      <trkpt lat="45.07256" lon="4.10086">
        <ele>1148</ele>
        <time>2016-07-24T11:00:01Z</time>
      </trkpt>
      <trkpt lat="45.07255" lon="4.10087">
        <ele>1148</ele>
        <time>2016-07-24T11:00:27Z</time>
      </trkpt>
      <trkpt lat="45.07255" lon="4.10087">
        <ele>1148</ele>
        <time>2016-07-24T11:01:00Z</time>
      </trkpt>
      <trkpt lat="45.07256" lon="4.10087">
        <ele>1148</ele>
        <time>2016-07-24T11:01:32Z</time>
      </trkpt>
      <trkpt lat="45.07256" lon="4.10088">
        <ele>1148</ele>
        <time>2016-07-24T11:01:55Z</time>
      </trkpt>
      <trkpt lat="45.07256" lon="4.10088">
        <ele>1148</ele>
        <time>2016-07-24T11:02:21Z</time>
      </trkpt>
      <trkpt lat="45.07256" lon="4.10088">
        <ele>1148</ele>
        <time>2016-07-24T11:02:48Z</time>
      </trkpt>
      <trkpt lat="45.07256" lon="4.1009">
        <ele>1148</ele>
        <time>2016-07-24T11:03:15Z</time>
      </trkpt>
      <trkpt lat="45.07256" lon="4.10089">
        <ele>1148</ele>
        <time>2016-07-24T11:03:44Z</time>
      </trkpt>
      <trkpt lat="45.07256" lon="4.1009">
        <ele>1148</ele>
        <time>2016-07-24T11:04:09Z</time>
      </trkpt>
      <trkpt lat="45.07256" lon="4.10089">
        <ele>1148</ele>
        <time>2016-07-24T11:04:32Z</time>
      </trkpt>
      <trkpt lat="45.07255" lon="4.1009">
        <ele>1148</ele>
        <time>2016-07-24T11:04:58Z</time>
      </trkpt>
      <trkpt lat="45.07255" lon="4.1009">
        <ele>1148</ele>
        <time>2016-07-24T11:05:18Z</time>
      </trkpt>
      <trkpt lat="45.07255" lon="4.1009">
        <ele>1148</ele>
        <time>2016-07-24T11:05:51Z</time>
      </trkpt>
      <trkpt lat="45.07255" lon="4.1009">
        <ele>1148</ele>
        <time>2016-07-24T11:06:13Z</time>
      </trkpt>
      <trkpt lat="45.07255" lon="4.10091">
        <ele>1148</ele>
        <time>2016-07-24T11:06:42Z</time>
      </trkpt>
      <trkpt lat="45.07254" lon="4.10092">
        <ele>1149</ele>
        <time>2016-07-24T11:07:16Z</time>
      </trkpt>
      <trkpt lat="45.07255" lon="4.10092">
        <ele>1149</ele>
        <time>2016-07-24T11:07:53Z</time>
      </trkpt>
      <trkpt lat="45.07255" lon="4.10092">
        <ele>1149</ele>
        <time>2016-07-24T11:08:31Z</time>
      </trkpt>
      <trkpt lat="45.07255" lon="4.10092">
        <ele>1149</ele>
        <time>2016-07-24T11:09:09Z</time>
      </trkpt>
      <trkpt lat="45.07255" lon="4.10092">
        <ele>1149</ele>
        <time>2016-07-24T11:09:41Z</time>
      </trkpt>
      <trkpt lat="45.07256" lon="4.10092">
        <ele>1149</ele>
        <time>2016-07-24T11:10:02Z</time>
      </trkpt>
      <trkpt lat="45.07256" lon="4.10092">
        <ele>1149</ele>
        <time>2016-07-24T11:10:31Z</time>
      </trkpt>
      <trkpt lat="45.07256" lon="4.10092">
        <ele>1149</ele>
        <time>2016-07-24T11:10:58Z</time>
      </trkpt>
      <trkpt lat="45.07256" lon="4.10091">
        <ele>1149</ele>
        <time>2016-07-24T11:11:04Z</time>
      </trkpt>
      <trkpt lat="45.07255" lon="4.10092">
        <ele>1149</ele>
        <time>2016-07-24T11:11:16Z</time>
      </trkpt>
      <trkpt lat="45.07258" lon="4.10094">
        <ele>1149</ele>
        <time>2016-07-24T11:11:22Z</time>
      </trkpt>
      <trkpt lat="45.07261" lon="4.10096">
        <ele>1149</ele>
        <time>2016-07-24T11:11:26Z</time>
      </trkpt>
      <trkpt lat="45.07265" lon="4.10096">
        <ele>1150</ele>
        <time>2016-07-24T11:11:38Z</time>
      </trkpt>
      <trkpt lat="45.07267" lon="4.10091">
        <ele>1150</ele>
        <time>2016-07-24T11:11:48Z</time>
      </trkpt>
      <trkpt lat="45.07269" lon="4.10091">
        <ele>1150</ele>
        <time>2016-07-24T11:11:51Z</time>
      </trkpt>
      <trkpt lat="45.07261" lon="4.10094">
        <ele>1149</ele>
        <time>2016-07-24T11:12:04Z</time>
      </trkpt>
      <trkpt lat="45.07256" lon="4.10099">
        <ele>1149</ele>
        <time>2016-07-24T11:12:17Z</time>
      </trkpt>
      <trkpt lat="45.07261" lon="4.10107">
        <ele>1150</ele>
        <time>2016-07-24T11:12:31Z</time>
      </trkpt>
      <trkpt lat="45.07262" lon="4.10108">
        <ele>1150</ele>
        <time>2016-07-24T11:12:33Z</time>
      </trkpt>
      <trkpt lat="45.0726" lon="4.1012">
        <ele>1151</ele>
        <time>2016-07-24T11:12:43Z</time>
      </trkpt>
      <trkpt lat="45.07254" lon="4.10136">
        <ele>1151</ele>
        <time>2016-07-24T11:12:57Z</time>
      </trkpt>
      <trkpt lat="45.07237" lon="4.10156">
        <ele>1148</ele>
        <time>2016-07-24T11:13:17Z</time>
      </trkpt>
      <trkpt lat="45.07236" lon="4.10157">
        <ele>1148</ele>
        <time>2016-07-24T11:13:18Z</time>
      </trkpt>
      <trkpt lat="45.07228" lon="4.10167">
        <ele>1150</ele>
        <time>2016-07-24T11:13:27Z</time>
      </trkpt>
      <trkpt lat="45.07221" lon="4.10179">
        <ele>1150</ele>
        <time>2016-07-24T11:13:37Z</time>
      </trkpt>
      <trkpt lat="45.0722" lon="4.10182">
        <ele>1150</ele>
        <time>2016-07-24T11:13:39Z</time>
      </trkpt>
      <trkpt lat="45.07211" lon="4.10196">
        <ele>1150</ele>
        <time>2016-07-24T11:13:56Z</time>
      </trkpt>
      <trkpt lat="45.07204" lon="4.1021">
        <ele>1150</ele>
        <time>2016-07-24T11:14:07Z</time>
      </trkpt>
      <trkpt lat="45.07188" lon="4.10245">
        <ele>1151</ele>
        <time>2016-07-24T11:14:25Z</time>
      </trkpt>
      <trkpt lat="45.07187" lon="4.10249">
        <ele>1151</ele>
        <time>2016-07-24T11:14:28Z</time>
      </trkpt>
      <trkpt lat="45.07178" lon="4.10272">
        <ele>1154</ele>
        <time>2016-07-24T11:14:41Z</time>
      </trkpt>
      <trkpt lat="45.07169" lon="4.10297">
        <ele>1154</ele>
        <time>2016-07-24T11:14:57Z</time>
      </trkpt>
      <trkpt lat="45.07158" lon="4.10325">
        <ele>1152</ele>
        <time>2016-07-24T11:15:15Z</time>
      </trkpt>
      <trkpt lat="45.07155" lon="4.10338">
        <ele>1154</ele>
        <time>2016-07-24T11:15:24Z</time>
      </trkpt>
      <trkpt lat="45.07152" lon="4.10345">
        <ele>1154</ele>
        <time>2016-07-24T11:15:29Z</time>
      </trkpt>
      <trkpt lat="45.07132" lon="4.10372">
        <ele>1155</ele>
        <time>2016-07-24T11:15:48Z</time>
      </trkpt>
      <trkpt lat="45.07113" lon="4.104">
        <ele>1156</ele>
        <time>2016-07-24T11:16:08Z</time>
      </trkpt>
      <trkpt lat="45.07109" lon="4.10403">
        <ele>1156</ele>
        <time>2016-07-24T11:16:23Z</time>
      </trkpt>
      <trkpt lat="45.07108" lon="4.10403">
        <ele>1156</ele>
        <time>2016-07-24T11:16:39Z</time>
      </trkpt>
      <trkpt lat="45.07107" lon="4.10403">
        <ele>1156</ele>
        <time>2016-07-24T11:16:59Z</time>
      </trkpt>
      <trkpt lat="45.07105" lon="4.10404">
        <ele>1156</ele>
        <time>2016-07-24T11:17:17Z</time>
      </trkpt>
      <trkpt lat="45.07105" lon="4.10405">
        <ele>1156</ele>
        <time>2016-07-24T11:17:42Z</time>
      </trkpt>
      <trkpt lat="45.07101" lon="4.10409">
        <ele>1156</ele>
        <time>2016-07-24T11:18:00Z</time>
      </trkpt>
      <trkpt lat="45.071" lon="4.10428">
        <ele>1159</ele>
        <time>2016-07-24T11:18:15Z</time>
      </trkpt>
      <trkpt lat="45.07099" lon="4.10444">
        <ele>1160</ele>
        <time>2016-07-24T11:18:29Z</time>
      </trkpt>
      <trkpt lat="45.07094" lon="4.10462">
        <ele>1161</ele>
        <time>2016-07-24T11:18:44Z</time>
      </trkpt>
      <trkpt lat="45.0709" lon="4.10483">
        <ele>1162</ele>
        <time>2016-07-24T11:18:57Z</time>
      </trkpt>
      <trkpt lat="45.07078" lon="4.10503">
        <ele>1164</ele>
        <time>2016-07-24T11:19:12Z</time>
      </trkpt>
      <trkpt lat="45.07071" lon="4.10513">
        <ele>1165</ele>
        <time>2016-07-24T11:19:20Z</time>
      </trkpt>
      <trkpt lat="45.0706" lon="4.10525">
        <ele>1166</ele>
        <time>2016-07-24T11:19:31Z</time>
      </trkpt>
      <trkpt lat="45.0705" lon="4.10538">
        <ele>1167</ele>
        <time>2016-07-24T11:19:43Z</time>
      </trkpt>
      <trkpt lat="45.07039" lon="4.10553">
        <ele>1167</ele>
        <time>2016-07-24T11:19:57Z</time>
      </trkpt>
      <trkpt lat="45.0703" lon="4.10572">
        <ele>1168</ele>
        <time>2016-07-24T11:20:12Z</time>
      </trkpt>
      <trkpt lat="45.07026" lon="4.10575">
        <ele>1168</ele>
        <time>2016-07-24T11:20:16Z</time>
      </trkpt>
      <trkpt lat="45.07019" lon="4.10591">
        <ele>1173</ele>
        <time>2016-07-24T11:20:26Z</time>
      </trkpt>
      <trkpt lat="45.06998" lon="4.10603">
        <ele>1172</ele>
        <time>2016-07-24T11:20:45Z</time>
      </trkpt>
      <trkpt lat="45.06977" lon="4.10617">
        <ele>1173</ele>
        <time>2016-07-24T11:21:01Z</time>
      </trkpt>
      <trkpt lat="45.06955" lon="4.10629">
        <ele>1173</ele>
        <time>2016-07-24T11:21:18Z</time>
      </trkpt>
      <trkpt lat="45.06955" lon="4.10634">
        <ele>1174</ele>
        <time>2016-07-24T11:21:33Z</time>
      </trkpt>
      <trkpt lat="45.06954" lon="4.10636">
        <ele>1174</ele>
        <time>2016-07-24T11:21:35Z</time>
      </trkpt>
      <trkpt lat="45.0695" lon="4.10645">
        <ele>1174</ele>
        <time>2016-07-24T11:21:43Z</time>
      </trkpt>
      <trkpt lat="45.06939" lon="4.10665">
        <ele>1174</ele>
        <time>2016-07-24T11:21:58Z</time>
      </trkpt>
      <trkpt lat="45.06939" lon="4.10667">
        <ele>1174</ele>
        <time>2016-07-24T11:21:59Z</time>
      </trkpt>
      <trkpt lat="45.06935" lon="4.1069">
        <ele>1180</ele>
        <time>2016-07-24T11:22:12Z</time>
      </trkpt>
      <trkpt lat="45.0693" lon="4.10716">
        <ele>1182</ele>
        <time>2016-07-24T11:22:27Z</time>
      </trkpt>
      <trkpt lat="45.06926" lon="4.10738">
        <ele>1184</ele>
        <time>2016-07-24T11:22:42Z</time>
      </trkpt>
      <trkpt lat="45.06926" lon="4.10748">
        <ele>1185</ele>
        <time>2016-07-24T11:22:57Z</time>
      </trkpt>
      <trkpt lat="45.06921" lon="4.10771">
        <ele>1188</ele>
        <time>2016-07-24T11:23:15Z</time>
      </trkpt>
      <trkpt lat="45.06919" lon="4.10791">
        <ele>1190</ele>
        <time>2016-07-24T11:23:22Z</time>
      </trkpt>
      <trkpt lat="45.06912" lon="4.10825">
        <ele>1191</ele>
        <time>2016-07-24T11:23:39Z</time>
      </trkpt>
      <trkpt lat="45.06912" lon="4.10855">
        <ele>1195</ele>
        <time>2016-07-24T11:23:55Z</time>
      </trkpt>
      <trkpt lat="45.06907" lon="4.10878">
        <ele>1196</ele>
        <time>2016-07-24T11:24:10Z</time>
      </trkpt>
      <trkpt lat="45.06894" lon="4.10894">
        <ele>1197</ele>
        <time>2016-07-24T11:24:24Z</time>
      </trkpt>
      <trkpt lat="45.069" lon="4.10916">
        <ele>1199</ele>
        <time>2016-07-24T11:24:39Z</time>
      </trkpt>
      <trkpt lat="45.06909" lon="4.10939">
        <ele>1205</ele>
        <time>2016-07-24T11:24:55Z</time>
      </trkpt>
      <trkpt lat="45.06917" lon="4.10968">
        <ele>1208</ele>
        <time>2016-07-24T11:25:10Z</time>
      </trkpt>
      <trkpt lat="45.06927" lon="4.10992">
        <ele>1211</ele>
        <time>2016-07-24T11:25:23Z</time>
      </trkpt>
      <trkpt lat="45.06933" lon="4.11006">
        <ele>1215</ele>
        <time>2016-07-24T11:25:33Z</time>
      </trkpt>
      <trkpt lat="45.06935" lon="4.11015">
        <ele>1215</ele>
        <time>2016-07-24T11:25:46Z</time>
      </trkpt>
      <trkpt lat="45.06938" lon="4.11015">
        <ele>1215</ele>
        <time>2016-07-24T11:25:49Z</time>
      </trkpt>
      <trkpt lat="45.06941" lon="4.11017">
        <ele>1215</ele>
        <time>2016-07-24T11:25:51Z</time>
      </trkpt>
      <trkpt lat="45.06945" lon="4.1102">
        <ele>1215</ele>
        <time>2016-07-24T11:25:54Z</time>
      </trkpt>
      <trkpt lat="45.0696" lon="4.11023">
        <ele>1215</ele>
        <time>2016-07-24T11:26:09Z</time>
      </trkpt>
      <trkpt lat="45.06961" lon="4.11024">
        <ele>1215</ele>
        <time>2016-07-24T11:26:25Z</time>
      </trkpt>
      <trkpt lat="45.06964" lon="4.11026">
        <ele>1215</ele>
        <time>2016-07-24T11:26:34Z</time>
      </trkpt>
      <trkpt lat="45.06963" lon="4.11026">
        <ele>1215</ele>
        <time>2016-07-24T11:26:46Z</time>
      </trkpt>
      <trkpt lat="45.06963" lon="4.11027">
        <ele>1215</ele>
        <time>2016-07-24T11:27:00Z</time>
      </trkpt>
      <trkpt lat="45.06963" lon="4.11027">
        <ele>1215</ele>
        <time>2016-07-24T11:27:03Z</time>
      </trkpt>
      <trkpt lat="45.06951" lon="4.11048">
        <ele>1216</ele>
        <time>2016-07-24T11:27:18Z</time>
      </trkpt>
      <trkpt lat="45.06943" lon="4.11071">
        <ele>1216</ele>
        <time>2016-07-24T11:27:33Z</time>
      </trkpt>
      <trkpt lat="45.06942" lon="4.11078">
        <ele>1216</ele>
        <time>2016-07-24T11:27:37Z</time>
      </trkpt>
      <trkpt lat="45.06941" lon="4.11101">
        <ele>1220</ele>
        <time>2016-07-24T11:27:51Z</time>
      </trkpt>
      <trkpt lat="45.06945" lon="4.11132">
        <ele>1222</ele>
        <time>2016-07-24T11:28:07Z</time>
      </trkpt>
      <trkpt lat="45.06948" lon="4.1116">
        <ele>1222</ele>
        <time>2016-07-24T11:28:22Z</time>
      </trkpt>
      <trkpt lat="45.0695" lon="4.11186">
        <ele>1227</ele>
        <time>2016-07-24T11:28:36Z</time>
      </trkpt>
      <trkpt lat="45.06951" lon="4.11214">
        <ele>1228</ele>
        <time>2016-07-24T11:28:51Z</time>
      </trkpt>
      <trkpt lat="45.06949" lon="4.11235">
        <ele>1228</ele>
        <time>2016-07-24T11:29:03Z</time>
      </trkpt>
      <trkpt lat="45.06945" lon="4.11264">
        <ele>1234</ele>
        <time>2016-07-24T11:29:19Z</time>
      </trkpt>
      <trkpt lat="45.06939" lon="4.11291">
        <ele>1235</ele>
        <time>2016-07-24T11:29:35Z</time>
      </trkpt>
      <trkpt lat="45.06932" lon="4.11323">
        <ele>1234</ele>
        <time>2016-07-24T11:29:51Z</time>
      </trkpt>
      <trkpt lat="45.06925" lon="4.11342">
        <ele>1238</ele>
        <time>2016-07-24T11:30:02Z</time>
      </trkpt>
      <trkpt lat="45.06922" lon="4.11349">
        <ele>1239</ele>
        <time>2016-07-24T11:30:06Z</time>
      </trkpt>
      <trkpt lat="45.06914" lon="4.11371">
        <ele>1226</ele>
        <time>2016-07-24T11:30:20Z</time>
      </trkpt>
      <trkpt lat="45.06909" lon="4.11393">
        <ele>1229</ele>
        <time>2016-07-24T11:30:37Z</time>
      </trkpt>
      <trkpt lat="45.06909" lon="4.11395">
        <ele>1230</ele>
        <time>2016-07-24T11:30:54Z</time>
      </trkpt>
      <trkpt lat="45.0691" lon="4.11398">
        <ele>1231</ele>
        <time>2016-07-24T11:31:13Z</time>
      </trkpt>
      <trkpt lat="45.06911" lon="4.114">
        <ele>1232</ele>
        <time>2016-07-24T11:31:25Z</time>
      </trkpt>
      <trkpt lat="45.06911" lon="4.11402">
        <ele>1233</ele>
        <time>2016-07-24T11:31:46Z</time>
      </trkpt>
      <trkpt lat="45.06911" lon="4.1141">
        <ele>1236</ele>
        <time>2016-07-24T11:31:52Z</time>
      </trkpt>
      <trkpt lat="45.0691" lon="4.11431">
        <ele>1237</ele>
        <time>2016-07-24T11:32:04Z</time>
      </trkpt>
      <trkpt lat="45.06911" lon="4.11453">
        <ele>1235</ele>
        <time>2016-07-24T11:32:19Z</time>
      </trkpt>
      <trkpt lat="45.0691" lon="4.11476">
        <ele>1238</ele>
        <time>2016-07-24T11:32:32Z</time>
      </trkpt>
      <trkpt lat="45.06912" lon="4.11495">
        <ele>1245</ele>
        <time>2016-07-24T11:32:45Z</time>
      </trkpt>
      <trkpt lat="45.06915" lon="4.11516">
        <ele>1244</ele>
        <time>2016-07-24T11:32:59Z</time>
      </trkpt>
      <trkpt lat="45.06917" lon="4.11524">
        <ele>1259</ele>
        <time>2016-07-24T11:33:03Z</time>
      </trkpt>
      <trkpt lat="45.0692" lon="4.11543">
        <ele>1261</ele>
        <time>2016-07-24T11:33:17Z</time>
      </trkpt>
      <trkpt lat="45.06923" lon="4.1156">
        <ele>1261</ele>
        <time>2016-07-24T11:33:29Z</time>
      </trkpt>
      <trkpt lat="45.06923" lon="4.11566">
        <ele>1260</ele>
        <time>2016-07-24T11:33:36Z</time>
      </trkpt>
      <trkpt lat="45.06925" lon="4.11586">
        <ele>1259</ele>
        <time>2016-07-24T11:33:48Z</time>
      </trkpt>
      <trkpt lat="45.06928" lon="4.116">
        <ele>1263</ele>
        <time>2016-07-24T11:33:59Z</time>
      </trkpt>
      <trkpt lat="45.06934" lon="4.116">
        <ele>1265</ele>
        <time>2016-07-24T11:34:11Z</time>
      </trkpt>
      <trkpt lat="45.06935" lon="4.116">
        <ele>1265</ele>
        <time>2016-07-24T11:34:22Z</time>
      </trkpt>
      <trkpt lat="45.06933" lon="4.11603">
        <ele>1265</ele>
        <time>2016-07-24T11:34:35Z</time>
      </trkpt>
      <trkpt lat="45.06932" lon="4.11606">
        <ele>1265</ele>
        <time>2016-07-24T11:34:50Z</time>
      </trkpt>
      <trkpt lat="45.0693" lon="4.11609">
        <ele>1265</ele>
        <time>2016-07-24T11:34:52Z</time>
      </trkpt>
      <trkpt lat="45.06928" lon="4.11621">
        <ele>1266</ele>
        <time>2016-07-24T11:34:59Z</time>
      </trkpt>
      <trkpt lat="45.0692" lon="4.11663">
        <ele>1261</ele>
        <time>2016-07-24T11:35:22Z</time>
      </trkpt>
      <trkpt lat="45.06917" lon="4.11695">
        <ele>1270</ele>
        <time>2016-07-24T11:35:39Z</time>
      </trkpt>
      <trkpt lat="45.06915" lon="4.11723">
        <ele>1258</ele>
        <time>2016-07-24T11:35:55Z</time>
      </trkpt>
      <trkpt lat="45.06909" lon="4.11753">
        <ele>1265</ele>
        <time>2016-07-24T11:36:12Z</time>
      </trkpt>
      <trkpt lat="45.06909" lon="4.1178">
        <ele>1264</ele>
        <time>2016-07-24T11:36:28Z</time>
      </trkpt>
      <trkpt lat="45.06913" lon="4.11798">
        <ele>1265</ele>
        <time>2016-07-24T11:36:42Z</time>
      </trkpt>
      <trkpt lat="45.06914" lon="4.118">
        <ele>1265</ele>
        <time>2016-07-24T11:36:44Z</time>
      </trkpt>
      <trkpt lat="45.06916" lon="4.11808">
        <ele>1266</ele>
        <time>2016-07-24T11:36:56Z</time>
      </trkpt>
      <trkpt lat="45.06918" lon="4.11811">
        <ele>1276</ele>
        <time>2016-07-24T11:37:07Z</time>
      </trkpt>
      <trkpt lat="45.06921" lon="4.11819">
        <ele>1276</ele>
        <time>2016-07-24T11:37:19Z</time>
      </trkpt>
      <trkpt lat="45.06923" lon="4.11824">
        <ele>1275</ele>
        <time>2016-07-24T11:37:24Z</time>
      </trkpt>
      <trkpt lat="45.06936" lon="4.11843">
        <ele>1279</ele>
        <time>2016-07-24T11:37:41Z</time>
      </trkpt>
      <trkpt lat="45.06943" lon="4.11863">
        <ele>1281</ele>
        <time>2016-07-24T11:37:56Z</time>
      </trkpt>
      <trkpt lat="45.06945" lon="4.11869">
        <ele>1281</ele>
        <time>2016-07-24T11:38:00Z</time>
      </trkpt>
      <trkpt lat="45.06947" lon="4.11894">
        <ele>1282</ele>
        <time>2016-07-24T11:38:15Z</time>
      </trkpt>
      <trkpt lat="45.06949" lon="4.11904">
        <ele>1282</ele>
        <time>2016-07-24T11:38:21Z</time>
      </trkpt>
      <trkpt lat="45.06951" lon="4.11908">
        <ele>1282</ele>
        <time>2016-07-24T11:38:25Z</time>
      </trkpt>
      <trkpt lat="45.06953" lon="4.11914">
        <ele>1282</ele>
        <time>2016-07-24T11:38:29Z</time>
      </trkpt>
      <trkpt lat="45.06956" lon="4.11921">
        <ele>1284</ele>
        <time>2016-07-24T11:38:34Z</time>
      </trkpt>
      <trkpt lat="45.06957" lon="4.1195">
        <ele>1285</ele>
        <time>2016-07-24T11:38:52Z</time>
      </trkpt>
      <trkpt lat="45.06959" lon="4.11981">
        <ele>1285</ele>
        <time>2016-07-24T11:39:09Z</time>
      </trkpt>
      <trkpt lat="45.06962" lon="4.11999">
        <ele>1285</ele>
        <time>2016-07-24T11:39:22Z</time>
      </trkpt>
      <trkpt lat="45.06967" lon="4.12019">
        <ele>1286</ele>
        <time>2016-07-24T11:39:35Z</time>
      </trkpt>
      <trkpt lat="45.0697" lon="4.12029">
        <ele>1285</ele>
        <time>2016-07-24T11:39:46Z</time>
      </trkpt>
      <trkpt lat="45.06977" lon="4.1206">
        <ele>1286</ele>
        <time>2016-07-24T11:40:02Z</time>
      </trkpt>
      <trkpt lat="45.06983" lon="4.12084">
        <ele>1284</ele>
        <time>2016-07-24T11:40:15Z</time>
      </trkpt>
      <trkpt lat="45.06985" lon="4.1209">
        <ele>1284</ele>
        <time>2016-07-24T11:40:19Z</time>
      </trkpt>
      <trkpt lat="45.06986" lon="4.12093">
        <ele>1284</ele>
        <time>2016-07-24T11:40:21Z</time>
      </trkpt>
      <trkpt lat="45.0699" lon="4.12118">
        <ele>1282</ele>
        <time>2016-07-24T11:40:37Z</time>
      </trkpt>
      <trkpt lat="45.06998" lon="4.12139">
        <ele>1281</ele>
        <time>2016-07-24T11:40:49Z</time>
      </trkpt>
      <trkpt lat="45.07002" lon="4.1215">
        <ele>1286</ele>
        <time>2016-07-24T11:40:56Z</time>
      </trkpt>
      <trkpt lat="45.07013" lon="4.12178">
        <ele>1283</ele>
        <time>2016-07-24T11:41:12Z</time>
      </trkpt>
      <trkpt lat="45.07021" lon="4.12197">
        <ele>1283</ele>
        <time>2016-07-24T11:41:25Z</time>
      </trkpt>
      <trkpt lat="45.07028" lon="4.12209">
        <ele>1283</ele>
        <time>2016-07-24T11:41:33Z</time>
      </trkpt>
      <trkpt lat="45.07042" lon="4.12231">
        <ele>1283</ele>
        <time>2016-07-24T11:41:49Z</time>
      </trkpt>
      <trkpt lat="45.07052" lon="4.12256">
        <ele>1280</ele>
        <time>2016-07-24T11:42:05Z</time>
      </trkpt>
      <trkpt lat="45.07058" lon="4.12276">
        <ele>1279</ele>
        <time>2016-07-24T11:42:18Z</time>
      </trkpt>
      <trkpt lat="45.07062" lon="4.12289">
        <ele>1279</ele>
        <time>2016-07-24T11:42:26Z</time>
      </trkpt>
      <trkpt lat="45.07074" lon="4.12306">
        <ele>1279</ele>
        <time>2016-07-24T11:42:38Z</time>
      </trkpt>
      <trkpt lat="45.07078" lon="4.12311">
        <ele>1279</ele>
        <time>2016-07-24T11:42:42Z</time>
      </trkpt>
      <trkpt lat="45.07094" lon="4.1233">
        <ele>1281</ele>
        <time>2016-07-24T11:42:58Z</time>
      </trkpt>
      <trkpt lat="45.07105" lon="4.1234">
        <ele>1279</ele>
        <time>2016-07-24T11:43:08Z</time>
      </trkpt>
      <trkpt lat="45.0711" lon="4.12353">
        <ele>1279</ele>
        <time>2016-07-24T11:43:21Z</time>
      </trkpt>
      <trkpt lat="45.07118" lon="4.12368">
        <ele>1279</ele>
        <time>2016-07-24T11:43:34Z</time>
      </trkpt>
      <trkpt lat="45.07126" lon="4.12384">
        <ele>1279</ele>
        <time>2016-07-24T11:43:49Z</time>
      </trkpt>
      <trkpt lat="45.07129" lon="4.12389">
        <ele>1279</ele>
        <time>2016-07-24T11:43:53Z</time>
      </trkpt>
      <trkpt lat="45.07142" lon="4.12413">
        <ele>1278</ele>
        <time>2016-07-24T11:44:10Z</time>
      </trkpt>
      <trkpt lat="45.0715" lon="4.1243">
        <ele>1275</ele>
        <time>2016-07-24T11:44:22Z</time>
      </trkpt>
      <trkpt lat="45.07151" lon="4.12437">
        <ele>1275</ele>
        <time>2016-07-24T11:44:27Z</time>
      </trkpt>
      <trkpt lat="45.07152" lon="4.12455">
        <ele>1274</ele>
        <time>2016-07-24T11:44:37Z</time>
      </trkpt>
      <trkpt lat="45.07152" lon="4.12464">
        <ele>1273</ele>
        <time>2016-07-24T11:44:42Z</time>
      </trkpt>
      <trkpt lat="45.07141" lon="4.12494">
        <ele>1272</ele>
        <time>2016-07-24T11:44:58Z</time>
      </trkpt>
      <trkpt lat="45.07139" lon="4.12498">
        <ele>1272</ele>
        <time>2016-07-24T11:45:07Z</time>
      </trkpt>
      <trkpt lat="45.07152" lon="4.12475">
        <ele>1272</ele>
        <time>2016-07-24T11:45:24Z</time>
      </trkpt>
      <trkpt lat="45.07155" lon="4.12466">
        <ele>1273</ele>
        <time>2016-07-24T11:45:30Z</time>
      </trkpt>
      <trkpt lat="45.07158" lon="4.1246">
        <ele>1273</ele>
        <time>2016-07-24T11:45:34Z</time>
      </trkpt>
      <trkpt lat="45.07159" lon="4.12455">
        <ele>1274</ele>
        <time>2016-07-24T11:45:37Z</time>
      </trkpt>
      <trkpt lat="45.07163" lon="4.12445">
        <ele>1274</ele>
        <time>2016-07-24T11:45:51Z</time>
      </trkpt>
      <trkpt lat="45.07164" lon="4.12445">
        <ele>1274</ele>
        <time>2016-07-24T11:45:53Z</time>
      </trkpt>
      <trkpt lat="45.07165" lon="4.12444">
        <ele>1274</ele>
        <time>2016-07-24T11:46:06Z</time>
      </trkpt>
      <trkpt lat="45.07156" lon="4.12453">
        <ele>1274</ele>
        <time>2016-07-24T11:46:15Z</time>
      </trkpt>
      <trkpt lat="45.07155" lon="4.12458">
        <ele>1274</ele>
        <time>2016-07-24T11:46:20Z</time>
      </trkpt>
      <trkpt lat="45.0716" lon="4.12483">
        <ele>1272</ele>
        <time>2016-07-24T11:46:36Z</time>
      </trkpt>
      <trkpt lat="45.07165" lon="4.12506">
        <ele>1269</ele>
        <time>2016-07-24T11:46:50Z</time>
      </trkpt>
      <trkpt lat="45.07165" lon="4.12507">
        <ele>1269</ele>
        <time>2016-07-24T11:46:51Z</time>
      </trkpt>
      <trkpt lat="45.07168" lon="4.12518">
        <ele>1269</ele>
        <time>2016-07-24T11:47:03Z</time>
      </trkpt>
      <trkpt lat="45.07168" lon="4.1252">
        <ele>1269</ele>
        <time>2016-07-24T11:47:04Z</time>
      </trkpt>
      <trkpt lat="45.07169" lon="4.12533">
        <ele>1269</ele>
        <time>2016-07-24T11:47:11Z</time>
      </trkpt>
      <trkpt lat="45.07172" lon="4.12544">
        <ele>1269</ele>
        <time>2016-07-24T11:47:17Z</time>
      </trkpt>
      <trkpt lat="45.07176" lon="4.1256">
        <ele>1269</ele>
        <time>2016-07-24T11:47:27Z</time>
      </trkpt>
      <trkpt lat="45.07178" lon="4.12571">
        <ele>1269</ele>
        <time>2016-07-24T11:47:33Z</time>
      </trkpt>
      <trkpt lat="45.07179" lon="4.12574">
        <ele>1269</ele>
        <time>2016-07-24T11:47:35Z</time>
      </trkpt>
      <trkpt lat="45.07181" lon="4.12583">
        <ele>1269</ele>
        <time>2016-07-24T11:47:41Z</time>
      </trkpt>
      <trkpt lat="45.07185" lon="4.12596">
        <ele>1268</ele>
        <time>2016-07-24T11:47:55Z</time>
      </trkpt>
      <trkpt lat="45.07185" lon="4.12596">
        <ele>1268</ele>
        <time>2016-07-24T11:48:00Z</time>
      </trkpt>
      <trkpt lat="45.07195" lon="4.12608">
        <ele>1268</ele>
        <time>2016-07-24T11:48:14Z</time>
      </trkpt>
      <trkpt lat="45.07209" lon="4.12617">
        <ele>1267</ele>
        <time>2016-07-24T11:48:26Z</time>
      </trkpt>
      <trkpt lat="45.07214" lon="4.12618">
        <ele>1267</ele>
        <time>2016-07-24T11:48:30Z</time>
      </trkpt>
      <trkpt lat="45.07227" lon="4.1263">
        <ele>1267</ele>
        <time>2016-07-24T11:48:41Z</time>
      </trkpt>
      <trkpt lat="45.07239" lon="4.12651">
        <ele>1266</ele>
        <time>2016-07-24T11:48:55Z</time>
      </trkpt>
      <trkpt lat="45.0725" lon="4.12667">
        <ele>1265</ele>
        <time>2016-07-24T11:49:10Z</time>
      </trkpt>
      <trkpt lat="45.07256" lon="4.12689">
        <ele>1260</ele>
        <time>2016-07-24T11:49:25Z</time>
      </trkpt>
      <trkpt lat="45.07266" lon="4.12708">
        <ele>1258</ele>
        <time>2016-07-24T11:49:38Z</time>
      </trkpt>
      <trkpt lat="45.07274" lon="4.12726">
        <ele>1257</ele>
        <time>2016-07-24T11:49:51Z</time>
      </trkpt>
      <trkpt lat="45.0728" lon="4.12745">
        <ele>1257</ele>
        <time>2016-07-24T11:49:59Z</time>
      </trkpt>
      <trkpt lat="45.07285" lon="4.12756">
        <ele>1253</ele>
        <time>2016-07-24T11:50:06Z</time>
      </trkpt>
      <trkpt lat="45.07291" lon="4.12773">
        <ele>1253</ele>
        <time>2016-07-24T11:50:19Z</time>
      </trkpt>
      <trkpt lat="45.07295" lon="4.12787">
        <ele>1252</ele>
        <time>2016-07-24T11:50:27Z</time>
      </trkpt>
      <trkpt lat="45.07306" lon="4.12804">
        <ele>1251</ele>
        <time>2016-07-24T11:50:38Z</time>
      </trkpt>
      <trkpt lat="45.07307" lon="4.12812">
        <ele>1251</ele>
        <time>2016-07-24T11:50:42Z</time>
      </trkpt>
      <trkpt lat="45.07309" lon="4.12818">
        <ele>1250</ele>
        <time>2016-07-24T11:50:46Z</time>
      </trkpt>
      <trkpt lat="45.07309" lon="4.12832">
        <ele>1250</ele>
        <time>2016-07-24T11:50:56Z</time>
      </trkpt>
      <trkpt lat="45.07305" lon="4.12837">
        <ele>1251</ele>
        <time>2016-07-24T11:51:01Z</time>
      </trkpt>
      <trkpt lat="45.07304" lon="4.1284">
        <ele>1251</ele>
        <time>2016-07-24T11:51:03Z</time>
      </trkpt>
      <trkpt lat="45.0729" lon="4.12854">
        <ele>1253</ele>
        <time>2016-07-24T11:51:18Z</time>
      </trkpt>
      <trkpt lat="45.07274" lon="4.12871">
        <ele>1254</ele>
        <time>2016-07-24T11:51:34Z</time>
      </trkpt>
      <trkpt lat="45.07267" lon="4.12875">
        <ele>1254</ele>
        <time>2016-07-24T11:51:47Z</time>
      </trkpt>
      <trkpt lat="45.07267" lon="4.12875">
        <ele>1254</ele>
        <time>2016-07-24T11:51:56Z</time>
      </trkpt>
      <trkpt lat="45.07264" lon="4.12878">
        <ele>1254</ele>
        <time>2016-07-24T11:52:00Z</time>
      </trkpt>
      <trkpt lat="45.0726" lon="4.12878">
        <ele>1255</ele>
        <time>2016-07-24T11:52:03Z</time>
      </trkpt>
      <trkpt lat="45.0725" lon="4.12882">
        <ele>1260</ele>
        <time>2016-07-24T11:52:14Z</time>
      </trkpt>
      <trkpt lat="45.07245" lon="4.12882">
        <ele>1260</ele>
        <time>2016-07-24T11:52:21Z</time>
      </trkpt>
      <trkpt lat="45.07238" lon="4.12881">
        <ele>1260</ele>
        <time>2016-07-24T11:52:26Z</time>
      </trkpt>
      <trkpt lat="45.07236" lon="4.12883">
        <ele>1260</ele>
        <time>2016-07-24T11:52:28Z</time>
      </trkpt>
      <trkpt lat="45.07223" lon="4.12889">
        <ele>1261</ele>
        <time>2016-07-24T11:52:42Z</time>
      </trkpt>
      <trkpt lat="45.07211" lon="4.12899">
        <ele>1261</ele>
        <time>2016-07-24T11:52:56Z</time>
      </trkpt>
      <trkpt lat="45.07198" lon="4.12902">
        <ele>1262</ele>
        <time>2016-07-24T11:53:09Z</time>
      </trkpt>
      <trkpt lat="45.07189" lon="4.12899">
        <ele>1262</ele>
        <time>2016-07-24T11:53:21Z</time>
      </trkpt>
      <trkpt lat="45.07184" lon="4.12898">
        <ele>1262</ele>
        <time>2016-07-24T11:53:32Z</time>
      </trkpt>
      <trkpt lat="45.07174" lon="4.12904">
        <ele>1263</ele>
        <time>2016-07-24T11:53:44Z</time>
      </trkpt>
      <trkpt lat="45.07154" lon="4.12912">
        <ele>1267</ele>
        <time>2016-07-24T11:53:57Z</time>
      </trkpt>
      <trkpt lat="45.07146" lon="4.12922">
        <ele>1269</ele>
        <time>2016-07-24T11:54:10Z</time>
      </trkpt>
      <trkpt lat="45.07133" lon="4.12925">
        <ele>1270</ele>
        <time>2016-07-24T11:54:21Z</time>
      </trkpt>
      <trkpt lat="45.07128" lon="4.12924">
        <ele>1271</ele>
        <time>2016-07-24T11:54:25Z</time>
      </trkpt>
      <trkpt lat="45.07109" lon="4.12929">
        <ele>1272</ele>
        <time>2016-07-24T11:54:40Z</time>
      </trkpt>
      <trkpt lat="45.07096" lon="4.12933">
        <ele>1273</ele>
        <time>2016-07-24T11:54:53Z</time>
      </trkpt>
      <trkpt lat="45.07095" lon="4.12933">
        <ele>1273</ele>
        <time>2016-07-24T11:54:54Z</time>
      </trkpt>
      <trkpt lat="45.07092" lon="4.12934">
        <ele>1273</ele>
        <time>2016-07-24T11:54:57Z</time>
      </trkpt>
      <trkpt lat="45.07076" lon="4.12936">
        <ele>1278</ele>
        <time>2016-07-24T11:55:11Z</time>
      </trkpt>
      <trkpt lat="45.07069" lon="4.12938">
        <ele>1278</ele>
        <time>2016-07-24T11:55:17Z</time>
      </trkpt>
      <trkpt lat="45.07049" lon="4.12939">
        <ele>1279</ele>
        <time>2016-07-24T11:55:31Z</time>
      </trkpt>
      <trkpt lat="45.07035" lon="4.1294">
        <ele>1280</ele>
        <time>2016-07-24T11:55:44Z</time>
      </trkpt>
      <trkpt lat="45.07026" lon="4.12938">
        <ele>1280</ele>
        <time>2016-07-24T11:55:56Z</time>
      </trkpt>
      <trkpt lat="45.07013" lon="4.12937">
        <ele>1281</ele>
        <time>2016-07-24T11:56:05Z</time>
      </trkpt>
      <trkpt lat="45.06989" lon="4.12939">
        <ele>1285</ele>
        <time>2016-07-24T11:56:21Z</time>
      </trkpt>
      <trkpt lat="45.0697" lon="4.1294">
        <ele>1286</ele>
        <time>2016-07-24T11:56:35Z</time>
      </trkpt>
      <trkpt lat="45.06951" lon="4.12943">
        <ele>1287</ele>
        <time>2016-07-24T11:56:52Z</time>
      </trkpt>
      <trkpt lat="45.06949" lon="4.12943">
        <ele>1287</ele>
        <time>2016-07-24T11:56:53Z</time>
      </trkpt>
      <trkpt lat="45.06933" lon="4.1295">
        <ele>1288</ele>
        <time>2016-07-24T11:57:07Z</time>
      </trkpt>
      <trkpt lat="45.06933" lon="4.1295">
        <ele>1288</ele>
        <time>2016-07-24T11:57:08Z</time>
      </trkpt>
      <trkpt lat="45.06918" lon="4.12955">
        <ele>1288</ele>
        <time>2016-07-24T11:57:21Z</time>
      </trkpt>
      <trkpt lat="45.06898" lon="4.12959">
        <ele>1291</ele>
        <time>2016-07-24T11:57:36Z</time>
      </trkpt>
      <trkpt lat="45.06888" lon="4.12961">
        <ele>1291</ele>
        <time>2016-07-24T11:57:50Z</time>
      </trkpt>
      <trkpt lat="45.06886" lon="4.1296">
        <ele>1291</ele>
        <time>2016-07-24T11:57:54Z</time>
      </trkpt>
      <trkpt lat="45.06872" lon="4.12966">
        <ele>1292</ele>
        <time>2016-07-24T11:58:06Z</time>
      </trkpt>
      <trkpt lat="45.06865" lon="4.12966">
        <ele>1292</ele>
        <time>2016-07-24T11:58:10Z</time>
      </trkpt>
      <trkpt lat="45.06852" lon="4.12972">
        <ele>1292</ele>
        <time>2016-07-24T11:58:23Z</time>
      </trkpt>
      <trkpt lat="45.06841" lon="4.12988">
        <ele>1294</ele>
        <time>2016-07-24T11:58:35Z</time>
      </trkpt>
      <trkpt lat="45.06839" lon="4.12988">
        <ele>1295</ele>
        <time>2016-07-24T11:58:37Z</time>
      </trkpt>
      <trkpt lat="45.06821" lon="4.13">
        <ele>1294</ele>
        <time>2016-07-24T11:58:53Z</time>
      </trkpt>
      <trkpt lat="45.06812" lon="4.13005">
        <ele>1297</ele>
        <time>2016-07-24T11:59:05Z</time>
      </trkpt>
      <trkpt lat="45.06805" lon="4.13011">
        <ele>1297</ele>
        <time>2016-07-24T11:59:19Z</time>
      </trkpt>
      <trkpt lat="45.06799" lon="4.13015">
        <ele>1297</ele>
        <time>2016-07-24T11:59:32Z</time>
      </trkpt>
      <trkpt lat="45.06793" lon="4.13016">
        <ele>1296</ele>
        <time>2016-07-24T11:59:38Z</time>
      </trkpt>
      <trkpt lat="45.06779" lon="4.13018">
        <ele>1296</ele>
        <time>2016-07-24T11:59:52Z</time>
      </trkpt>
      <trkpt lat="45.0677" lon="4.13024">
        <ele>1296</ele>
        <time>2016-07-24T12:00:00Z</time>
      </trkpt>
      <trkpt lat="45.06762" lon="4.13027">
        <ele>1296</ele>
        <time>2016-07-24T12:00:06Z</time>
      </trkpt>
      <trkpt lat="45.06755" lon="4.1303">
        <ele>1296</ele>
        <time>2016-07-24T12:00:13Z</time>
      </trkpt>
      <trkpt lat="45.06747" lon="4.13031">
        <ele>1293</ele>
        <time>2016-07-24T12:00:19Z</time>
      </trkpt>
      <trkpt lat="45.06729" lon="4.13036">
        <ele>1293</ele>
        <time>2016-07-24T12:00:32Z</time>
      </trkpt>
      <trkpt lat="45.0671" lon="4.1304">
        <ele>1292</ele>
        <time>2016-07-24T12:00:46Z</time>
      </trkpt>
      <trkpt lat="45.06693" lon="4.13049">
        <ele>1292</ele>
        <time>2016-07-24T12:01:01Z</time>
      </trkpt>
      <trkpt lat="45.06681" lon="4.13058">
        <ele>1292</ele>
        <time>2016-07-24T12:01:13Z</time>
      </trkpt>
      <trkpt lat="45.06665" lon="4.13067">
        <ele>1291</ele>
        <time>2016-07-24T12:01:26Z</time>
      </trkpt>
      <trkpt lat="45.06656" lon="4.1307">
        <ele>1291</ele>
        <time>2016-07-24T12:01:33Z</time>
      </trkpt>
      <trkpt lat="45.06643" lon="4.1308">
        <ele>1290</ele>
        <time>2016-07-24T12:01:44Z</time>
      </trkpt>
      <trkpt lat="45.06637" lon="4.13085">
        <ele>1294</ele>
        <time>2016-07-24T12:01:49Z</time>
      </trkpt>
      <trkpt lat="45.06626" lon="4.13085">
        <ele>1294</ele>
        <time>2016-07-24T12:01:56Z</time>
      </trkpt>
      <trkpt lat="45.0661" lon="4.13093">
        <ele>1294</ele>
        <time>2016-07-24T12:02:10Z</time>
      </trkpt>
      <trkpt lat="45.06604" lon="4.13096">
        <ele>1293</ele>
        <time>2016-07-24T12:02:15Z</time>
      </trkpt>
      <trkpt lat="45.06597" lon="4.13102">
        <ele>1293</ele>
        <time>2016-07-24T12:02:26Z</time>
      </trkpt>
      <trkpt lat="45.06592" lon="4.13107">
        <ele>1294</ele>
        <time>2016-07-24T12:02:39Z</time>
      </trkpt>
      <trkpt lat="45.06577" lon="4.13112">
        <ele>1291</ele>
        <time>2016-07-24T12:02:52Z</time>
      </trkpt>
      <trkpt lat="45.06559" lon="4.13118">
        <ele>1291</ele>
        <time>2016-07-24T12:03:06Z</time>
      </trkpt>
      <trkpt lat="45.06538" lon="4.13126">
        <ele>1290</ele>
        <time>2016-07-24T12:03:21Z</time>
      </trkpt>
      <trkpt lat="45.06518" lon="4.13136">
        <ele>1290</ele>
        <time>2016-07-24T12:03:37Z</time>
      </trkpt>
      <trkpt lat="45.06512" lon="4.13139">
        <ele>1290</ele>
        <time>2016-07-24T12:03:42Z</time>
      </trkpt>
      <trkpt lat="45.06509" lon="4.13142">
        <ele>1290</ele>
        <time>2016-07-24T12:03:45Z</time>
      </trkpt>
      <trkpt lat="45.06495" lon="4.13149">
        <ele>1288</ele>
        <time>2016-07-24T12:04:00Z</time>
      </trkpt>
      <trkpt lat="45.06485" lon="4.13161">
        <ele>1288</ele>
        <time>2016-07-24T12:04:14Z</time>
      </trkpt>
      <trkpt lat="45.06477" lon="4.13164">
        <ele>1288</ele>
        <time>2016-07-24T12:04:22Z</time>
      </trkpt>
      <trkpt lat="45.06462" lon="4.13173">
        <ele>1290</ele>
        <time>2016-07-24T12:04:36Z</time>
      </trkpt>
      <trkpt lat="45.06448" lon="4.13178">
        <ele>1290</ele>
        <time>2016-07-24T12:04:48Z</time>
      </trkpt>
      <trkpt lat="45.06446" lon="4.1318">
        <ele>1290</ele>
        <time>2016-07-24T12:04:50Z</time>
      </trkpt>
      <trkpt lat="45.06432" lon="4.13178">
        <ele>1289</ele>
        <time>2016-07-24T12:04:57Z</time>
      </trkpt>
      <trkpt lat="45.0643" lon="4.13179">
        <ele>1289</ele>
        <time>2016-07-24T12:04:59Z</time>
      </trkpt>
      <trkpt lat="45.06416" lon="4.13182">
        <ele>1288</ele>
        <time>2016-07-24T12:05:13Z</time>
      </trkpt>
      <trkpt lat="45.06411" lon="4.13186">
        <ele>1289</ele>
        <time>2016-07-24T12:05:23Z</time>
      </trkpt>
      <trkpt lat="45.06404" lon="4.13189">
        <ele>1289</ele>
        <time>2016-07-24T12:05:30Z</time>
      </trkpt>
      <trkpt lat="45.06392" lon="4.13197">
        <ele>1290</ele>
        <time>2016-07-24T12:05:40Z</time>
      </trkpt>
      <trkpt lat="45.0638" lon="4.13201">
        <ele>1290</ele>
        <time>2016-07-24T12:05:53Z</time>
      </trkpt>
      <trkpt lat="45.06365" lon="4.13206">
        <ele>1290</ele>
        <time>2016-07-24T12:06:04Z</time>
      </trkpt>
      <trkpt lat="45.06357" lon="4.1321">
        <ele>1291</ele>
        <time>2016-07-24T12:06:16Z</time>
      </trkpt>
      <trkpt lat="45.06355" lon="4.13211">
        <ele>1291</ele>
        <time>2016-07-24T12:06:21Z</time>
      </trkpt>
      <trkpt lat="45.06352" lon="4.13214">
        <ele>1291</ele>
        <time>2016-07-24T12:06:25Z</time>
      </trkpt>
      <trkpt lat="45.06349" lon="4.13215">
        <ele>1291</ele>
        <time>2016-07-24T12:06:28Z</time>
      </trkpt>
      <trkpt lat="45.06332" lon="4.13218">
        <ele>1294</ele>
        <time>2016-07-24T12:06:41Z</time>
      </trkpt>
      <trkpt lat="45.06331" lon="4.13219">
        <ele>1294</ele>
        <time>2016-07-24T12:06:42Z</time>
      </trkpt>
      <trkpt lat="45.06328" lon="4.13224">
        <ele>1294</ele>
        <time>2016-07-24T12:06:47Z</time>
      </trkpt>
      <trkpt lat="45.06312" lon="4.13232">
        <ele>1294</ele>
        <time>2016-07-24T12:07:01Z</time>
      </trkpt>
      <trkpt lat="45.06304" lon="4.13237">
        <ele>1295</ele>
        <time>2016-07-24T12:07:09Z</time>
      </trkpt>
      <trkpt lat="45.06287" lon="4.13244">
        <ele>1295</ele>
        <time>2016-07-24T12:07:23Z</time>
      </trkpt>
      <trkpt lat="45.06279" lon="4.13247">
        <ele>1296</ele>
        <time>2016-07-24T12:07:28Z</time>
      </trkpt>
      <trkpt lat="45.06268" lon="4.13251">
        <ele>1299</ele>
        <time>2016-07-24T12:07:37Z</time>
      </trkpt>
      <trkpt lat="45.06267" lon="4.13253">
        <ele>1299</ele>
        <time>2016-07-24T12:07:39Z</time>
      </trkpt>
      <trkpt lat="45.0625" lon="4.13264">
        <ele>1302</ele>
        <time>2016-07-24T12:07:56Z</time>
      </trkpt>
      <trkpt lat="45.06232" lon="4.13271">
        <ele>1304</ele>
        <time>2016-07-24T12:08:10Z</time>
      </trkpt>
      <trkpt lat="45.06229" lon="4.13271">
        <ele>1304</ele>
        <time>2016-07-24T12:08:12Z</time>
      </trkpt>
      <trkpt lat="45.06211" lon="4.13279">
        <ele>1305</ele>
        <time>2016-07-24T12:08:27Z</time>
      </trkpt>
      <trkpt lat="45.062" lon="4.13284">
        <ele>1306</ele>
        <time>2016-07-24T12:08:37Z</time>
      </trkpt>
      <trkpt lat="45.06196" lon="4.13287">
        <ele>1306</ele>
        <time>2016-07-24T12:08:41Z</time>
      </trkpt>
      <trkpt lat="45.06179" lon="4.13295">
        <ele>1307</ele>
        <time>2016-07-24T12:08:57Z</time>
      </trkpt>
      <trkpt lat="45.06166" lon="4.13303">
        <ele>1312</ele>
        <time>2016-07-24T12:09:09Z</time>
      </trkpt>
      <trkpt lat="45.06153" lon="4.1331">
        <ele>1312</ele>
        <time>2016-07-24T12:09:20Z</time>
      </trkpt>
      <trkpt lat="45.06136" lon="4.13314">
        <ele>1313</ele>
        <time>2016-07-24T12:09:35Z</time>
      </trkpt>
      <trkpt lat="45.06124" lon="4.13317">
        <ele>1314</ele>
        <time>2016-07-24T12:09:49Z</time>
      </trkpt>
      <trkpt lat="45.06121" lon="4.1332">
        <ele>1314</ele>
        <time>2016-07-24T12:09:52Z</time>
      </trkpt>
      <trkpt lat="45.06104" lon="4.13328">
        <ele>1315</ele>
        <time>2016-07-24T12:10:07Z</time>
      </trkpt>
      <trkpt lat="45.06095" lon="4.13334">
        <ele>1317</ele>
        <time>2016-07-24T12:10:19Z</time>
      </trkpt>
      <trkpt lat="45.06075" lon="4.13342">
        <ele>1320</ele>
        <time>2016-07-24T12:10:33Z</time>
      </trkpt>
      <trkpt lat="45.06062" lon="4.13348">
        <ele>1322</ele>
        <time>2016-07-24T12:10:45Z</time>
      </trkpt>
      <trkpt lat="45.06059" lon="4.13344">
        <ele>1322</ele>
        <time>2016-07-24T12:10:55Z</time>
      </trkpt>
      <trkpt lat="45.06058" lon="4.13342">
        <ele>1322</ele>
        <time>2016-07-24T12:10:57Z</time>
      </trkpt>
      <trkpt lat="45.06054" lon="4.13322">
        <ele>1321</ele>
        <time>2016-07-24T12:11:12Z</time>
      </trkpt>
      <trkpt lat="45.06053" lon="4.13319">
        <ele>1321</ele>
        <time>2016-07-24T12:11:14Z</time>
      </trkpt>
      <trkpt lat="45.06035" lon="4.13304">
        <ele>1323</ele>
        <time>2016-07-24T12:11:30Z</time>
      </trkpt>
      <trkpt lat="45.06028" lon="4.13299">
        <ele>1323</ele>
        <time>2016-07-24T12:11:35Z</time>
      </trkpt>
      <trkpt lat="45.06015" lon="4.13285">
        <ele>1323</ele>
        <time>2016-07-24T12:11:49Z</time>
      </trkpt>
      <trkpt lat="45.05998" lon="4.13269">
        <ele>1327</ele>
        <time>2016-07-24T12:12:05Z</time>
      </trkpt>
      <trkpt lat="45.05982" lon="4.13258">
        <ele>1327</ele>
        <time>2016-07-24T12:12:22Z</time>
      </trkpt>
      <trkpt lat="45.05968" lon="4.13246">
        <ele>1326</ele>
        <time>2016-07-24T12:12:36Z</time>
      </trkpt>
      <trkpt lat="45.05954" lon="4.13235">
        <ele>1326</ele>
        <time>2016-07-24T12:12:51Z</time>
      </trkpt>
      <trkpt lat="45.05941" lon="4.13225">
        <ele>1327</ele>
        <time>2016-07-24T12:13:05Z</time>
      </trkpt>
      <trkpt lat="45.05939" lon="4.13224">
        <ele>1327</ele>
        <time>2016-07-24T12:13:07Z</time>
      </trkpt>
      <trkpt lat="45.0592" lon="4.13216">
        <ele>1327</ele>
        <time>2016-07-24T12:13:22Z</time>
      </trkpt>
      <trkpt lat="45.05902" lon="4.13208">
        <ele>1334</ele>
        <time>2016-07-24T12:13:38Z</time>
      </trkpt>
      <trkpt lat="45.0589" lon="4.13204">
        <ele>1334</ele>
        <time>2016-07-24T12:13:48Z</time>
      </trkpt>
      <trkpt lat="45.05873" lon="4.13199">
        <ele>1335</ele>
        <time>2016-07-24T12:14:04Z</time>
      </trkpt>
      <trkpt lat="45.05855" lon="4.13194">
        <ele>1337</ele>
        <time>2016-07-24T12:14:20Z</time>
      </trkpt>
      <trkpt lat="45.05846" lon="4.13189">
        <ele>1337</ele>
        <time>2016-07-24T12:14:33Z</time>
      </trkpt>
      <trkpt lat="45.05838" lon="4.13185">
        <ele>1338</ele>
        <time>2016-07-24T12:14:43Z</time>
      </trkpt>
      <trkpt lat="45.05832" lon="4.1318">
        <ele>1346</ele>
        <time>2016-07-24T12:14:48Z</time>
      </trkpt>
      <trkpt lat="45.05825" lon="4.13175">
        <ele>1345</ele>
        <time>2016-07-24T12:14:55Z</time>
      </trkpt>
      <trkpt lat="45.05814" lon="4.13164">
        <ele>1344</ele>
        <time>2016-07-24T12:15:09Z</time>
      </trkpt>
      <trkpt lat="45.05808" lon="4.13159">
        <ele>1346</ele>
        <time>2016-07-24T12:15:16Z</time>
      </trkpt>
      <trkpt lat="45.05801" lon="4.13152">
        <ele>1347</ele>
        <time>2016-07-24T12:15:24Z</time>
      </trkpt>
      <trkpt lat="45.05799" lon="4.13151">
        <ele>1347</ele>
        <time>2016-07-24T12:15:26Z</time>
      </trkpt>
      <trkpt lat="45.05797" lon="4.13147">
        <ele>1348</ele>
        <time>2016-07-24T12:15:29Z</time>
      </trkpt>
      <trkpt lat="45.05781" lon="4.13127">
        <ele>1349</ele>
        <time>2016-07-24T12:15:46Z</time>
      </trkpt>
      <trkpt lat="45.05769" lon="4.13112">
        <ele>1350</ele>
        <time>2016-07-24T12:16:00Z</time>
      </trkpt>
      <trkpt lat="45.05766" lon="4.13106">
        <ele>1351</ele>
        <time>2016-07-24T12:16:05Z</time>
      </trkpt>
      <trkpt lat="45.05755" lon="4.1309">
        <ele>1353</ele>
        <time>2016-07-24T12:16:19Z</time>
      </trkpt>
      <trkpt lat="45.05742" lon="4.13072">
        <ele>1356</ele>
        <time>2016-07-24T12:16:33Z</time>
      </trkpt>
      <trkpt lat="45.05734" lon="4.13061">
        <ele>1357</ele>
        <time>2016-07-24T12:16:41Z</time>
      </trkpt>
      <trkpt lat="45.05721" lon="4.13038">
        <ele>1357</ele>
        <time>2016-07-24T12:16:58Z</time>
      </trkpt>
      <trkpt lat="45.0571" lon="4.1302">
        <ele>1356</ele>
        <time>2016-07-24T12:17:11Z</time>
      </trkpt>
      <trkpt lat="45.05698" lon="4.13024">
        <ele>1358</ele>
        <time>2016-07-24T12:17:24Z</time>
      </trkpt>
      <trkpt lat="45.05697" lon="4.13026">
        <ele>1358</ele>
        <time>2016-07-24T12:17:26Z</time>
      </trkpt>
      <trkpt lat="45.05696" lon="4.13029">
        <ele>1359</ele>
        <time>2016-07-24T12:17:28Z</time>
      </trkpt>
      <trkpt lat="45.05693" lon="4.13037">
        <ele>1359</ele>
        <time>2016-07-24T12:17:43Z</time>
      </trkpt>
      <trkpt lat="45.05692" lon="4.13041">
        <ele>1360</ele>
        <time>2016-07-24T12:17:55Z</time>
      </trkpt>
      <trkpt lat="45.05691" lon="4.13047">
        <ele>1361</ele>
        <time>2016-07-24T12:18:07Z</time>
      </trkpt>
      <trkpt lat="45.05688" lon="4.13054">
        <ele>1362</ele>
        <time>2016-07-24T12:18:19Z</time>
      </trkpt>
      <trkpt lat="45.05686" lon="4.13063">
        <ele>1363</ele>
        <time>2016-07-24T12:18:31Z</time>
      </trkpt>
      <trkpt lat="45.05684" lon="4.13076">
        <ele>1366</ele>
        <time>2016-07-24T12:18:44Z</time>
      </trkpt>
      <trkpt lat="45.05682" lon="4.13083">
        <ele>1367</ele>
        <time>2016-07-24T12:18:55Z</time>
      </trkpt>
      <trkpt lat="45.05682" lon="4.13088">
        <ele>1372</ele>
        <time>2016-07-24T12:19:07Z</time>
      </trkpt>
      <trkpt lat="45.05681" lon="4.13089">
        <ele>1372</ele>
        <time>2016-07-24T12:19:28Z</time>
      </trkpt>
      <trkpt lat="45.0568" lon="4.1309">
        <ele>1372</ele>
        <time>2016-07-24T12:19:49Z</time>
      </trkpt>
      <trkpt lat="45.0568" lon="4.13091">
        <ele>1372</ele>
        <time>2016-07-24T12:20:00Z</time>
      </trkpt>
      <trkpt lat="45.0568" lon="4.13092">
        <ele>1372</ele>
        <time>2016-07-24T12:20:16Z</time>
      </trkpt>
      <trkpt lat="45.0568" lon="4.13092">
        <ele>1372</ele>
        <time>2016-07-24T12:20:40Z</time>
      </trkpt>
      <trkpt lat="45.0568" lon="4.13092">
        <ele>1372</ele>
        <time>2016-07-24T12:20:55Z</time>
      </trkpt>
      <trkpt lat="45.05678" lon="4.13103">
        <ele>1373</ele>
        <time>2016-07-24T12:21:07Z</time>
      </trkpt>
      <trkpt lat="45.05678" lon="4.13108">
        <ele>1373</ele>
        <time>2016-07-24T12:21:13Z</time>
      </trkpt>
      <trkpt lat="45.05677" lon="4.1311">
        <ele>1373</ele>
        <time>2016-07-24T12:21:15Z</time>
      </trkpt>
      <trkpt lat="45.05677" lon="4.13119">
        <ele>1374</ele>
        <time>2016-07-24T12:21:22Z</time>
      </trkpt>
      <trkpt lat="45.05675" lon="4.13131">
        <ele>1375</ele>
        <time>2016-07-24T12:21:33Z</time>
      </trkpt>
      <trkpt lat="45.0567" lon="4.13147">
        <ele>1380</ele>
        <time>2016-07-24T12:21:45Z</time>
      </trkpt>
      <trkpt lat="45.05668" lon="4.13156">
        <ele>1384</ele>
        <time>2016-07-24T12:21:53Z</time>
      </trkpt>
      <trkpt lat="45.05662" lon="4.13167">
        <ele>1392</ele>
        <time>2016-07-24T12:22:03Z</time>
      </trkpt>
      <trkpt lat="45.05661" lon="4.13179">
        <ele>1395</ele>
        <time>2016-07-24T12:22:16Z</time>
      </trkpt>
      <trkpt lat="45.0566" lon="4.1318">
        <ele>1395</ele>
        <time>2016-07-24T12:22:20Z</time>
      </trkpt>
      <trkpt lat="45.0566" lon="4.13182">
        <ele>1396</ele>
        <time>2016-07-24T12:22:22Z</time>
      </trkpt>
      <trkpt lat="45.05659" lon="4.13195">
        <ele>1398</ele>
        <time>2016-07-24T12:22:32Z</time>
      </trkpt>
      <trkpt lat="45.05659" lon="4.13198">
        <ele>1398</ele>
        <time>2016-07-24T12:22:34Z</time>
      </trkpt>
      <trkpt lat="45.0566" lon="4.13202">
        <ele>1399</ele>
        <time>2016-07-24T12:22:37Z</time>
      </trkpt>
      <trkpt lat="45.05664" lon="4.13215">
        <ele>1400</ele>
        <time>2016-07-24T12:22:50Z</time>
      </trkpt>
      <trkpt lat="45.05665" lon="4.13216">
        <ele>1400</ele>
        <time>2016-07-24T12:22:51Z</time>
      </trkpt>
      <trkpt lat="45.05665" lon="4.13219">
        <ele>1400</ele>
        <time>2016-07-24T12:22:53Z</time>
      </trkpt>
      <trkpt lat="45.05666" lon="4.13223">
        <ele>1400</ele>
        <time>2016-07-24T12:22:56Z</time>
      </trkpt>
      <trkpt lat="45.05667" lon="4.13229">
        <ele>1391</ele>
        <time>2016-07-24T12:23:00Z</time>
      </trkpt>
      <trkpt lat="45.05667" lon="4.1324">
        <ele>1395</ele>
        <time>2016-07-24T12:23:08Z</time>
      </trkpt>
      <trkpt lat="45.05669" lon="4.13255">
        <ele>1399</ele>
        <time>2016-07-24T12:23:20Z</time>
      </trkpt>
      <trkpt lat="45.05669" lon="4.13258">
        <ele>1399</ele>
        <time>2016-07-24T12:23:24Z</time>
      </trkpt>
      <trkpt lat="45.05662" lon="4.13268">
        <ele>1403</ele>
        <time>2016-07-24T12:23:37Z</time>
      </trkpt>
      <trkpt lat="45.05667" lon="4.13279">
        <ele>1396</ele>
        <time>2016-07-24T12:23:51Z</time>
      </trkpt>
      <trkpt lat="45.05662" lon="4.13286">
        <ele>1404</ele>
        <time>2016-07-24T12:24:02Z</time>
      </trkpt>
      <trkpt lat="45.05656" lon="4.13299">
        <ele>1405</ele>
        <time>2016-07-24T12:24:16Z</time>
      </trkpt>
      <trkpt lat="45.05646" lon="4.13309">
        <ele>1405</ele>
        <time>2016-07-24T12:24:30Z</time>
      </trkpt>
      <trkpt lat="45.05641" lon="4.13313">
        <ele>1405</ele>
        <time>2016-07-24T12:24:42Z</time>
      </trkpt>
      <trkpt lat="45.05634" lon="4.13311">
        <ele>1405</ele>
        <time>2016-07-24T12:24:54Z</time>
      </trkpt>
      <trkpt lat="45.0563" lon="4.13312">
        <ele>1405</ele>
        <time>2016-07-24T12:24:59Z</time>
      </trkpt>
      <trkpt lat="45.05614" lon="4.13317">
        <ele>1405</ele>
        <time>2016-07-24T12:25:14Z</time>
      </trkpt>
      <trkpt lat="45.05613" lon="4.13317">
        <ele>1405</ele>
        <time>2016-07-24T12:25:15Z</time>
      </trkpt>
      <trkpt lat="45.05611" lon="4.13317">
        <ele>1405</ele>
        <time>2016-07-24T12:25:18Z</time>
      </trkpt>
      <trkpt lat="45.05605" lon="4.13319">
        <ele>1405</ele>
        <time>2016-07-24T12:25:24Z</time>
      </trkpt>
      <trkpt lat="45.05603" lon="4.1333">
        <ele>1405</ele>
        <time>2016-07-24T12:25:37Z</time>
      </trkpt>
      <trkpt lat="45.05603" lon="4.13331">
        <ele>1405</ele>
        <time>2016-07-24T12:26:04Z</time>
      </trkpt>
      <trkpt lat="45.05603" lon="4.13332">
        <ele>1405</ele>
        <time>2016-07-24T12:26:28Z</time>
      </trkpt>
      <trkpt lat="45.05603" lon="4.1333">
        <ele>1405</ele>
        <time>2016-07-24T12:26:37Z</time>
      </trkpt>
      <trkpt lat="45.05603" lon="4.13323">
        <ele>1405</ele>
        <time>2016-07-24T12:26:41Z</time>
      </trkpt>
      <trkpt lat="45.05597" lon="4.1332">
        <ele>1405</ele>
        <time>2016-07-24T12:26:45Z</time>
      </trkpt>
      <trkpt lat="45.05589" lon="4.13313">
        <ele>1405</ele>
        <time>2016-07-24T12:26:54Z</time>
      </trkpt>
      <trkpt lat="45.05583" lon="4.13309">
        <ele>1405</ele>
        <time>2016-07-24T12:27:06Z</time>
      </trkpt>
      <trkpt lat="45.05578" lon="4.13301">
        <ele>1405</ele>
        <time>2016-07-24T12:27:19Z</time>
      </trkpt>
      <trkpt lat="45.05566" lon="4.13295">
        <ele>1406</ele>
        <time>2016-07-24T12:27:28Z</time>
      </trkpt>
      <trkpt lat="45.05557" lon="4.13281">
        <ele>1406</ele>
        <time>2016-07-24T12:27:35Z</time>
      </trkpt>
      <trkpt lat="45.05553" lon="4.13277">
        <ele>1406</ele>
        <time>2016-07-24T12:27:39Z</time>
      </trkpt>
      <trkpt lat="45.0555" lon="4.13266">
        <ele>1406</ele>
        <time>2016-07-24T12:27:46Z</time>
      </trkpt>
      <trkpt lat="45.05549" lon="4.13247">
        <ele>1410</ele>
        <time>2016-07-24T12:28:00Z</time>
      </trkpt>
      <trkpt lat="45.05556" lon="4.13226">
        <ele>1410</ele>
        <time>2016-07-24T12:28:15Z</time>
      </trkpt>
      <trkpt lat="45.05555" lon="4.13213">
        <ele>1410</ele>
        <time>2016-07-24T12:28:28Z</time>
      </trkpt>
      <trkpt lat="45.05553" lon="4.13202">
        <ele>1411</ele>
        <time>2016-07-24T12:28:41Z</time>
      </trkpt>
      <trkpt lat="45.05549" lon="4.13191">
        <ele>1411</ele>
        <time>2016-07-24T12:28:54Z</time>
      </trkpt>
      <trkpt lat="45.05544" lon="4.13187">
        <ele>1412</ele>
        <time>2016-07-24T12:29:05Z</time>
      </trkpt>
      <trkpt lat="45.05539" lon="4.13182">
        <ele>1412</ele>
        <time>2016-07-24T12:29:16Z</time>
      </trkpt>
      <trkpt lat="45.0553" lon="4.13176">
        <ele>1413</ele>
        <time>2016-07-24T12:29:27Z</time>
      </trkpt>
      <trkpt lat="45.05525" lon="4.13174">
        <ele>1414</ele>
        <time>2016-07-24T12:29:37Z</time>
      </trkpt>
      <trkpt lat="45.05525" lon="4.13174">
        <ele>1414</ele>
        <time>2016-07-24T12:29:39Z</time>
      </trkpt>
      <trkpt lat="45.05522" lon="4.1317">
        <ele>1414</ele>
        <time>2016-07-24T12:29:44Z</time>
      </trkpt>
      <trkpt lat="45.05522" lon="4.13163">
        <ele>1415</ele>
        <time>2016-07-24T12:29:50Z</time>
      </trkpt>
      <trkpt lat="45.05514" lon="4.13161">
        <ele>1416</ele>
        <time>2016-07-24T12:30:03Z</time>
      </trkpt>
      <trkpt lat="45.0551" lon="4.1316">
        <ele>1417</ele>
        <time>2016-07-24T12:30:13Z</time>
      </trkpt>
      <trkpt lat="45.05508" lon="4.13159">
        <ele>1417</ele>
        <time>2016-07-24T12:30:26Z</time>
      </trkpt>
      <trkpt lat="45.05509" lon="4.13153">
        <ele>1416</ele>
        <time>2016-07-24T12:30:34Z</time>
      </trkpt>
      <trkpt lat="45.0551" lon="4.13145">
        <ele>1415</ele>
        <time>2016-07-24T12:30:47Z</time>
      </trkpt>
      <trkpt lat="45.0551" lon="4.13145">
        <ele>1415</ele>
        <time>2016-07-24T12:30:55Z</time>
      </trkpt>
      <trkpt lat="45.0551" lon="4.13145">
        <ele>1415</ele>
        <time>2016-07-24T12:31:07Z</time>
      </trkpt>
      <trkpt lat="45.0551" lon="4.13145">
        <ele>1415</ele>
        <time>2016-07-24T12:31:26Z</time>
      </trkpt>
      <trkpt lat="45.0551" lon="4.13146">
        <ele>1415</ele>
        <time>2016-07-24T12:32:10Z</time>
      </trkpt>
      <trkpt lat="45.0551" lon="4.13145">
        <ele>1415</ele>
        <time>2016-07-24T12:32:33Z</time>
      </trkpt>
      <trkpt lat="45.0551" lon="4.13145">
        <ele>1415</ele>
        <time>2016-07-24T12:32:58Z</time>
      </trkpt>
      <trkpt lat="45.05511" lon="4.13145">
        <ele>1415</ele>
        <time>2016-07-24T12:33:33Z</time>
      </trkpt>
      <trkpt lat="45.05511" lon="4.13145">
        <ele>1415</ele>
        <time>2016-07-24T12:34:03Z</time>
      </trkpt>
      <trkpt lat="45.05511" lon="4.13145">
        <ele>1415</ele>
        <time>2016-07-24T12:34:33Z</time>
      </trkpt>
      <trkpt lat="45.05511" lon="4.13145">
        <ele>1415</ele>
        <time>2016-07-24T12:34:57Z</time>
      </trkpt>
      <trkpt lat="45.05511" lon="4.13145">
        <ele>1415</ele>
        <time>2016-07-24T12:35:34Z</time>
      </trkpt>
      <trkpt lat="45.05511" lon="4.13144">
        <ele>1415</ele>
        <time>2016-07-24T12:36:08Z</time>
      </trkpt>
      <trkpt lat="45.05511" lon="4.13143">
        <ele>1415</ele>
        <time>2016-07-24T12:36:41Z</time>
      </trkpt>
      <trkpt lat="45.05511" lon="4.13143">
        <ele>1415</ele>
        <time>2016-07-24T12:37:11Z</time>
      </trkpt>
      <trkpt lat="45.05511" lon="4.13144">
        <ele>1415</ele>
        <time>2016-07-24T12:37:41Z</time>
      </trkpt>
      <trkpt lat="45.0551" lon="4.13145">
        <ele>1415</ele>
        <time>2016-07-24T12:38:21Z</time>
      </trkpt>
      <trkpt lat="45.05511" lon="4.13144">
        <ele>1415</ele>
        <time>2016-07-24T12:38:53Z</time>
      </trkpt>
      <trkpt lat="45.05511" lon="4.13145">
        <ele>1415</ele>
        <time>2016-07-24T12:39:30Z</time>
      </trkpt>
      <trkpt lat="45.05511" lon="4.13145">
        <ele>1415</ele>
        <time>2016-07-24T12:39:44Z</time>
      </trkpt>
      <trkpt lat="45.05511" lon="4.13144">
        <ele>1415</ele>
        <time>2016-07-24T12:40:02Z</time>
      </trkpt>
      <trkpt lat="45.0551" lon="4.13139">
        <ele>1414</ele>
        <time>2016-07-24T12:40:14Z</time>
      </trkpt>
      <trkpt lat="45.0551" lon="4.13136">
        <ele>1414</ele>
        <time>2016-07-24T12:40:17Z</time>
      </trkpt>
      <trkpt lat="45.05507" lon="4.13131">
        <ele>1414</ele>
        <time>2016-07-24T12:40:30Z</time>
      </trkpt>
      <trkpt lat="45.05506" lon="4.1313">
        <ele>1414</ele>
        <time>2016-07-24T12:40:33Z</time>
      </trkpt>
      <trkpt lat="45.05502" lon="4.13128">
        <ele>1414</ele>
        <time>2016-07-24T12:40:37Z</time>
      </trkpt>
      <trkpt lat="45.055" lon="4.1313">
        <ele>1415</ele>
        <time>2016-07-24T12:40:39Z</time>
      </trkpt>
      <trkpt lat="45.05491" lon="4.13131">
        <ele>1416</ele>
        <time>2016-07-24T12:40:47Z</time>
      </trkpt>
      <trkpt lat="45.05487" lon="4.13141">
        <ele>1416</ele>
        <time>2016-07-24T12:40:57Z</time>
      </trkpt>
      <trkpt lat="45.05485" lon="4.13151">
        <ele>1416</ele>
        <time>2016-07-24T12:41:09Z</time>
      </trkpt>
      <trkpt lat="45.05479" lon="4.13153">
        <ele>1416</ele>
        <time>2016-07-24T12:41:18Z</time>
      </trkpt>
      <trkpt lat="45.05474" lon="4.13155">
        <ele>1415</ele>
        <time>2016-07-24T12:41:29Z</time>
      </trkpt>
      <trkpt lat="45.05474" lon="4.13168">
        <ele>1413</ele>
        <time>2016-07-24T12:41:42Z</time>
      </trkpt>
      <trkpt lat="45.05473" lon="4.13172">
        <ele>1412</ele>
        <time>2016-07-24T12:41:55Z</time>
      </trkpt>
      <trkpt lat="45.05471" lon="4.13175">
        <ele>1412</ele>
        <time>2016-07-24T12:42:13Z</time>
      </trkpt>
      <trkpt lat="45.0547" lon="4.13185">
        <ele>1411</ele>
        <time>2016-07-24T12:42:21Z</time>
      </trkpt>
      <trkpt lat="45.0547" lon="4.13194">
        <ele>1411</ele>
        <time>2016-07-24T12:42:26Z</time>
      </trkpt>
      <trkpt lat="45.05476" lon="4.13208">
        <ele>1410</ele>
        <time>2016-07-24T12:42:38Z</time>
      </trkpt>
      <trkpt lat="45.05477" lon="4.13219">
        <ele>1409</ele>
        <time>2016-07-24T12:42:51Z</time>
      </trkpt>
      <trkpt lat="45.05479" lon="4.13223">
        <ele>1409</ele>
        <time>2016-07-24T12:42:55Z</time>
      </trkpt>
      <trkpt lat="45.05485" lon="4.13235">
        <ele>1409</ele>
        <time>2016-07-24T12:43:03Z</time>
      </trkpt>
      <trkpt lat="45.05485" lon="4.13241">
        <ele>1409</ele>
        <time>2016-07-24T12:43:08Z</time>
      </trkpt>
      <trkpt lat="45.05479" lon="4.13254">
        <ele>1404</ele>
        <time>2016-07-24T12:43:18Z</time>
      </trkpt>
      <trkpt lat="45.05478" lon="4.13258">
        <ele>1404</ele>
        <time>2016-07-24T12:43:28Z</time>
      </trkpt>
      <trkpt lat="45.0547" lon="4.13265">
        <ele>1403</ele>
        <time>2016-07-24T12:43:40Z</time>
      </trkpt>
      <trkpt lat="45.05467" lon="4.13266">
        <ele>1402</ele>
        <time>2016-07-24T12:43:50Z</time>
      </trkpt>
      <trkpt lat="45.05467" lon="4.13266">
        <ele>1402</ele>
        <time>2016-07-24T12:44:01Z</time>
      </trkpt>
      <trkpt lat="45.05458" lon="4.13279">
        <ele>1401</ele>
        <time>2016-07-24T12:44:15Z</time>
      </trkpt>
      <trkpt lat="45.05454" lon="4.13284">
        <ele>1401</ele>
        <time>2016-07-24T12:44:20Z</time>
      </trkpt>
      <trkpt lat="45.05449" lon="4.13289">
        <ele>1400</ele>
        <time>2016-07-24T12:44:28Z</time>
      </trkpt>
      <trkpt lat="45.05439" lon="4.13302">
        <ele>1399</ele>
        <time>2016-07-24T12:44:43Z</time>
      </trkpt>
      <trkpt lat="45.05437" lon="4.13303">
        <ele>1399</ele>
        <time>2016-07-24T12:44:45Z</time>
      </trkpt>
      <trkpt lat="45.05425" lon="4.13305">
        <ele>1398</ele>
        <time>2016-07-24T12:44:57Z</time>
      </trkpt>
      <trkpt lat="45.05422" lon="4.13305">
        <ele>1398</ele>
        <time>2016-07-24T12:45:00Z</time>
      </trkpt>
      <trkpt lat="45.05419" lon="4.13306">
        <ele>1398</ele>
        <time>2016-07-24T12:45:03Z</time>
      </trkpt>
      <trkpt lat="45.05417" lon="4.13307">
        <ele>1397</ele>
        <time>2016-07-24T12:45:05Z</time>
      </trkpt>
      <trkpt lat="45.05413" lon="4.13306">
        <ele>1391</ele>
        <time>2016-07-24T12:45:09Z</time>
      </trkpt>
      <trkpt lat="45.05395" lon="4.13303">
        <ele>1390</ele>
        <time>2016-07-24T12:45:25Z</time>
      </trkpt>
      <trkpt lat="45.05393" lon="4.13303">
        <ele>1390</ele>
        <time>2016-07-24T12:45:27Z</time>
      </trkpt>
      <trkpt lat="45.05388" lon="4.13299">
        <ele>1389</ele>
        <time>2016-07-24T12:45:32Z</time>
      </trkpt>
      <trkpt lat="45.0537" lon="4.13299">
        <ele>1388</ele>
        <time>2016-07-24T12:45:47Z</time>
      </trkpt>
      <trkpt lat="45.05355" lon="4.13295">
        <ele>1387</ele>
        <time>2016-07-24T12:46:00Z</time>
      </trkpt>
      <trkpt lat="45.05346" lon="4.1329">
        <ele>1386</ele>
        <time>2016-07-24T12:46:07Z</time>
      </trkpt>
      <trkpt lat="45.05343" lon="4.13289">
        <ele>1386</ele>
        <time>2016-07-24T12:46:10Z</time>
      </trkpt>
      <trkpt lat="45.05337" lon="4.13286">
        <ele>1386</ele>
        <time>2016-07-24T12:46:16Z</time>
      </trkpt>
      <trkpt lat="45.05319" lon="4.1328">
        <ele>1377</ele>
        <time>2016-07-24T12:46:31Z</time>
      </trkpt>
      <trkpt lat="45.05309" lon="4.13278">
        <ele>1377</ele>
        <time>2016-07-24T12:46:40Z</time>
      </trkpt>
      <trkpt lat="45.05301" lon="4.13276">
        <ele>1376</ele>
        <time>2016-07-24T12:46:48Z</time>
      </trkpt>
      <trkpt lat="45.05298" lon="4.13274">
        <ele>1376</ele>
        <time>2016-07-24T12:46:50Z</time>
      </trkpt>
      <trkpt lat="45.05282" lon="4.13278">
        <ele>1374</ele>
        <time>2016-07-24T12:47:05Z</time>
      </trkpt>
      <trkpt lat="45.05278" lon="4.13279">
        <ele>1374</ele>
        <time>2016-07-24T12:47:09Z</time>
      </trkpt>
      <trkpt lat="45.05276" lon="4.13278">
        <ele>1374</ele>
        <time>2016-07-24T12:47:11Z</time>
      </trkpt>
      <trkpt lat="45.05261" lon="4.13293">
        <ele>1373</ele>
        <time>2016-07-24T12:47:26Z</time>
      </trkpt>
      <trkpt lat="45.05251" lon="4.13311">
        <ele>1373</ele>
        <time>2016-07-24T12:47:40Z</time>
      </trkpt>
      <trkpt lat="45.0525" lon="4.13313">
        <ele>1373</ele>
        <time>2016-07-24T12:47:41Z</time>
      </trkpt>
      <trkpt lat="45.05234" lon="4.13332">
        <ele>1370</ele>
        <time>2016-07-24T12:47:57Z</time>
      </trkpt>
      <trkpt lat="45.05223" lon="4.13356">
        <ele>1370</ele>
        <time>2016-07-24T12:48:13Z</time>
      </trkpt>
      <trkpt lat="45.05212" lon="4.13372">
        <ele>1370</ele>
        <time>2016-07-24T12:48:26Z</time>
      </trkpt>
      <trkpt lat="45.05202" lon="4.13389">
        <ele>1369</ele>
        <time>2016-07-24T12:48:40Z</time>
      </trkpt>
      <trkpt lat="45.05192" lon="4.13406">
        <ele>1369</ele>
        <time>2016-07-24T12:48:53Z</time>
      </trkpt>
      <trkpt lat="45.05186" lon="4.13407">
        <ele>1370</ele>
        <time>2016-07-24T12:48:58Z</time>
      </trkpt>
      <trkpt lat="45.05181" lon="4.13411">
        <ele>1370</ele>
        <time>2016-07-24T12:49:03Z</time>
      </trkpt>
      <trkpt lat="45.05161" lon="4.13412">
        <ele>1370</ele>
        <time>2016-07-24T12:49:19Z</time>
      </trkpt>
      <trkpt lat="45.0516" lon="4.13412">
        <ele>1370</ele>
        <time>2016-07-24T12:49:20Z</time>
      </trkpt>
      <trkpt lat="45.05147" lon="4.13411">
        <ele>1370</ele>
        <time>2016-07-24T12:49:34Z</time>
      </trkpt>
      <trkpt lat="45.0513" lon="4.13416">
        <ele>1370</ele>
        <time>2016-07-24T12:49:47Z</time>
      </trkpt>
      <trkpt lat="45.05118" lon="4.13421">
        <ele>1370</ele>
        <time>2016-07-24T12:49:59Z</time>
      </trkpt>
      <trkpt lat="45.05104" lon="4.13435">
        <ele>1370</ele>
        <time>2016-07-24T12:50:11Z</time>
      </trkpt>
      <trkpt lat="45.05087" lon="4.13447">
        <ele>1370</ele>
        <time>2016-07-24T12:50:29Z</time>
      </trkpt>
      <trkpt lat="45.05077" lon="4.13455">
        <ele>1373</ele>
        <time>2016-07-24T12:50:39Z</time>
      </trkpt>
      <trkpt lat="45.05071" lon="4.13463">
        <ele>1373</ele>
        <time>2016-07-24T12:50:46Z</time>
      </trkpt>
      <trkpt lat="45.05068" lon="4.13466">
        <ele>1374</ele>
        <time>2016-07-24T12:50:48Z</time>
      </trkpt>
      <trkpt lat="45.05057" lon="4.13472">
        <ele>1374</ele>
        <time>2016-07-24T12:51:01Z</time>
      </trkpt>
      <trkpt lat="45.05053" lon="4.13474">
        <ele>1374</ele>
        <time>2016-07-24T12:51:04Z</time>
      </trkpt>
      <trkpt lat="45.0504" lon="4.13487">
        <ele>1375</ele>
        <time>2016-07-24T12:51:16Z</time>
      </trkpt>
      <trkpt lat="45.05028" lon="4.13495">
        <ele>1376</ele>
        <time>2016-07-24T12:51:28Z</time>
      </trkpt>
      <trkpt lat="45.05026" lon="4.13499">
        <ele>1376</ele>
        <time>2016-07-24T12:51:32Z</time>
      </trkpt>
      <trkpt lat="45.05017" lon="4.13518">
        <ele>1376</ele>
        <time>2016-07-24T12:51:43Z</time>
      </trkpt>
      <trkpt lat="45.05014" lon="4.13539">
        <ele>1375</ele>
        <time>2016-07-24T12:51:54Z</time>
      </trkpt>
      <trkpt lat="45.0502" lon="4.1355">
        <ele>1374</ele>
        <time>2016-07-24T12:52:07Z</time>
      </trkpt>
      <trkpt lat="45.0502" lon="4.13555">
        <ele>1374</ele>
        <time>2016-07-24T12:52:11Z</time>
      </trkpt>
      <trkpt lat="45.05019" lon="4.13571">
        <ele>1374</ele>
        <time>2016-07-24T12:52:23Z</time>
      </trkpt>
      <trkpt lat="45.05014" lon="4.13577">
        <ele>1374</ele>
        <time>2016-07-24T12:52:29Z</time>
      </trkpt>
      <trkpt lat="45.05008" lon="4.1359">
        <ele>1372</ele>
        <time>2016-07-24T12:52:39Z</time>
      </trkpt>
      <trkpt lat="45.05004" lon="4.13598">
        <ele>1371</ele>
        <time>2016-07-24T12:52:54Z</time>
      </trkpt>
      <trkpt lat="45.04994" lon="4.1361">
        <ele>1372</ele>
        <time>2016-07-24T12:53:06Z</time>
      </trkpt>
      <trkpt lat="45.04989" lon="4.1363">
        <ele>1370</ele>
        <time>2016-07-24T12:53:20Z</time>
      </trkpt>
      <trkpt lat="45.04986" lon="4.13647">
        <ele>1368</ele>
        <time>2016-07-24T12:53:35Z</time>
      </trkpt>
      <trkpt lat="45.04979" lon="4.13661">
        <ele>1368</ele>
        <time>2016-07-24T12:53:52Z</time>
      </trkpt>
      <trkpt lat="45.04977" lon="4.13674">
        <ele>1361</ele>
        <time>2016-07-24T12:54:08Z</time>
      </trkpt>
      <trkpt lat="45.04958" lon="4.13685">
        <ele>1360</ele>
        <time>2016-07-24T12:54:22Z</time>
      </trkpt>
      <trkpt lat="45.04948" lon="4.13697">
        <ele>1360</ele>
        <time>2016-07-24T12:54:35Z</time>
      </trkpt>
      <trkpt lat="45.04919" lon="4.13722">
        <ele>1358</ele>
        <time>2016-07-24T12:54:48Z</time>
      </trkpt>
      <trkpt lat="45.04913" lon="4.13728">
        <ele>1362</ele>
        <time>2016-07-24T12:54:50Z</time>
      </trkpt>
      <trkpt lat="45.04903" lon="4.13738">
        <ele>1361</ele>
        <time>2016-07-24T12:55:03Z</time>
      </trkpt>
      <trkpt lat="45.04902" lon="4.13742">
        <ele>1361</ele>
        <time>2016-07-24T12:55:13Z</time>
      </trkpt>
      <trkpt lat="45.04902" lon="4.13746">
        <ele>1360</ele>
        <time>2016-07-24T12:55:29Z</time>
      </trkpt>
      <trkpt lat="45.04898" lon="4.13755">
        <ele>1356</ele>
        <time>2016-07-24T12:55:36Z</time>
      </trkpt>
      <trkpt lat="45.04895" lon="4.13764">
        <ele>1356</ele>
        <time>2016-07-24T12:55:47Z</time>
      </trkpt>
      <trkpt lat="45.0487" lon="4.13802">
        <ele>1357</ele>
        <time>2016-07-24T12:56:02Z</time>
      </trkpt>
      <trkpt lat="45.04866" lon="4.13823">
        <ele>1356</ele>
        <time>2016-07-24T12:56:14Z</time>
      </trkpt>
      <trkpt lat="45.04863" lon="4.13835">
        <ele>1352</ele>
        <time>2016-07-24T12:56:22Z</time>
      </trkpt>
      <trkpt lat="45.04861" lon="4.13841">
        <ele>1352</ele>
        <time>2016-07-24T12:56:25Z</time>
      </trkpt>
      <trkpt lat="45.04854" lon="4.13859">
        <ele>1352</ele>
        <time>2016-07-24T12:56:34Z</time>
      </trkpt>
      <trkpt lat="45.04854" lon="4.13865">
        <ele>1352</ele>
        <time>2016-07-24T12:56:37Z</time>
      </trkpt>
      <trkpt lat="45.04851" lon="4.13887">
        <ele>1351</ele>
        <time>2016-07-24T12:56:50Z</time>
      </trkpt>
      <trkpt lat="45.04847" lon="4.13893">
        <ele>1351</ele>
        <time>2016-07-24T12:56:56Z</time>
      </trkpt>
      <trkpt lat="45.04835" lon="4.13909">
        <ele>1351</ele>
        <time>2016-07-24T12:57:11Z</time>
      </trkpt>
      <trkpt lat="45.04826" lon="4.13923">
        <ele>1350</ele>
        <time>2016-07-24T12:57:23Z</time>
      </trkpt>
      <trkpt lat="45.04821" lon="4.13923">
        <ele>1350</ele>
        <time>2016-07-24T12:57:27Z</time>
      </trkpt>
      <trkpt lat="45.04807" lon="4.13941">
        <ele>1349</ele>
        <time>2016-07-24T12:57:42Z</time>
      </trkpt>
      <trkpt lat="45.04799" lon="4.13954">
        <ele>1349</ele>
        <time>2016-07-24T12:57:52Z</time>
      </trkpt>
      <trkpt lat="45.04793" lon="4.13957">
        <ele>1349</ele>
        <time>2016-07-24T12:57:57Z</time>
      </trkpt>
      <trkpt lat="45.04781" lon="4.13975">
        <ele>1348</ele>
        <time>2016-07-24T12:58:11Z</time>
      </trkpt>
      <trkpt lat="45.04769" lon="4.13998">
        <ele>1347</ele>
        <time>2016-07-24T12:58:26Z</time>
      </trkpt>
      <trkpt lat="45.04763" lon="4.14012">
        <ele>1345</ele>
        <time>2016-07-24T12:58:35Z</time>
      </trkpt>
      <trkpt lat="45.04761" lon="4.14013">
        <ele>1345</ele>
        <time>2016-07-24T12:58:37Z</time>
      </trkpt>
      <trkpt lat="45.04756" lon="4.1401">
        <ele>1345</ele>
        <time>2016-07-24T12:58:42Z</time>
      </trkpt>
      <trkpt lat="45.04747" lon="4.13985">
        <ele>1347</ele>
        <time>2016-07-24T12:58:57Z</time>
      </trkpt>
      <trkpt lat="45.04744" lon="4.13975">
        <ele>1347</ele>
        <time>2016-07-24T12:59:03Z</time>
      </trkpt>
      <trkpt lat="45.0474" lon="4.13966">
        <ele>1348</ele>
        <time>2016-07-24T12:59:14Z</time>
      </trkpt>
      <trkpt lat="45.04738" lon="4.13965">
        <ele>1348</ele>
        <time>2016-07-24T12:59:24Z</time>
      </trkpt>
      <trkpt lat="45.04733" lon="4.13967">
        <ele>1348</ele>
        <time>2016-07-24T12:59:28Z</time>
      </trkpt>
      <trkpt lat="45.04714" lon="4.13975">
        <ele>1348</ele>
        <time>2016-07-24T12:59:44Z</time>
      </trkpt>
      <trkpt lat="45.04712" lon="4.13977">
        <ele>1348</ele>
        <time>2016-07-24T12:59:46Z</time>
      </trkpt>
      <trkpt lat="45.04696" lon="4.13986">
        <ele>1348</ele>
        <time>2016-07-24T13:00:00Z</time>
      </trkpt>
      <trkpt lat="45.04678" lon="4.13992">
        <ele>1347</ele>
        <time>2016-07-24T13:00:13Z</time>
      </trkpt>
      <trkpt lat="45.0466" lon="4.14007">
        <ele>1348</ele>
        <time>2016-07-24T13:00:28Z</time>
      </trkpt>
      <trkpt lat="45.04639" lon="4.14003">
        <ele>1349</ele>
        <time>2016-07-24T13:00:44Z</time>
      </trkpt>
      <trkpt lat="45.0462" lon="4.14004">
        <ele>1349</ele>
        <time>2016-07-24T13:00:59Z</time>
      </trkpt>
      <trkpt lat="45.04606" lon="4.14003">
        <ele>1350</ele>
        <time>2016-07-24T13:01:11Z</time>
      </trkpt>
      <trkpt lat="45.04589" lon="4.14003">
        <ele>1351</ele>
        <time>2016-07-24T13:01:24Z</time>
      </trkpt>
      <trkpt lat="45.04575" lon="4.14001">
        <ele>1352</ele>
        <time>2016-07-24T13:01:34Z</time>
      </trkpt>
      <trkpt lat="45.04568" lon="4.14">
        <ele>1352</ele>
        <time>2016-07-24T13:01:43Z</time>
      </trkpt>
      <trkpt lat="45.04552" lon="4.14001">
        <ele>1353</ele>
        <time>2016-07-24T13:02:00Z</time>
      </trkpt>
      <trkpt lat="45.04528" lon="4.13998">
        <ele>1352</ele>
        <time>2016-07-24T13:02:16Z</time>
      </trkpt>
      <trkpt lat="45.04506" lon="4.13993">
        <ele>1353</ele>
        <time>2016-07-24T13:02:32Z</time>
      </trkpt>
      <trkpt lat="45.04485" lon="4.13988">
        <ele>1352</ele>
        <time>2016-07-24T13:02:48Z</time>
      </trkpt>
      <trkpt lat="45.04463" lon="4.13985">
        <ele>1352</ele>
        <time>2016-07-24T13:03:04Z</time>
      </trkpt>
      <trkpt lat="45.04439" lon="4.13985">
        <ele>1352</ele>
        <time>2016-07-24T13:03:21Z</time>
      </trkpt>
      <trkpt lat="45.04417" lon="4.1399">
        <ele>1352</ele>
        <time>2016-07-24T13:03:37Z</time>
      </trkpt>
      <trkpt lat="45.04394" lon="4.14001">
        <ele>1353</ele>
        <time>2016-07-24T13:03:54Z</time>
      </trkpt>
      <trkpt lat="45.04375" lon="4.14009">
        <ele>1353</ele>
        <time>2016-07-24T13:04:11Z</time>
      </trkpt>
      <trkpt lat="45.04355" lon="4.14016">
        <ele>1353</ele>
        <time>2016-07-24T13:04:27Z</time>
      </trkpt>
      <trkpt lat="45.04345" lon="4.14013">
        <ele>1352</ele>
        <time>2016-07-24T13:04:40Z</time>
      </trkpt>
      <trkpt lat="45.04332" lon="4.14001">
        <ele>1350</ele>
        <time>2016-07-24T13:04:52Z</time>
      </trkpt>
      <trkpt lat="45.04315" lon="4.13981">
        <ele>1348</ele>
        <time>2016-07-24T13:05:07Z</time>
      </trkpt>
      <trkpt lat="45.04296" lon="4.13962">
        <ele>1347</ele>
        <time>2016-07-24T13:05:23Z</time>
      </trkpt>
      <trkpt lat="45.04295" lon="4.13961">
        <ele>1347</ele>
        <time>2016-07-24T13:05:24Z</time>
      </trkpt>
      <trkpt lat="45.04278" lon="4.13944">
        <ele>1346</ele>
        <time>2016-07-24T13:05:39Z</time>
      </trkpt>
      <trkpt lat="45.04264" lon="4.13928">
        <ele>1345</ele>
        <time>2016-07-24T13:05:52Z</time>
      </trkpt>
      <trkpt lat="45.04253" lon="4.13916">
        <ele>1344</ele>
        <time>2016-07-24T13:06:04Z</time>
      </trkpt>
      <trkpt lat="45.04251" lon="4.13915">
        <ele>1344</ele>
        <time>2016-07-24T13:06:06Z</time>
      </trkpt>
      <trkpt lat="45.04239" lon="4.13898">
        <ele>1343</ele>
        <time>2016-07-24T13:06:20Z</time>
      </trkpt>
      <trkpt lat="45.04237" lon="4.13885">
        <ele>1342</ele>
        <time>2016-07-24T13:06:27Z</time>
      </trkpt>
      <trkpt lat="45.0423" lon="4.1386">
        <ele>1342</ele>
        <time>2016-07-24T13:06:42Z</time>
      </trkpt>
      <trkpt lat="45.0423" lon="4.13856">
        <ele>1341</ele>
        <time>2016-07-24T13:06:45Z</time>
      </trkpt>
      <trkpt lat="45.04231" lon="4.13843">
        <ele>1341</ele>
        <time>2016-07-24T13:06:59Z</time>
      </trkpt>
      <trkpt lat="45.04231" lon="4.13839">
        <ele>1341</ele>
        <time>2016-07-24T13:07:02Z</time>
      </trkpt>
      <trkpt lat="45.04223" lon="4.1382">
        <ele>1339</ele>
        <time>2016-07-24T13:07:11Z</time>
      </trkpt>
      <trkpt lat="45.04217" lon="4.13797">
        <ele>1338</ele>
        <time>2016-07-24T13:07:20Z</time>
      </trkpt>
      <trkpt lat="45.04217" lon="4.13751">
        <ele>1337</ele>
        <time>2016-07-24T13:07:38Z</time>
      </trkpt>
      <trkpt lat="45.04218" lon="4.13744">
        <ele>1335</ele>
        <time>2016-07-24T13:07:42Z</time>
      </trkpt>
      <trkpt lat="45.0422" lon="4.13731">
        <ele>1334</ele>
        <time>2016-07-24T13:07:50Z</time>
      </trkpt>
      <trkpt lat="45.04223" lon="4.13724">
        <ele>1334</ele>
        <time>2016-07-24T13:07:54Z</time>
      </trkpt>
      <trkpt lat="45.04223" lon="4.13718">
        <ele>1334</ele>
        <time>2016-07-24T13:07:57Z</time>
      </trkpt>
      <trkpt lat="45.04218" lon="4.137">
        <ele>1334</ele>
        <time>2016-07-24T13:08:07Z</time>
      </trkpt>
      <trkpt lat="45.04217" lon="4.13693">
        <ele>1333</ele>
        <time>2016-07-24T13:08:11Z</time>
      </trkpt>
      <trkpt lat="45.04224" lon="4.13676">
        <ele>1333</ele>
        <time>2016-07-24T13:08:24Z</time>
      </trkpt>
      <trkpt lat="45.04224" lon="4.13674">
        <ele>1333</ele>
        <time>2016-07-24T13:08:25Z</time>
      </trkpt>
      <trkpt lat="45.04227" lon="4.13663">
        <ele>1330</ele>
        <time>2016-07-24T13:08:32Z</time>
      </trkpt>
      <trkpt lat="45.0423" lon="4.13654">
        <ele>1330</ele>
        <time>2016-07-24T13:08:38Z</time>
      </trkpt>
      <trkpt lat="45.04232" lon="4.1365">
        <ele>1330</ele>
        <time>2016-07-24T13:08:41Z</time>
      </trkpt>
      <trkpt lat="45.04241" lon="4.13632">
        <ele>1330</ele>
        <time>2016-07-24T13:08:53Z</time>
      </trkpt>
      <trkpt lat="45.04244" lon="4.13627">
        <ele>1330</ele>
        <time>2016-07-24T13:08:57Z</time>
      </trkpt>
      <trkpt lat="45.04246" lon="4.13622">
        <ele>1330</ele>
        <time>2016-07-24T13:09:00Z</time>
      </trkpt>
      <trkpt lat="45.04258" lon="4.13596">
        <ele>1331</ele>
        <time>2016-07-24T13:09:17Z</time>
      </trkpt>
      <trkpt lat="45.04269" lon="4.13574">
        <ele>1331</ele>
        <time>2016-07-24T13:09:31Z</time>
      </trkpt>
      <trkpt lat="45.04271" lon="4.1356">
        <ele>1331</ele>
        <time>2016-07-24T13:09:39Z</time>
      </trkpt>
      <trkpt lat="45.04275" lon="4.13537">
        <ele>1331</ele>
        <time>2016-07-24T13:09:53Z</time>
      </trkpt>
      <trkpt lat="45.04274" lon="4.13528">
        <ele>1331</ele>
        <time>2016-07-24T13:09:58Z</time>
      </trkpt>
      <trkpt lat="45.04275" lon="4.13505">
        <ele>1330</ele>
        <time>2016-07-24T13:10:12Z</time>
      </trkpt>
      <trkpt lat="45.04275" lon="4.13499">
        <ele>1330</ele>
        <time>2016-07-24T13:10:16Z</time>
      </trkpt>
      <trkpt lat="45.04276" lon="4.1349">
        <ele>1330</ele>
        <time>2016-07-24T13:10:21Z</time>
      </trkpt>
      <trkpt lat="45.04276" lon="4.13479">
        <ele>1330</ele>
        <time>2016-07-24T13:10:27Z</time>
      </trkpt>
      <trkpt lat="45.04276" lon="4.13476">
        <ele>1330</ele>
        <time>2016-07-24T13:10:29Z</time>
      </trkpt>
      <trkpt lat="45.04277" lon="4.13467">
        <ele>1330</ele>
        <time>2016-07-24T13:10:34Z</time>
      </trkpt>
      <trkpt lat="45.04278" lon="4.13462">
        <ele>1330</ele>
        <time>2016-07-24T13:10:37Z</time>
      </trkpt>
      <trkpt lat="45.04274" lon="4.13439">
        <ele>1330</ele>
        <time>2016-07-24T13:10:51Z</time>
      </trkpt>
      <trkpt lat="45.04267" lon="4.13419">
        <ele>1329</ele>
        <time>2016-07-24T13:11:03Z</time>
      </trkpt>
      <trkpt lat="45.0426" lon="4.13402">
        <ele>1329</ele>
        <time>2016-07-24T13:11:15Z</time>
      </trkpt>
      <trkpt lat="45.04256" lon="4.13391">
        <ele>1330</ele>
        <time>2016-07-24T13:11:23Z</time>
      </trkpt>
      <trkpt lat="45.04247" lon="4.1337">
        <ele>1325</ele>
        <time>2016-07-24T13:11:36Z</time>
      </trkpt>
      <trkpt lat="45.0424" lon="4.13352">
        <ele>1326</ele>
        <time>2016-07-24T13:11:47Z</time>
      </trkpt>
      <trkpt lat="45.04231" lon="4.13332">
        <ele>1326</ele>
        <time>2016-07-24T13:11:59Z</time>
      </trkpt>
      <trkpt lat="45.04222" lon="4.1332">
        <ele>1325</ele>
        <time>2016-07-24T13:12:13Z</time>
      </trkpt>
      <trkpt lat="45.04216" lon="4.13301">
        <ele>1325</ele>
        <time>2016-07-24T13:12:24Z</time>
      </trkpt>
      <trkpt lat="45.04212" lon="4.13276">
        <ele>1325</ele>
        <time>2016-07-24T13:12:39Z</time>
      </trkpt>
      <trkpt lat="45.04208" lon="4.13262">
        <ele>1325</ele>
        <time>2016-07-24T13:12:50Z</time>
      </trkpt>
      <trkpt lat="45.04202" lon="4.13239">
        <ele>1326</ele>
        <time>2016-07-24T13:13:03Z</time>
      </trkpt>
      <trkpt lat="45.04201" lon="4.1321">
        <ele>1326</ele>
        <time>2016-07-24T13:13:19Z</time>
      </trkpt>
      <trkpt lat="45.04197" lon="4.13186">
        <ele>1327</ele>
        <time>2016-07-24T13:13:31Z</time>
      </trkpt>
      <trkpt lat="45.04188" lon="4.13164">
        <ele>1327</ele>
        <time>2016-07-24T13:13:44Z</time>
      </trkpt>
      <trkpt lat="45.04186" lon="4.13145">
        <ele>1328</ele>
        <time>2016-07-24T13:13:53Z</time>
      </trkpt>
      <trkpt lat="45.04191" lon="4.13121">
        <ele>1328</ele>
        <time>2016-07-24T13:14:03Z</time>
      </trkpt>
      <trkpt lat="45.04192" lon="4.13114">
        <ele>1328</ele>
        <time>2016-07-24T13:14:06Z</time>
      </trkpt>
      <trkpt lat="45.04193" lon="4.13105">
        <ele>1328</ele>
        <time>2016-07-24T13:14:10Z</time>
      </trkpt>
      <trkpt lat="45.04193" lon="4.13094">
        <ele>1328</ele>
        <time>2016-07-24T13:14:15Z</time>
      </trkpt>
      <trkpt lat="45.04184" lon="4.13082">
        <ele>1327</ele>
        <time>2016-07-24T13:14:25Z</time>
      </trkpt>
      <trkpt lat="45.04175" lon="4.13064">
        <ele>1327</ele>
        <time>2016-07-24T13:14:39Z</time>
      </trkpt>
      <trkpt lat="45.04174" lon="4.13053">
        <ele>1327</ele>
        <time>2016-07-24T13:14:46Z</time>
      </trkpt>
      <trkpt lat="45.0417" lon="4.13044">
        <ele>1327</ele>
        <time>2016-07-24T13:14:52Z</time>
      </trkpt>
      <trkpt lat="45.04159" lon="4.13032">
        <ele>1322</ele>
        <time>2016-07-24T13:15:01Z</time>
      </trkpt>
      <trkpt lat="45.04155" lon="4.13028">
        <ele>1322</ele>
        <time>2016-07-24T13:15:04Z</time>
      </trkpt>
      <trkpt lat="45.0414" lon="4.13017">
        <ele>1322</ele>
        <time>2016-07-24T13:15:15Z</time>
      </trkpt>
      <trkpt lat="45.04129" lon="4.13011">
        <ele>1321</ele>
        <time>2016-07-24T13:15:25Z</time>
      </trkpt>
      <trkpt lat="45.04116" lon="4.13001">
        <ele>1320</ele>
        <time>2016-07-24T13:15:36Z</time>
      </trkpt>
      <trkpt lat="45.04113" lon="4.12998">
        <ele>1316</ele>
        <time>2016-07-24T13:15:38Z</time>
      </trkpt>
      <trkpt lat="45.04099" lon="4.12991">
        <ele>1315</ele>
        <time>2016-07-24T13:15:49Z</time>
      </trkpt>
      <trkpt lat="45.0409" lon="4.12986">
        <ele>1315</ele>
        <time>2016-07-24T13:15:58Z</time>
      </trkpt>
      <trkpt lat="45.04077" lon="4.12982">
        <ele>1311</ele>
        <time>2016-07-24T13:16:08Z</time>
      </trkpt>
      <trkpt lat="45.04067" lon="4.12982">
        <ele>1310</ele>
        <time>2016-07-24T13:16:19Z</time>
      </trkpt>
      <trkpt lat="45.04055" lon="4.1298">
        <ele>1309</ele>
        <time>2016-07-24T13:16:29Z</time>
      </trkpt>
      <trkpt lat="45.04038" lon="4.12981">
        <ele>1308</ele>
        <time>2016-07-24T13:16:41Z</time>
      </trkpt>
      <trkpt lat="45.04036" lon="4.12982">
        <ele>1308</ele>
        <time>2016-07-24T13:16:44Z</time>
      </trkpt>
      <trkpt lat="45.04031" lon="4.12983">
        <ele>1307</ele>
        <time>2016-07-24T13:16:50Z</time>
      </trkpt>
      <trkpt lat="45.04017" lon="4.12987">
        <ele>1307</ele>
        <time>2016-07-24T13:17:01Z</time>
      </trkpt>
      <trkpt lat="45.03996" lon="4.12991">
        <ele>1303</ele>
        <time>2016-07-24T13:17:13Z</time>
      </trkpt>
      <trkpt lat="45.0399" lon="4.12993">
        <ele>1302</ele>
        <time>2016-07-24T13:17:17Z</time>
      </trkpt>
      <trkpt lat="45.03964" lon="4.12993">
        <ele>1299</ele>
        <time>2016-07-24T13:17:33Z</time>
      </trkpt>
      <trkpt lat="45.03952" lon="4.12993">
        <ele>1298</ele>
        <time>2016-07-24T13:17:42Z</time>
      </trkpt>
      <trkpt lat="45.03949" lon="4.12994">
        <ele>1298</ele>
        <time>2016-07-24T13:17:45Z</time>
      </trkpt>
      <trkpt lat="45.03928" lon="4.12994">
        <ele>1295</ele>
        <time>2016-07-24T13:18:02Z</time>
      </trkpt>
      <trkpt lat="45.03909" lon="4.12995">
        <ele>1290</ele>
        <time>2016-07-24T13:18:16Z</time>
      </trkpt>
      <trkpt lat="45.03902" lon="4.12995">
        <ele>1290</ele>
        <time>2016-07-24T13:18:21Z</time>
      </trkpt>
      <trkpt lat="45.03891" lon="4.12995">
        <ele>1288</ele>
        <time>2016-07-24T13:18:36Z</time>
      </trkpt>
      <trkpt lat="45.03885" lon="4.12994">
        <ele>1288</ele>
        <time>2016-07-24T13:18:46Z</time>
      </trkpt>
      <trkpt lat="45.03872" lon="4.12989">
        <ele>1286</ele>
        <time>2016-07-24T13:19:00Z</time>
      </trkpt>
      <trkpt lat="45.03853" lon="4.1299">
        <ele>1283</ele>
        <time>2016-07-24T13:19:15Z</time>
      </trkpt>
      <trkpt lat="45.03847" lon="4.1299">
        <ele>1282</ele>
        <time>2016-07-24T13:19:27Z</time>
      </trkpt>
      <trkpt lat="45.0384" lon="4.12984">
        <ele>1282</ele>
        <time>2016-07-24T13:19:44Z</time>
      </trkpt>
      <trkpt lat="45.03828" lon="4.12974">
        <ele>1275</ele>
        <time>2016-07-24T13:19:58Z</time>
      </trkpt>
      <trkpt lat="45.03823" lon="4.12969">
        <ele>1275</ele>
        <time>2016-07-24T13:20:11Z</time>
      </trkpt>
      <trkpt lat="45.03818" lon="4.12964">
        <ele>1275</ele>
        <time>2016-07-24T13:20:18Z</time>
      </trkpt>
      <trkpt lat="45.03813" lon="4.12963">
        <ele>1274</ele>
        <time>2016-07-24T13:20:22Z</time>
      </trkpt>
      <trkpt lat="45.03798" lon="4.12948">
        <ele>1273</ele>
        <time>2016-07-24T13:20:38Z</time>
      </trkpt>
      <trkpt lat="45.03797" lon="4.12947">
        <ele>1273</ele>
        <time>2016-07-24T13:20:39Z</time>
      </trkpt>
      <trkpt lat="45.03793" lon="4.12941">
        <ele>1273</ele>
        <time>2016-07-24T13:20:43Z</time>
      </trkpt>
      <trkpt lat="45.03776" lon="4.12923">
        <ele>1271</ele>
        <time>2016-07-24T13:20:59Z</time>
      </trkpt>
      <trkpt lat="45.0376" lon="4.1291">
        <ele>1269</ele>
        <time>2016-07-24T13:21:12Z</time>
      </trkpt>
      <trkpt lat="45.0375" lon="4.12897">
        <ele>1262</ele>
        <time>2016-07-24T13:21:24Z</time>
      </trkpt>
      <trkpt lat="45.03737" lon="4.12886">
        <ele>1261</ele>
        <time>2016-07-24T13:21:36Z</time>
      </trkpt>
      <trkpt lat="45.0372" lon="4.12867">
        <ele>1260</ele>
        <time>2016-07-24T13:21:51Z</time>
      </trkpt>
      <trkpt lat="45.03707" lon="4.12848">
        <ele>1259</ele>
        <time>2016-07-24T13:22:04Z</time>
      </trkpt>
      <trkpt lat="45.03698" lon="4.12824">
        <ele>1258</ele>
        <time>2016-07-24T13:22:19Z</time>
      </trkpt>
      <trkpt lat="45.03684" lon="4.12812">
        <ele>1257</ele>
        <time>2016-07-24T13:22:33Z</time>
      </trkpt>
      <trkpt lat="45.03675" lon="4.128">
        <ele>1257</ele>
        <time>2016-07-24T13:22:48Z</time>
      </trkpt>
      <trkpt lat="45.03658" lon="4.12779">
        <ele>1249</ele>
        <time>2016-07-24T13:23:03Z</time>
      </trkpt>
      <trkpt lat="45.03645" lon="4.12765">
        <ele>1248</ele>
        <time>2016-07-24T13:23:14Z</time>
      </trkpt>
      <trkpt lat="45.0363" lon="4.12748">
        <ele>1248</ele>
        <time>2016-07-24T13:23:28Z</time>
      </trkpt>
      <trkpt lat="45.03611" lon="4.12728">
        <ele>1247</ele>
        <time>2016-07-24T13:23:45Z</time>
      </trkpt>
      <trkpt lat="45.03588" lon="4.12716">
        <ele>1246</ele>
        <time>2016-07-24T13:24:03Z</time>
      </trkpt>
      <trkpt lat="45.03566" lon="4.12699">
        <ele>1241</ele>
        <time>2016-07-24T13:24:21Z</time>
      </trkpt>
      <trkpt lat="45.03552" lon="4.12685">
        <ele>1240</ele>
        <time>2016-07-24T13:24:34Z</time>
      </trkpt>
      <trkpt lat="45.03539" lon="4.12663">
        <ele>1241</ele>
        <time>2016-07-24T13:24:49Z</time>
      </trkpt>
      <trkpt lat="45.03525" lon="4.12632">
        <ele>1240</ele>
        <time>2016-07-24T13:25:08Z</time>
      </trkpt>
      <trkpt lat="45.03514" lon="4.12608">
        <ele>1240</ele>
        <time>2016-07-24T13:25:23Z</time>
      </trkpt>
      <trkpt lat="45.03502" lon="4.12591">
        <ele>1239</ele>
        <time>2016-07-24T13:25:37Z</time>
      </trkpt>
      <trkpt lat="45.03491" lon="4.12578">
        <ele>1237</ele>
        <time>2016-07-24T13:25:50Z</time>
      </trkpt>
      <trkpt lat="45.03477" lon="4.12565">
        <ele>1237</ele>
        <time>2016-07-24T13:26:02Z</time>
      </trkpt>
      <trkpt lat="45.0346" lon="4.1255">
        <ele>1236</ele>
        <time>2016-07-24T13:26:16Z</time>
      </trkpt>
      <trkpt lat="45.03453" lon="4.12542">
        <ele>1236</ele>
        <time>2016-07-24T13:26:23Z</time>
      </trkpt>
      <trkpt lat="45.03442" lon="4.12524">
        <ele>1235</ele>
        <time>2016-07-24T13:26:38Z</time>
      </trkpt>
      <trkpt lat="45.03429" lon="4.12501">
        <ele>1234</ele>
        <time>2016-07-24T13:26:52Z</time>
      </trkpt>
      <trkpt lat="45.03418" lon="4.12492">
        <ele>1235</ele>
        <time>2016-07-24T13:27:00Z</time>
      </trkpt>
      <trkpt lat="45.03412" lon="4.12491">
        <ele>1231</ele>
        <time>2016-07-24T13:27:04Z</time>
      </trkpt>
      <trkpt lat="45.03393" lon="4.12489">
        <ele>1230</ele>
        <time>2016-07-24T13:27:18Z</time>
      </trkpt>
      <trkpt lat="45.03381" lon="4.12486">
        <ele>1228</ele>
        <time>2016-07-24T13:27:32Z</time>
      </trkpt>
      <trkpt lat="45.03381" lon="4.12484">
        <ele>1228</ele>
        <time>2016-07-24T13:27:46Z</time>
      </trkpt>
      <trkpt lat="45.03377" lon="4.12481">
        <ele>1228</ele>
        <time>2016-07-24T13:27:51Z</time>
      </trkpt>
      <trkpt lat="45.03361" lon="4.12456">
        <ele>1227</ele>
        <time>2016-07-24T13:28:10Z</time>
      </trkpt>
      <trkpt lat="45.03351" lon="4.1243">
        <ele>1226</ele>
        <time>2016-07-24T13:28:27Z</time>
      </trkpt>
      <trkpt lat="45.03345" lon="4.12398">
        <ele>1227</ele>
        <time>2016-07-24T13:28:44Z</time>
      </trkpt>
      <trkpt lat="45.0334" lon="4.12368">
        <ele>1229</ele>
        <time>2016-07-24T13:29:01Z</time>
      </trkpt>
      <trkpt lat="45.03326" lon="4.12345">
        <ele>1223</ele>
        <time>2016-07-24T13:29:15Z</time>
      </trkpt>
      <trkpt lat="45.03312" lon="4.12327">
        <ele>1224</ele>
        <time>2016-07-24T13:29:29Z</time>
      </trkpt>
      <trkpt lat="45.03296" lon="4.12308">
        <ele>1223</ele>
        <time>2016-07-24T13:29:44Z</time>
      </trkpt>
      <trkpt lat="45.03273" lon="4.12293">
        <ele>1222</ele>
        <time>2016-07-24T13:30:02Z</time>
      </trkpt>
      <trkpt lat="45.03258" lon="4.12278">
        <ele>1221</ele>
        <time>2016-07-24T13:30:15Z</time>
      </trkpt>
      <trkpt lat="45.03241" lon="4.12259">
        <ele>1217</ele>
        <time>2016-07-24T13:30:29Z</time>
      </trkpt>
      <trkpt lat="45.03229" lon="4.12238">
        <ele>1218</ele>
        <time>2016-07-24T13:30:43Z</time>
      </trkpt>
      <trkpt lat="45.03211" lon="4.12214">
        <ele>1217</ele>
        <time>2016-07-24T13:31:01Z</time>
      </trkpt>
      <trkpt lat="45.03203" lon="4.12184">
        <ele>1218</ele>
        <time>2016-07-24T13:31:19Z</time>
      </trkpt>
      <trkpt lat="45.03216" lon="4.12162">
        <ele>1222</ele>
        <time>2016-07-24T13:31:36Z</time>
      </trkpt>
      <trkpt lat="45.03218" lon="4.1216">
        <ele>1222</ele>
        <time>2016-07-24T13:31:38Z</time>
      </trkpt>
      <trkpt lat="45.03221" lon="4.12152">
        <ele>1222</ele>
        <time>2016-07-24T13:31:43Z</time>
      </trkpt>
      <trkpt lat="45.03225" lon="4.12144">
        <ele>1222</ele>
        <time>2016-07-24T13:31:49Z</time>
      </trkpt>
      <trkpt lat="45.03236" lon="4.12125">
        <ele>1223</ele>
        <time>2016-07-24T13:32:06Z</time>
      </trkpt>
      <trkpt lat="45.03236" lon="4.12121">
        <ele>1223</ele>
        <time>2016-07-24T13:32:24Z</time>
      </trkpt>
      <trkpt lat="45.03236" lon="4.12121">
        <ele>1223</ele>
        <time>2016-07-24T13:32:38Z</time>
      </trkpt>
      <trkpt lat="45.03238" lon="4.12113">
        <ele>1224</ele>
        <time>2016-07-24T13:32:52Z</time>
      </trkpt>
      <trkpt lat="45.03239" lon="4.12112">
        <ele>1224</ele>
        <time>2016-07-24T13:33:05Z</time>
      </trkpt>
      <trkpt lat="45.0324" lon="4.12111">
        <ele>1224</ele>
        <time>2016-07-24T13:33:17Z</time>
      </trkpt>
      <trkpt lat="45.03243" lon="4.12108">
        <ele>1224</ele>
        <time>2016-07-24T13:33:28Z</time>
      </trkpt>
      <trkpt lat="45.03245" lon="4.12107">
        <ele>1224</ele>
        <time>2016-07-24T13:33:30Z</time>
      </trkpt>
      <trkpt lat="45.0325" lon="4.12104">
        <ele>1225</ele>
        <time>2016-07-24T13:33:45Z</time>
      </trkpt>
      <trkpt lat="45.03261" lon="4.12087">
        <ele>1229</ele>
        <time>2016-07-24T13:33:59Z</time>
      </trkpt>
      <trkpt lat="45.0327" lon="4.12076">
        <ele>1231</ele>
        <time>2016-07-24T13:34:10Z</time>
      </trkpt>
      <trkpt lat="45.03282" lon="4.1206">
        <ele>1233</ele>
        <time>2016-07-24T13:34:26Z</time>
      </trkpt>
      <trkpt lat="45.03291" lon="4.12056">
        <ele>1233</ele>
        <time>2016-07-24T13:34:39Z</time>
      </trkpt>
      <trkpt lat="45.03292" lon="4.12056">
        <ele>1233</ele>
        <time>2016-07-24T13:34:52Z</time>
      </trkpt>
      <trkpt lat="45.03291" lon="4.12056">
        <ele>1233</ele>
        <time>2016-07-24T13:34:54Z</time>
      </trkpt>
      <trkpt lat="45.03288" lon="4.12052">
        <ele>1233</ele>
        <time>2016-07-24T13:34:58Z</time>
      </trkpt>
      <trkpt lat="45.03277" lon="4.12019">
        <ele>1233</ele>
        <time>2016-07-24T13:35:17Z</time>
      </trkpt>
      <trkpt lat="45.03268" lon="4.11983">
        <ele>1233</ele>
        <time>2016-07-24T13:35:37Z</time>
      </trkpt>
      <trkpt lat="45.03275" lon="4.11954">
        <ele>1234</ele>
        <time>2016-07-24T13:35:54Z</time>
      </trkpt>
      <trkpt lat="45.0328" lon="4.11923">
        <ele>1234</ele>
        <time>2016-07-24T13:36:13Z</time>
      </trkpt>
      <trkpt lat="45.03262" lon="4.11909">
        <ele>1233</ele>
        <time>2016-07-24T13:36:28Z</time>
      </trkpt>
      <trkpt lat="45.03244" lon="4.11897">
        <ele>1227</ele>
        <time>2016-07-24T13:36:45Z</time>
      </trkpt>
      <trkpt lat="45.03243" lon="4.11897">
        <ele>1227</ele>
        <time>2016-07-24T13:37:01Z</time>
      </trkpt>
      <trkpt lat="45.03243" lon="4.11897">
        <ele>1227</ele>
        <time>2016-07-24T13:37:20Z</time>
      </trkpt>
      <trkpt lat="45.03243" lon="4.11898">
        <ele>1227</ele>
        <time>2016-07-24T13:37:38Z</time>
      </trkpt>
      <trkpt lat="45.0324" lon="4.11897">
        <ele>1227</ele>
        <time>2016-07-24T13:37:53Z</time>
      </trkpt>
      <trkpt lat="45.03239" lon="4.11894">
        <ele>1226</ele>
        <time>2016-07-24T13:38:00Z</time>
      </trkpt>
      <trkpt lat="45.03227" lon="4.1187">
        <ele>1225</ele>
        <time>2016-07-24T13:38:18Z</time>
      </trkpt>
      <trkpt lat="45.03225" lon="4.11865">
        <ele>1225</ele>
        <time>2016-07-24T13:38:22Z</time>
      </trkpt>
      <trkpt lat="45.03225" lon="4.11861">
        <ele>1225</ele>
        <time>2016-07-24T13:38:25Z</time>
      </trkpt>
      <trkpt lat="45.03214" lon="4.11835">
        <ele>1224</ele>
        <time>2016-07-24T13:38:42Z</time>
      </trkpt>
      <trkpt lat="45.03202" lon="4.11822">
        <ele>1222</ele>
        <time>2016-07-24T13:38:54Z</time>
      </trkpt>
      <trkpt lat="45.03199" lon="4.11797">
        <ele>1222</ele>
        <time>2016-07-24T13:39:08Z</time>
      </trkpt>
      <trkpt lat="45.032" lon="4.11767">
        <ele>1222</ele>
        <time>2016-07-24T13:39:25Z</time>
      </trkpt>
      <trkpt lat="45.03199" lon="4.11745">
        <ele>1221</ele>
        <time>2016-07-24T13:39:40Z</time>
      </trkpt>
      <trkpt lat="45.03204" lon="4.11723">
        <ele>1222</ele>
        <time>2016-07-24T13:39:53Z</time>
      </trkpt>
      <trkpt lat="45.03194" lon="4.11689">
        <ele>1221</ele>
        <time>2016-07-24T13:40:07Z</time>
      </trkpt>
      <trkpt lat="45.03179" lon="4.11676">
        <ele>1218</ele>
        <time>2016-07-24T13:40:21Z</time>
      </trkpt>
      <trkpt lat="45.0318" lon="4.11665">
        <ele>1218</ele>
        <time>2016-07-24T13:40:27Z</time>
      </trkpt>
      <trkpt lat="45.03184" lon="4.11647">
        <ele>1219</ele>
        <time>2016-07-24T13:40:40Z</time>
      </trkpt>
      <trkpt lat="45.03194" lon="4.1163">
        <ele>1220</ele>
        <time>2016-07-24T13:40:53Z</time>
      </trkpt>
      <trkpt lat="45.03204" lon="4.11606">
        <ele>1220</ele>
        <time>2016-07-24T13:41:09Z</time>
      </trkpt>
      <trkpt lat="45.03206" lon="4.11573">
        <ele>1220</ele>
        <time>2016-07-24T13:41:28Z</time>
      </trkpt>
      <trkpt lat="45.03212" lon="4.11541">
        <ele>1220</ele>
        <time>2016-07-24T13:41:46Z</time>
      </trkpt>
      <trkpt lat="45.03218" lon="4.11522">
        <ele>1221</ele>
        <time>2016-07-24T13:41:59Z</time>
      </trkpt>
      <trkpt lat="45.03226" lon="4.11496">
        <ele>1220</ele>
        <time>2016-07-24T13:42:14Z</time>
      </trkpt>
      <trkpt lat="45.03234" lon="4.11471">
        <ele>1220</ele>
        <time>2016-07-24T13:42:30Z</time>
      </trkpt>
      <trkpt lat="45.03242" lon="4.11447">
        <ele>1219</ele>
        <time>2016-07-24T13:42:45Z</time>
      </trkpt>
      <trkpt lat="45.03242" lon="4.11436">
        <ele>1220</ele>
        <time>2016-07-24T13:42:51Z</time>
      </trkpt>
      <trkpt lat="45.03246" lon="4.11409">
        <ele>1219</ele>
        <time>2016-07-24T13:43:07Z</time>
      </trkpt>
      <trkpt lat="45.03257" lon="4.11374">
        <ele>1222</ele>
        <time>2016-07-24T13:43:24Z</time>
      </trkpt>
      <trkpt lat="45.0326" lon="4.11347">
        <ele>1219</ele>
        <time>2016-07-24T13:43:39Z</time>
      </trkpt>
      <trkpt lat="45.03274" lon="4.11328">
        <ele>1217</ele>
        <time>2016-07-24T13:43:54Z</time>
      </trkpt>
      <trkpt lat="45.03288" lon="4.11313">
        <ele>1218</ele>
        <time>2016-07-24T13:44:09Z</time>
      </trkpt>
      <trkpt lat="45.03303" lon="4.11298">
        <ele>1218</ele>
        <time>2016-07-24T13:44:24Z</time>
      </trkpt>
      <trkpt lat="45.0331" lon="4.11285">
        <ele>1218</ele>
        <time>2016-07-24T13:44:35Z</time>
      </trkpt>
      <trkpt lat="45.03312" lon="4.11278">
        <ele>1218</ele>
        <time>2016-07-24T13:44:39Z</time>
      </trkpt>
      <trkpt lat="45.03318" lon="4.11266">
        <ele>1218</ele>
        <time>2016-07-24T13:44:48Z</time>
      </trkpt>
      <trkpt lat="45.03335" lon="4.11246">
        <ele>1220</ele>
        <time>2016-07-24T13:45:04Z</time>
      </trkpt>
      <trkpt lat="45.03347" lon="4.11241">
        <ele>1220</ele>
        <time>2016-07-24T13:45:15Z</time>
      </trkpt>
      <trkpt lat="45.03353" lon="4.11219">
        <ele>1220</ele>
        <time>2016-07-24T13:45:29Z</time>
      </trkpt>
      <trkpt lat="45.03362" lon="4.11208">
        <ele>1220</ele>
        <time>2016-07-24T13:45:43Z</time>
      </trkpt>
      <trkpt lat="45.03374" lon="4.11198">
        <ele>1220</ele>
        <time>2016-07-24T13:45:55Z</time>
      </trkpt>
      <trkpt lat="45.03388" lon="4.1118">
        <ele>1220</ele>
        <time>2016-07-24T13:46:08Z</time>
      </trkpt>
      <trkpt lat="45.03397" lon="4.11172">
        <ele>1221</ele>
        <time>2016-07-24T13:46:21Z</time>
      </trkpt>
      <trkpt lat="45.03411" lon="4.11157">
        <ele>1218</ele>
        <time>2016-07-24T13:46:34Z</time>
      </trkpt>
      <trkpt lat="45.03416" lon="4.11152">
        <ele>1217</ele>
        <time>2016-07-24T13:46:38Z</time>
      </trkpt>
      <trkpt lat="45.03435" lon="4.1114">
        <ele>1220</ele>
        <time>2016-07-24T13:46:53Z</time>
      </trkpt>
      <trkpt lat="45.03443" lon="4.11132">
        <ele>1220</ele>
        <time>2016-07-24T13:47:05Z</time>
      </trkpt>
      <trkpt lat="45.03457" lon="4.11116">
        <ele>1219</ele>
        <time>2016-07-24T13:47:17Z</time>
      </trkpt>
      <trkpt lat="45.03463" lon="4.11111">
        <ele>1219</ele>
        <time>2016-07-24T13:47:29Z</time>
      </trkpt>
      <trkpt lat="45.03465" lon="4.11111">
        <ele>1219</ele>
        <time>2016-07-24T13:47:40Z</time>
      </trkpt>
      <trkpt lat="45.03473" lon="4.11104">
        <ele>1219</ele>
        <time>2016-07-24T13:47:53Z</time>
      </trkpt>
      <trkpt lat="45.03477" lon="4.11099">
        <ele>1219</ele>
        <time>2016-07-24T13:48:06Z</time>
      </trkpt>
      <trkpt lat="45.03484" lon="4.11087">
        <ele>1218</ele>
        <time>2016-07-24T13:48:19Z</time>
      </trkpt>
      <trkpt lat="45.03487" lon="4.1108">
        <ele>1213</ele>
        <time>2016-07-24T13:48:34Z</time>
      </trkpt>
      <trkpt lat="45.03489" lon="4.11075">
        <ele>1212</ele>
        <time>2016-07-24T13:48:53Z</time>
      </trkpt>
      <trkpt lat="45.03494" lon="4.11071">
        <ele>1212</ele>
        <time>2016-07-24T13:49:07Z</time>
      </trkpt>
      <trkpt lat="45.03497" lon="4.11069">
        <ele>1212</ele>
        <time>2016-07-24T13:49:21Z</time>
      </trkpt>
      <trkpt lat="45.03499" lon="4.11067">
        <ele>1212</ele>
        <time>2016-07-24T13:49:40Z</time>
      </trkpt>
      <trkpt lat="45.03496" lon="4.11069">
        <ele>1212</ele>
        <time>2016-07-24T13:49:50Z</time>
      </trkpt>
      <trkpt lat="45.03488" lon="4.11076">
        <ele>1212</ele>
        <time>2016-07-24T13:50:03Z</time>
      </trkpt>
      <trkpt lat="45.03488" lon="4.1108">
        <ele>1213</ele>
        <time>2016-07-24T13:50:14Z</time>
      </trkpt>
      <trkpt lat="45.0349" lon="4.11081">
        <ele>1214</ele>
        <time>2016-07-24T13:50:27Z</time>
      </trkpt>
      <trkpt lat="45.03503" lon="4.11079">
        <ele>1217</ele>
        <time>2016-07-24T13:50:41Z</time>
      </trkpt>
      <trkpt lat="45.03519" lon="4.11078">
        <ele>1217</ele>
        <time>2016-07-24T13:50:54Z</time>
      </trkpt>
      <trkpt lat="45.03531" lon="4.11068">
        <ele>1217</ele>
        <time>2016-07-24T13:51:06Z</time>
      </trkpt>
      <trkpt lat="45.03547" lon="4.11058">
        <ele>1218</ele>
        <time>2016-07-24T13:51:20Z</time>
      </trkpt>
      <trkpt lat="45.03553" lon="4.11053">
        <ele>1218</ele>
        <time>2016-07-24T13:51:32Z</time>
      </trkpt>
      <trkpt lat="45.03554" lon="4.1105">
        <ele>1218</ele>
        <time>2016-07-24T13:51:35Z</time>
      </trkpt>
      <trkpt lat="45.03558" lon="4.11041">
        <ele>1217</ele>
        <time>2016-07-24T13:51:48Z</time>
      </trkpt>
      <trkpt lat="45.0356" lon="4.11039">
        <ele>1217</ele>
        <time>2016-07-24T13:52:03Z</time>
      </trkpt>
      <trkpt lat="45.03566" lon="4.11038">
        <ele>1217</ele>
        <time>2016-07-24T13:52:20Z</time>
      </trkpt>
      <trkpt lat="45.03573" lon="4.11033">
        <ele>1217</ele>
        <time>2016-07-24T13:52:32Z</time>
      </trkpt>
      <trkpt lat="45.03585" lon="4.11023">
        <ele>1222</ele>
        <time>2016-07-24T13:52:44Z</time>
      </trkpt>
      <trkpt lat="45.03603" lon="4.11014">
        <ele>1222</ele>
        <time>2016-07-24T13:53:00Z</time>
      </trkpt>
      <trkpt lat="45.03619" lon="4.11011">
        <ele>1223</ele>
        <time>2016-07-24T13:53:13Z</time>
      </trkpt>
      <trkpt lat="45.03624" lon="4.11009">
        <ele>1223</ele>
        <time>2016-07-24T13:53:17Z</time>
      </trkpt>
      <trkpt lat="45.03636" lon="4.11005">
        <ele>1224</ele>
        <time>2016-07-24T13:53:27Z</time>
      </trkpt>
      <trkpt lat="45.03655" lon="4.11">
        <ele>1220</ele>
        <time>2016-07-24T13:53:41Z</time>
      </trkpt>
      <trkpt lat="45.0367" lon="4.11001">
        <ele>1224</ele>
        <time>2016-07-24T13:53:54Z</time>
      </trkpt>
      <trkpt lat="45.03681" lon="4.10997">
        <ele>1222</ele>
        <time>2016-07-24T13:54:06Z</time>
      </trkpt>
      <trkpt lat="45.03694" lon="4.10989">
        <ele>1221</ele>
        <time>2016-07-24T13:54:20Z</time>
      </trkpt>
      <trkpt lat="45.03706" lon="4.10982">
        <ele>1221</ele>
        <time>2016-07-24T13:54:33Z</time>
      </trkpt>
      <trkpt lat="45.03714" lon="4.10974">
        <ele>1221</ele>
        <time>2016-07-24T13:54:40Z</time>
      </trkpt>
      <trkpt lat="45.0373" lon="4.10965">
        <ele>1221</ele>
        <time>2016-07-24T13:54:55Z</time>
      </trkpt>
      <trkpt lat="45.0374" lon="4.10959">
        <ele>1220</ele>
        <time>2016-07-24T13:55:07Z</time>
      </trkpt>
      <trkpt lat="45.03759" lon="4.10944">
        <ele>1221</ele>
        <time>2016-07-24T13:55:22Z</time>
      </trkpt>
      <trkpt lat="45.03761" lon="4.10943">
        <ele>1221</ele>
        <time>2016-07-24T13:55:33Z</time>
      </trkpt>
      <trkpt lat="45.0377" lon="4.1094">
        <ele>1221</ele>
        <time>2016-07-24T13:55:46Z</time>
      </trkpt>
      <trkpt lat="45.03781" lon="4.10934">
        <ele>1220</ele>
        <time>2016-07-24T13:55:58Z</time>
      </trkpt>
      <trkpt lat="45.03797" lon="4.10928">
        <ele>1220</ele>
        <time>2016-07-24T13:56:13Z</time>
      </trkpt>
      <trkpt lat="45.038" lon="4.10926">
        <ele>1220</ele>
        <time>2016-07-24T13:56:17Z</time>
      </trkpt>
      <trkpt lat="45.03813" lon="4.10928">
        <ele>1219</ele>
        <time>2016-07-24T13:56:28Z</time>
      </trkpt>
      <trkpt lat="45.03828" lon="4.10926">
        <ele>1218</ele>
        <time>2016-07-24T13:56:40Z</time>
      </trkpt>
      <trkpt lat="45.03843" lon="4.10917">
        <ele>1216</ele>
        <time>2016-07-24T13:56:51Z</time>
      </trkpt>
      <trkpt lat="45.03856" lon="4.10906">
        <ele>1210</ele>
        <time>2016-07-24T13:57:04Z</time>
      </trkpt>
      <trkpt lat="45.03871" lon="4.10902">
        <ele>1209</ele>
        <time>2016-07-24T13:57:15Z</time>
      </trkpt>
      <trkpt lat="45.03879" lon="4.10896">
        <ele>1209</ele>
        <time>2016-07-24T13:57:29Z</time>
      </trkpt>
      <trkpt lat="45.03887" lon="4.10891">
        <ele>1208</ele>
        <time>2016-07-24T13:57:42Z</time>
      </trkpt>
      <trkpt lat="45.03893" lon="4.1089">
        <ele>1208</ele>
        <time>2016-07-24T13:57:54Z</time>
      </trkpt>
      <trkpt lat="45.03901" lon="4.10887">
        <ele>1208</ele>
        <time>2016-07-24T13:58:06Z</time>
      </trkpt>
      <trkpt lat="45.03918" lon="4.10884">
        <ele>1204</ele>
        <time>2016-07-24T13:58:20Z</time>
      </trkpt>
      <trkpt lat="45.03934" lon="4.10879">
        <ele>1203</ele>
        <time>2016-07-24T13:58:36Z</time>
      </trkpt>
      <trkpt lat="45.03945" lon="4.10875">
        <ele>1202</ele>
        <time>2016-07-24T13:58:48Z</time>
      </trkpt>
      <trkpt lat="45.03959" lon="4.10873">
        <ele>1201</ele>
        <time>2016-07-24T13:59:02Z</time>
      </trkpt>
      <trkpt lat="45.03975" lon="4.10864">
        <ele>1200</ele>
        <time>2016-07-24T13:59:15Z</time>
      </trkpt>
      <trkpt lat="45.03986" lon="4.10865">
        <ele>1200</ele>
        <time>2016-07-24T13:59:23Z</time>
      </trkpt>
      <trkpt lat="45.03995" lon="4.10864">
        <ele>1199</ele>
        <time>2016-07-24T13:59:30Z</time>
      </trkpt>
      <trkpt lat="45.04009" lon="4.10868">
        <ele>1195</ele>
        <time>2016-07-24T13:59:45Z</time>
      </trkpt>
      <trkpt lat="45.04013" lon="4.10867">
        <ele>1194</ele>
        <time>2016-07-24T13:59:49Z</time>
      </trkpt>
      <trkpt lat="45.04025" lon="4.10864">
        <ele>1194</ele>
        <time>2016-07-24T14:00:00Z</time>
      </trkpt>
      <trkpt lat="45.04034" lon="4.10858">
        <ele>1193</ele>
        <time>2016-07-24T14:00:14Z</time>
      </trkpt>
      <trkpt lat="45.04043" lon="4.10853">
        <ele>1193</ele>
        <time>2016-07-24T14:00:23Z</time>
      </trkpt>
      <trkpt lat="45.04049" lon="4.10858">
        <ele>1192</ele>
        <time>2016-07-24T14:00:29Z</time>
      </trkpt>
      <trkpt lat="45.04051" lon="4.1086">
        <ele>1192</ele>
        <time>2016-07-24T14:00:31Z</time>
      </trkpt>
      <trkpt lat="45.04062" lon="4.10865">
        <ele>1192</ele>
        <time>2016-07-24T14:00:42Z</time>
      </trkpt>
      <trkpt lat="45.04067" lon="4.10865">
        <ele>1192</ele>
        <time>2016-07-24T14:00:54Z</time>
      </trkpt>
      <trkpt lat="45.04081" lon="4.10865">
        <ele>1191</ele>
        <time>2016-07-24T14:01:08Z</time>
      </trkpt>
      <trkpt lat="45.04091" lon="4.10864">
        <ele>1187</ele>
        <time>2016-07-24T14:01:19Z</time>
      </trkpt>
      <trkpt lat="45.04103" lon="4.10869">
        <ele>1187</ele>
        <time>2016-07-24T14:01:29Z</time>
      </trkpt>
      <trkpt lat="45.04116" lon="4.10874">
        <ele>1186</ele>
        <time>2016-07-24T14:01:42Z</time>
      </trkpt>
      <trkpt lat="45.04121" lon="4.10878">
        <ele>1186</ele>
        <time>2016-07-24T14:01:46Z</time>
      </trkpt>
      <trkpt lat="45.04134" lon="4.1089">
        <ele>1186</ele>
        <time>2016-07-24T14:01:58Z</time>
      </trkpt>
      <trkpt lat="45.04142" lon="4.10897">
        <ele>1186</ele>
        <time>2016-07-24T14:02:10Z</time>
      </trkpt>
      <trkpt lat="45.0415" lon="4.10905">
        <ele>1186</ele>
        <time>2016-07-24T14:02:23Z</time>
      </trkpt>
      <trkpt lat="45.0416" lon="4.10911">
        <ele>1186</ele>
        <time>2016-07-24T14:02:35Z</time>
      </trkpt>
      <trkpt lat="45.04171" lon="4.10915">
        <ele>1185</ele>
        <time>2016-07-24T14:02:47Z</time>
      </trkpt>
      <trkpt lat="45.04178" lon="4.10913">
        <ele>1183</ele>
        <time>2016-07-24T14:02:53Z</time>
      </trkpt>
      <trkpt lat="45.04192" lon="4.10907">
        <ele>1181</ele>
        <time>2016-07-24T14:03:07Z</time>
      </trkpt>
      <trkpt lat="45.042" lon="4.10904">
        <ele>1181</ele>
        <time>2016-07-24T14:03:18Z</time>
      </trkpt>
      <trkpt lat="45.04214" lon="4.10888">
        <ele>1179</ele>
        <time>2016-07-24T14:03:31Z</time>
      </trkpt>
      <trkpt lat="45.04225" lon="4.10875">
        <ele>1178</ele>
        <time>2016-07-24T14:03:44Z</time>
      </trkpt>
      <trkpt lat="45.0423" lon="4.1087">
        <ele>1178</ele>
        <time>2016-07-24T14:03:48Z</time>
      </trkpt>
      <trkpt lat="45.04238" lon="4.10862">
        <ele>1177</ele>
        <time>2016-07-24T14:03:56Z</time>
      </trkpt>
      <trkpt lat="45.04249" lon="4.1085">
        <ele>1175</ele>
        <time>2016-07-24T14:04:09Z</time>
      </trkpt>
      <trkpt lat="45.04258" lon="4.10844">
        <ele>1172</ele>
        <time>2016-07-24T14:04:21Z</time>
      </trkpt>
      <trkpt lat="45.04271" lon="4.10825">
        <ele>1168</ele>
        <time>2016-07-24T14:04:35Z</time>
      </trkpt>
      <trkpt lat="45.04278" lon="4.10813">
        <ele>1168</ele>
        <time>2016-07-24T14:04:46Z</time>
      </trkpt>
      <trkpt lat="45.04289" lon="4.10805">
        <ele>1167</ele>
        <time>2016-07-24T14:04:58Z</time>
      </trkpt>
      <trkpt lat="45.04304" lon="4.10793">
        <ele>1166</ele>
        <time>2016-07-24T14:05:13Z</time>
      </trkpt>
      <trkpt lat="45.0432" lon="4.10785">
        <ele>1165</ele>
        <time>2016-07-24T14:05:28Z</time>
      </trkpt>
      <trkpt lat="45.04329" lon="4.1078">
        <ele>1165</ele>
        <time>2016-07-24T14:05:40Z</time>
      </trkpt>
      <trkpt lat="45.04345" lon="4.10776">
        <ele>1159</ele>
        <time>2016-07-24T14:05:54Z</time>
      </trkpt>
      <trkpt lat="45.04359" lon="4.10765">
        <ele>1158</ele>
        <time>2016-07-24T14:06:08Z</time>
      </trkpt>
      <trkpt lat="45.0437" lon="4.10756">
        <ele>1157</ele>
        <time>2016-07-24T14:06:20Z</time>
      </trkpt>
      <trkpt lat="45.04381" lon="4.10757">
        <ele>1156</ele>
        <time>2016-07-24T14:06:32Z</time>
      </trkpt>
      <trkpt lat="45.04387" lon="4.10754">
        <ele>1155</ele>
        <time>2016-07-24T14:06:43Z</time>
      </trkpt>
      <trkpt lat="45.04393" lon="4.10748">
        <ele>1150</ele>
        <time>2016-07-24T14:06:58Z</time>
      </trkpt>
      <trkpt lat="45.04402" lon="4.1074">
        <ele>1150</ele>
        <time>2016-07-24T14:07:10Z</time>
      </trkpt>
      <trkpt lat="45.04411" lon="4.10733">
        <ele>1149</ele>
        <time>2016-07-24T14:07:22Z</time>
      </trkpt>
      <trkpt lat="45.04414" lon="4.10732">
        <ele>1149</ele>
        <time>2016-07-24T14:07:33Z</time>
      </trkpt>
      <trkpt lat="45.0442" lon="4.10729">
        <ele>1144</ele>
        <time>2016-07-24T14:07:38Z</time>
      </trkpt>
      <trkpt lat="45.04425" lon="4.10726">
        <ele>1144</ele>
        <time>2016-07-24T14:07:40Z</time>
      </trkpt>
      <trkpt lat="45.04433" lon="4.1072">
        <ele>1143</ele>
        <time>2016-07-24T14:07:44Z</time>
      </trkpt>
      <trkpt lat="45.04447" lon="4.1071">
        <ele>1142</ele>
        <time>2016-07-24T14:07:57Z</time>
      </trkpt>
      <trkpt lat="45.04451" lon="4.10703">
        <ele>1142</ele>
        <time>2016-07-24T14:08:07Z</time>
      </trkpt>
      <trkpt lat="45.04453" lon="4.107">
        <ele>1142</ele>
        <time>2016-07-24T14:08:09Z</time>
      </trkpt>
      <trkpt lat="45.04454" lon="4.10699">
        <ele>1142</ele>
        <time>2016-07-24T14:08:11Z</time>
      </trkpt>
      <trkpt lat="45.04458" lon="4.10699">
        <ele>1141</ele>
        <time>2016-07-24T14:08:24Z</time>
      </trkpt>
      <trkpt lat="45.04466" lon="4.10694">
        <ele>1141</ele>
        <time>2016-07-24T14:08:37Z</time>
      </trkpt>
      <trkpt lat="45.04475" lon="4.10685">
        <ele>1140</ele>
        <time>2016-07-24T14:08:50Z</time>
      </trkpt>
      <trkpt lat="45.04482" lon="4.10679">
        <ele>1139</ele>
        <time>2016-07-24T14:09:03Z</time>
      </trkpt>
      <trkpt lat="45.04488" lon="4.10673">
        <ele>1137</ele>
        <time>2016-07-24T14:09:16Z</time>
      </trkpt>
      <trkpt lat="45.04491" lon="4.1067">
        <ele>1136</ele>
        <time>2016-07-24T14:09:18Z</time>
      </trkpt>
      <trkpt lat="45.04497" lon="4.10659">
        <ele>1134</ele>
        <time>2016-07-24T14:09:30Z</time>
      </trkpt>
      <trkpt lat="45.04498" lon="4.10659">
        <ele>1134</ele>
        <time>2016-07-24T14:09:33Z</time>
      </trkpt>
      <trkpt lat="45.045" lon="4.10654">
        <ele>1134</ele>
        <time>2016-07-24T14:09:36Z</time>
      </trkpt>
      <trkpt lat="45.04508" lon="4.10646">
        <ele>1129</ele>
        <time>2016-07-24T14:09:43Z</time>
      </trkpt>
      <trkpt lat="45.04519" lon="4.10631">
        <ele>1127</ele>
        <time>2016-07-24T14:09:57Z</time>
      </trkpt>
      <trkpt lat="45.04524" lon="4.10629">
        <ele>1127</ele>
        <time>2016-07-24T14:10:09Z</time>
      </trkpt>
      <trkpt lat="45.04538" lon="4.10621">
        <ele>1126</ele>
        <time>2016-07-24T14:10:21Z</time>
      </trkpt>
      <trkpt lat="45.04552" lon="4.10611">
        <ele>1124</ele>
        <time>2016-07-24T14:10:32Z</time>
      </trkpt>
      <trkpt lat="45.04566" lon="4.10608">
        <ele>1123</ele>
        <time>2016-07-24T14:10:47Z</time>
      </trkpt>
      <trkpt lat="45.0458" lon="4.10602">
        <ele>1122</ele>
        <time>2016-07-24T14:10:59Z</time>
      </trkpt>
      <trkpt lat="45.04591" lon="4.10601">
        <ele>1116</ele>
        <time>2016-07-24T14:11:13Z</time>
      </trkpt>
      <trkpt lat="45.04592" lon="4.106">
        <ele>1116</ele>
        <time>2016-07-24T14:11:35Z</time>
      </trkpt>
      <trkpt lat="45.04594" lon="4.10603">
        <ele>1116</ele>
        <time>2016-07-24T14:11:45Z</time>
      </trkpt>
      <trkpt lat="45.04593" lon="4.10602">
        <ele>1116</ele>
        <time>2016-07-24T14:12:11Z</time>
      </trkpt>
      <trkpt lat="45.04593" lon="4.10602">
        <ele>1116</ele>
        <time>2016-07-24T14:12:37Z</time>
      </trkpt>
      <trkpt lat="45.04594" lon="4.10599">
        <ele>1116</ele>
        <time>2016-07-24T14:12:45Z</time>
      </trkpt>
      <trkpt lat="45.046" lon="4.10599">
        <ele>1116</ele>
        <time>2016-07-24T14:12:56Z</time>
      </trkpt>
      <trkpt lat="45.0461" lon="4.10598">
        <ele>1116</ele>
        <time>2016-07-24T14:13:08Z</time>
      </trkpt>
      <trkpt lat="45.04625" lon="4.10597">
        <ele>1114</ele>
        <time>2016-07-24T14:13:24Z</time>
      </trkpt>
      <trkpt lat="45.04626" lon="4.106">
        <ele>1115</ele>
        <time>2016-07-24T14:13:36Z</time>
      </trkpt>
      <trkpt lat="45.04634" lon="4.106">
        <ele>1114</ele>
        <time>2016-07-24T14:13:50Z</time>
      </trkpt>
      <trkpt lat="45.04646" lon="4.10597">
        <ele>1112</ele>
        <time>2016-07-24T14:14:03Z</time>
      </trkpt>
      <trkpt lat="45.04655" lon="4.10599">
        <ele>1112</ele>
        <time>2016-07-24T14:14:15Z</time>
      </trkpt>
      <trkpt lat="45.04657" lon="4.106">
        <ele>1112</ele>
        <time>2016-07-24T14:14:29Z</time>
      </trkpt>
      <trkpt lat="45.0466" lon="4.10599">
        <ele>1111</ele>
        <time>2016-07-24T14:14:42Z</time>
      </trkpt>
      <trkpt lat="45.04661" lon="4.10598">
        <ele>1111</ele>
        <time>2016-07-24T14:14:45Z</time>
      </trkpt>
      <trkpt lat="45.04669" lon="4.10599">
        <ele>1105</ele>
        <time>2016-07-24T14:14:56Z</time>
      </trkpt>
      <trkpt lat="45.04678" lon="4.10596">
        <ele>1105</ele>
        <time>2016-07-24T14:15:06Z</time>
      </trkpt>
      <trkpt lat="45.04689" lon="4.10592">
        <ele>1104</ele>
        <time>2016-07-24T14:15:15Z</time>
      </trkpt>
      <trkpt lat="45.04693" lon="4.10587">
        <ele>1104</ele>
        <time>2016-07-24T14:15:29Z</time>
      </trkpt>
      <trkpt lat="45.04705" lon="4.10588">
        <ele>1102</ele>
        <time>2016-07-24T14:15:40Z</time>
      </trkpt>
      <trkpt lat="45.04719" lon="4.1059">
        <ele>1101</ele>
        <time>2016-07-24T14:15:51Z</time>
      </trkpt>
      <trkpt lat="45.04724" lon="4.1059">
        <ele>1100</ele>
        <time>2016-07-24T14:15:55Z</time>
      </trkpt>
      <trkpt lat="45.04743" lon="4.10591">
        <ele>1097</ele>
        <time>2016-07-24T14:16:07Z</time>
      </trkpt>
      <trkpt lat="45.04754" lon="4.10591">
        <ele>1092</ele>
        <time>2016-07-24T14:16:16Z</time>
      </trkpt>
      <trkpt lat="45.04758" lon="4.10594">
        <ele>1092</ele>
        <time>2016-07-24T14:16:20Z</time>
      </trkpt>
      <trkpt lat="45.04769" lon="4.10609">
        <ele>1090</ele>
        <time>2016-07-24T14:16:33Z</time>
      </trkpt>
      <trkpt lat="45.04774" lon="4.10609">
        <ele>1090</ele>
        <time>2016-07-24T14:16:39Z</time>
      </trkpt>
      <trkpt lat="45.0477" lon="4.10589">
        <ele>1091</ele>
        <time>2016-07-24T14:16:55Z</time>
      </trkpt>
      <trkpt lat="45.04758" lon="4.1056">
        <ele>1090</ele>
        <time>2016-07-24T14:17:14Z</time>
      </trkpt>
      <trkpt lat="45.04746" lon="4.10541">
        <ele>1096</ele>
        <time>2016-07-24T14:17:28Z</time>
      </trkpt>
      <trkpt lat="45.04741" lon="4.1053">
        <ele>1095</ele>
        <time>2016-07-24T14:17:35Z</time>
      </trkpt>
      <trkpt lat="45.04731" lon="4.10512">
        <ele>1094</ele>
        <time>2016-07-24T14:17:47Z</time>
      </trkpt>
      <trkpt lat="45.04728" lon="4.10508">
        <ele>1095</ele>
        <time>2016-07-24T14:17:50Z</time>
      </trkpt>
      <trkpt lat="45.0472" lon="4.10484">
        <ele>1093</ele>
        <time>2016-07-24T14:18:05Z</time>
      </trkpt>
      <trkpt lat="45.0471" lon="4.10448">
        <ele>1094</ele>
        <time>2016-07-24T14:18:25Z</time>
      </trkpt>
      <trkpt lat="45.04709" lon="4.10421">
        <ele>1094</ele>
        <time>2016-07-24T14:18:40Z</time>
      </trkpt>
      <trkpt lat="45.04703" lon="4.1039">
        <ele>1093</ele>
        <time>2016-07-24T14:18:58Z</time>
      </trkpt>
      <trkpt lat="45.04694" lon="4.1037">
        <ele>1094</ele>
        <time>2016-07-24T14:19:12Z</time>
      </trkpt>
      <trkpt lat="45.04693" lon="4.10369">
        <ele>1094</ele>
        <time>2016-07-24T14:19:13Z</time>
      </trkpt>
      <trkpt lat="45.04681" lon="4.10348">
        <ele>1096</ele>
        <time>2016-07-24T14:19:27Z</time>
      </trkpt>
      <trkpt lat="45.04671" lon="4.10325">
        <ele>1097</ele>
        <time>2016-07-24T14:19:42Z</time>
      </trkpt>
      <trkpt lat="45.04668" lon="4.1032">
        <ele>1097</ele>
        <time>2016-07-24T14:19:46Z</time>
      </trkpt>
      <trkpt lat="45.04659" lon="4.10291">
        <ele>1102</ele>
        <time>2016-07-24T14:20:03Z</time>
      </trkpt>
      <trkpt lat="45.04655" lon="4.10278">
        <ele>1102</ele>
        <time>2016-07-24T14:20:14Z</time>
      </trkpt>
      <trkpt lat="45.04653" lon="4.1027">
        <ele>1102</ele>
        <time>2016-07-24T14:20:19Z</time>
      </trkpt>
      <trkpt lat="45.04645" lon="4.10239">
        <ele>1102</ele>
        <time>2016-07-24T14:20:36Z</time>
      </trkpt>
      <trkpt lat="45.04636" lon="4.10219">
        <ele>1102</ele>
        <time>2016-07-24T14:20:50Z</time>
      </trkpt>
      <trkpt lat="45.04634" lon="4.10214">
        <ele>1102</ele>
        <time>2016-07-24T14:20:54Z</time>
      </trkpt>
      <trkpt lat="45.04635" lon="4.10209">
        <ele>1102</ele>
        <time>2016-07-24T14:20:57Z</time>
      </trkpt>
      <trkpt lat="45.0464" lon="4.10189">
        <ele>1102</ele>
        <time>2016-07-24T14:21:12Z</time>
      </trkpt>
      <trkpt lat="45.04646" lon="4.10178">
        <ele>1102</ele>
        <time>2016-07-24T14:21:22Z</time>
      </trkpt>
      <trkpt lat="45.04659" lon="4.10159">
        <ele>1101</ele>
        <time>2016-07-24T14:21:37Z</time>
      </trkpt>
      <trkpt lat="45.0466" lon="4.10157">
        <ele>1101</ele>
        <time>2016-07-24T14:21:39Z</time>
      </trkpt>
      <trkpt lat="45.04664" lon="4.10155">
        <ele>1101</ele>
        <time>2016-07-24T14:21:42Z</time>
      </trkpt>
      <trkpt lat="45.04675" lon="4.10138">
        <ele>1098</ele>
        <time>2016-07-24T14:21:53Z</time>
      </trkpt>
      <trkpt lat="45.04687" lon="4.10124">
        <ele>1097</ele>
        <time>2016-07-24T14:22:06Z</time>
      </trkpt>
      <trkpt lat="45.04701" lon="4.10108">
        <ele>1097</ele>
        <time>2016-07-24T14:22:21Z</time>
      </trkpt>
      <trkpt lat="45.04713" lon="4.10093">
        <ele>1096</ele>
        <time>2016-07-24T14:22:34Z</time>
      </trkpt>
      <trkpt lat="45.04722" lon="4.10083">
        <ele>1098</ele>
        <time>2016-07-24T14:22:46Z</time>
      </trkpt>
      <trkpt lat="45.04727" lon="4.10077">
        <ele>1097</ele>
        <time>2016-07-24T14:22:52Z</time>
      </trkpt>
      <trkpt lat="45.0474" lon="4.10063">
        <ele>1097</ele>
        <time>2016-07-24T14:23:06Z</time>
      </trkpt>
      <trkpt lat="45.04746" lon="4.10056">
        <ele>1098</ele>
        <time>2016-07-24T14:23:12Z</time>
      </trkpt>
      <trkpt lat="45.04766" lon="4.10041">
        <ele>1098</ele>
        <time>2016-07-24T14:23:30Z</time>
      </trkpt>
      <trkpt lat="45.04777" lon="4.10036">
        <ele>1098</ele>
        <time>2016-07-24T14:23:40Z</time>
      </trkpt>
      <trkpt lat="45.04785" lon="4.10032">
        <ele>1099</ele>
        <time>2016-07-24T14:23:47Z</time>
      </trkpt>
      <trkpt lat="45.04802" lon="4.10029">
        <ele>1099</ele>
        <time>2016-07-24T14:24:03Z</time>
      </trkpt>
      <trkpt lat="45.04809" lon="4.10027">
        <ele>1099</ele>
        <time>2016-07-24T14:24:09Z</time>
      </trkpt>
      <trkpt lat="45.04825" lon="4.10018">
        <ele>1101</ele>
        <time>2016-07-24T14:24:23Z</time>
      </trkpt>
      <trkpt lat="45.04832" lon="4.10014">
        <ele>1101</ele>
        <time>2016-07-24T14:24:30Z</time>
      </trkpt>
      <trkpt lat="45.04833" lon="4.1">
        <ele>1104</ele>
        <time>2016-07-24T14:24:39Z</time>
      </trkpt>
      <trkpt lat="45.04832" lon="4.09998">
        <ele>1105</ele>
        <time>2016-07-24T14:24:41Z</time>
      </trkpt>
      <trkpt lat="45.04832" lon="4.09977">
        <ele>1109</ele>
        <time>2016-07-24T14:24:57Z</time>
      </trkpt>
      <trkpt lat="45.04837" lon="4.09967">
        <ele>1111</ele>
        <time>2016-07-24T14:25:09Z</time>
      </trkpt>
      <trkpt lat="45.04846" lon="4.09956">
        <ele>1112</ele>
        <time>2016-07-24T14:25:20Z</time>
      </trkpt>
      <trkpt lat="45.04855" lon="4.09947">
        <ele>1113</ele>
        <time>2016-07-24T14:25:33Z</time>
      </trkpt>
      <trkpt lat="45.04858" lon="4.0994">
        <ele>1114</ele>
        <time>2016-07-24T14:25:40Z</time>
      </trkpt>
      <trkpt lat="45.04859" lon="4.09923">
        <ele>1116</ele>
        <time>2016-07-24T14:25:52Z</time>
      </trkpt>
      <trkpt lat="45.04855" lon="4.09912">
        <ele>1129</ele>
        <time>2016-07-24T14:26:04Z</time>
      </trkpt>
      <trkpt lat="45.04854" lon="4.09911">
        <ele>1129</ele>
        <time>2016-07-24T14:26:05Z</time>
      </trkpt>
      <trkpt lat="45.04842" lon="4.09904">
        <ele>1128</ele>
        <time>2016-07-24T14:26:16Z</time>
      </trkpt>
      <trkpt lat="45.04832" lon="4.09896">
        <ele>1126</ele>
        <time>2016-07-24T14:26:30Z</time>
      </trkpt>
      <trkpt lat="45.04829" lon="4.09896">
        <ele>1125</ele>
        <time>2016-07-24T14:26:42Z</time>
      </trkpt>
      <trkpt lat="45.04828" lon="4.09896">
        <ele>1125</ele>
        <time>2016-07-24T14:27:03Z</time>
      </trkpt>
      <trkpt lat="45.04829" lon="4.09898">
        <ele>1125</ele>
        <time>2016-07-24T14:27:29Z</time>
      </trkpt>
      <trkpt lat="45.04825" lon="4.09895">
        <ele>1126</ele>
        <time>2016-07-24T14:27:51Z</time>
      </trkpt>
      <trkpt lat="45.04823" lon="4.09894">
        <ele>1126</ele>
        <time>2016-07-24T14:28:19Z</time>
      </trkpt>
      <trkpt lat="45.04822" lon="4.09893">
        <ele>1126</ele>
        <time>2016-07-24T14:28:38Z</time>
      </trkpt>
      <trkpt lat="45.04821" lon="4.09893">
        <ele>1126</ele>
        <time>2016-07-24T14:28:58Z</time>
      </trkpt>
      <trkpt lat="45.0482" lon="4.09893">
        <ele>1126</ele>
        <time>2016-07-24T14:29:24Z</time>
      </trkpt>
      <trkpt lat="45.04819" lon="4.09893">
        <ele>1126</ele>
        <time>2016-07-24T14:29:50Z</time>
      </trkpt>
      <trkpt lat="45.04819" lon="4.09891">
        <ele>1126</ele>
        <time>2016-07-24T14:30:05Z</time>
      </trkpt>
      <trkpt lat="45.04823" lon="4.09884">
        <ele>1127</ele>
        <time>2016-07-24T14:30:19Z</time>
      </trkpt>
      <trkpt lat="45.04833" lon="4.09878">
        <ele>1129</ele>
        <time>2016-07-24T14:30:32Z</time>
      </trkpt>
      <trkpt lat="45.04839" lon="4.09875">
        <ele>1135</ele>
        <time>2016-07-24T14:30:44Z</time>
      </trkpt>
      <trkpt lat="45.04846" lon="4.09871">
        <ele>1136</ele>
        <time>2016-07-24T14:30:56Z</time>
      </trkpt>
      <trkpt lat="45.04853" lon="4.09869">
        <ele>1136</ele>
        <time>2016-07-24T14:31:10Z</time>
      </trkpt>
      <trkpt lat="45.04865" lon="4.09866">
        <ele>1136</ele>
        <time>2016-07-24T14:31:25Z</time>
      </trkpt>
      <trkpt lat="45.04873" lon="4.09865">
        <ele>1137</ele>
        <time>2016-07-24T14:31:38Z</time>
      </trkpt>
      <trkpt lat="45.04885" lon="4.09853">
        <ele>1139</ele>
        <time>2016-07-24T14:31:51Z</time>
      </trkpt>
      <trkpt lat="45.0489" lon="4.09849">
        <ele>1140</ele>
        <time>2016-07-24T14:32:04Z</time>
      </trkpt>
      <trkpt lat="45.04893" lon="4.09843">
        <ele>1141</ele>
        <time>2016-07-24T14:32:17Z</time>
      </trkpt>
      <trkpt lat="45.04892" lon="4.09841">
        <ele>1141</ele>
        <time>2016-07-24T14:32:29Z</time>
      </trkpt>
      <trkpt lat="45.04891" lon="4.09838">
        <ele>1141</ele>
        <time>2016-07-24T14:32:40Z</time>
      </trkpt>
      <trkpt lat="45.04893" lon="4.09832">
        <ele>1154</ele>
        <time>2016-07-24T14:32:50Z</time>
      </trkpt>
      <trkpt lat="45.04891" lon="4.09828">
        <ele>1154</ele>
        <time>2016-07-24T14:33:01Z</time>
      </trkpt>
      <trkpt lat="45.04889" lon="4.09822">
        <ele>1155</ele>
        <time>2016-07-24T14:33:12Z</time>
      </trkpt>
      <trkpt lat="45.04888" lon="4.09813">
        <ele>1155</ele>
        <time>2016-07-24T14:33:24Z</time>
      </trkpt>
      <trkpt lat="45.04885" lon="4.0981">
        <ele>1155</ele>
        <time>2016-07-24T14:33:34Z</time>
      </trkpt>
      <trkpt lat="45.04883" lon="4.09806">
        <ele>1156</ele>
        <time>2016-07-24T14:33:43Z</time>
      </trkpt>
      <trkpt lat="45.04879" lon="4.09802">
        <ele>1156</ele>
        <time>2016-07-24T14:33:56Z</time>
      </trkpt>
      <trkpt lat="45.04876" lon="4.09795">
        <ele>1157</ele>
        <time>2016-07-24T14:34:06Z</time>
      </trkpt>
      <trkpt lat="45.04873" lon="4.09791">
        <ele>1157</ele>
        <time>2016-07-24T14:34:17Z</time>
      </trkpt>
      <trkpt lat="45.0487" lon="4.09789">
        <ele>1157</ele>
        <time>2016-07-24T14:34:27Z</time>
      </trkpt>
      <trkpt lat="45.04869" lon="4.09782">
        <ele>1157</ele>
        <time>2016-07-24T14:34:37Z</time>
      </trkpt>
      <trkpt lat="45.04868" lon="4.09779">
        <ele>1157</ele>
        <time>2016-07-24T14:34:47Z</time>
      </trkpt>
      <trkpt lat="45.04863" lon="4.09777">
        <ele>1157</ele>
        <time>2016-07-24T14:34:59Z</time>
      </trkpt>
      <trkpt lat="45.0486" lon="4.09775">
        <ele>1157</ele>
        <time>2016-07-24T14:35:10Z</time>
      </trkpt>
      <trkpt lat="45.04857" lon="4.09773">
        <ele>1157</ele>
        <time>2016-07-24T14:35:17Z</time>
      </trkpt>
      <trkpt lat="45.04855" lon="4.09772">
        <ele>1157</ele>
        <time>2016-07-24T14:35:27Z</time>
      </trkpt>
      <trkpt lat="45.04849" lon="4.09769">
        <ele>1157</ele>
        <time>2016-07-24T14:35:39Z</time>
      </trkpt>
      <trkpt lat="45.04848" lon="4.09765">
        <ele>1158</ele>
        <time>2016-07-24T14:35:50Z</time>
      </trkpt>
      <trkpt lat="45.04855" lon="4.09764">
        <ele>1158</ele>
        <time>2016-07-24T14:36:02Z</time>
      </trkpt>
      <trkpt lat="45.04855" lon="4.09764">
        <ele>1158</ele>
        <time>2016-07-24T14:36:15Z</time>
      </trkpt>
      <trkpt lat="45.04855" lon="4.09763">
        <ele>1158</ele>
        <time>2016-07-24T14:36:29Z</time>
      </trkpt>
      <trkpt lat="45.04856" lon="4.09761">
        <ele>1158</ele>
        <time>2016-07-24T14:36:43Z</time>
      </trkpt>
      <trkpt lat="45.04858" lon="4.09762">
        <ele>1158</ele>
        <time>2016-07-24T14:37:02Z</time>
      </trkpt>
      <trkpt lat="45.04858" lon="4.09764">
        <ele>1158</ele>
        <time>2016-07-24T14:37:11Z</time>
      </trkpt>
      <trkpt lat="45.04858" lon="4.09762">
        <ele>1158</ele>
        <time>2016-07-24T14:37:30Z</time>
      </trkpt>
      <trkpt lat="45.04857" lon="4.09761">
        <ele>1158</ele>
        <time>2016-07-24T14:37:43Z</time>
      </trkpt>
      <trkpt lat="45.04857" lon="4.09761">
        <ele>1158</ele>
        <time>2016-07-24T14:38:01Z</time>
      </trkpt>
      <trkpt lat="45.04857" lon="4.09761">
        <ele>1158</ele>
        <time>2016-07-24T14:38:23Z</time>
      </trkpt>
      <trkpt lat="45.04859" lon="4.0976">
        <ele>1158</ele>
        <time>2016-07-24T14:38:32Z</time>
      </trkpt>
      <trkpt lat="45.04861" lon="4.09757">
        <ele>1158</ele>
        <time>2016-07-24T14:38:36Z</time>
      </trkpt>
      <trkpt lat="45.04866" lon="4.09755">
        <ele>1159</ele>
        <time>2016-07-24T14:38:47Z</time>
      </trkpt>
      <trkpt lat="45.0487" lon="4.09755">
        <ele>1159</ele>
        <time>2016-07-24T14:38:57Z</time>
      </trkpt>
      <trkpt lat="45.04877" lon="4.09751">
        <ele>1160</ele>
        <time>2016-07-24T14:39:07Z</time>
      </trkpt>
      <trkpt lat="45.04885" lon="4.09749">
        <ele>1155</ele>
        <time>2016-07-24T14:39:20Z</time>
      </trkpt>
      <trkpt lat="45.04894" lon="4.09751">
        <ele>1162</ele>
        <time>2016-07-24T14:39:34Z</time>
      </trkpt>
      <trkpt lat="45.04902" lon="4.0975">
        <ele>1161</ele>
        <time>2016-07-24T14:39:47Z</time>
      </trkpt>
      <trkpt lat="45.04907" lon="4.0975">
        <ele>1163</ele>
        <time>2016-07-24T14:40:01Z</time>
      </trkpt>
      <trkpt lat="45.0491" lon="4.09749">
        <ele>1165</ele>
        <time>2016-07-24T14:40:14Z</time>
      </trkpt>
      <trkpt lat="45.04911" lon="4.09749">
        <ele>1165</ele>
        <time>2016-07-24T14:40:32Z</time>
      </trkpt>
      <trkpt lat="45.04912" lon="4.0975">
        <ele>1166</ele>
        <time>2016-07-24T14:40:54Z</time>
      </trkpt>
      <trkpt lat="45.04912" lon="4.09749">
        <ele>1166</ele>
        <time>2016-07-24T14:41:08Z</time>
      </trkpt>
      <trkpt lat="45.04911" lon="4.09749">
        <ele>1165</ele>
        <time>2016-07-24T14:41:37Z</time>
      </trkpt>
      <trkpt lat="45.04911" lon="4.09749">
        <ele>1165</ele>
        <time>2016-07-24T14:42:09Z</time>
      </trkpt>
      <trkpt lat="45.0491" lon="4.09748">
        <ele>1165</ele>
        <time>2016-07-24T14:42:44Z</time>
      </trkpt>
      <trkpt lat="45.0491" lon="4.09747">
        <ele>1165</ele>
        <time>2016-07-24T14:43:17Z</time>
      </trkpt>
      <trkpt lat="45.0491" lon="4.09747">
        <ele>1165</ele>
        <time>2016-07-24T14:43:55Z</time>
      </trkpt>
      <trkpt lat="45.04911" lon="4.09748">
        <ele>1165</ele>
        <time>2016-07-24T14:44:30Z</time>
      </trkpt>
      <trkpt lat="45.04911" lon="4.09748">
        <ele>1165</ele>
        <time>2016-07-24T14:45:05Z</time>
      </trkpt>
      <trkpt lat="45.04911" lon="4.09749">
        <ele>1165</ele>
        <time>2016-07-24T14:45:21Z</time>
      </trkpt>
      <trkpt lat="45.04907" lon="4.09749">
        <ele>1163</ele>
        <time>2016-07-24T14:45:30Z</time>
      </trkpt>
      <trkpt lat="45.04902" lon="4.0975">
        <ele>1161</ele>
        <time>2016-07-24T14:45:39Z</time>
      </trkpt>
      <trkpt lat="45.04893" lon="4.09749">
        <ele>1157</ele>
        <time>2016-07-24T14:45:52Z</time>
      </trkpt>
      <trkpt lat="45.04888" lon="4.09749">
        <ele>1156</ele>
        <time>2016-07-24T14:46:04Z</time>
      </trkpt>
      <trkpt lat="45.04883" lon="4.09751">
        <ele>1160</ele>
        <time>2016-07-24T14:46:16Z</time>
      </trkpt>
      <trkpt lat="45.04878" lon="4.09752">
        <ele>1160</ele>
        <time>2016-07-24T14:46:28Z</time>
      </trkpt>
      <trkpt lat="45.04877" lon="4.09752">
        <ele>1160</ele>
        <time>2016-07-24T14:46:39Z</time>
      </trkpt>
      <trkpt lat="45.04874" lon="4.09753">
        <ele>1159</ele>
        <time>2016-07-24T14:46:54Z</time>
      </trkpt>
      <trkpt lat="45.04874" lon="4.09753">
        <ele>1159</ele>
        <time>2016-07-24T14:46:55Z</time>
      </trkpt>
      <trkpt lat="45.0487" lon="4.09756">
        <ele>1159</ele>
        <time>2016-07-24T14:47:00Z</time>
      </trkpt>
      <trkpt lat="45.04866" lon="4.09757">
        <ele>1159</ele>
        <time>2016-07-24T14:47:11Z</time>
      </trkpt>
      <trkpt lat="45.04858" lon="4.09758">
        <ele>1158</ele>
        <time>2016-07-24T14:47:22Z</time>
      </trkpt>
      <trkpt lat="45.04853" lon="4.09759">
        <ele>1158</ele>
        <time>2016-07-24T14:47:32Z</time>
      </trkpt>
      <trkpt lat="45.04851" lon="4.0976">
        <ele>1158</ele>
        <time>2016-07-24T14:47:43Z</time>
      </trkpt>
      <trkpt lat="45.04851" lon="4.09765">
        <ele>1158</ele>
        <time>2016-07-24T14:47:54Z</time>
      </trkpt>
      <trkpt lat="45.04849" lon="4.09769">
        <ele>1157</ele>
        <time>2016-07-24T14:48:04Z</time>
      </trkpt>
      <trkpt lat="45.04852" lon="4.09773">
        <ele>1157</ele>
        <time>2016-07-24T14:48:18Z</time>
      </trkpt>
      <trkpt lat="45.04855" lon="4.09774">
        <ele>1157</ele>
        <time>2016-07-24T14:48:28Z</time>
      </trkpt>
      <trkpt lat="45.04859" lon="4.09777">
        <ele>1157</ele>
        <time>2016-07-24T14:48:42Z</time>
      </trkpt>
      <trkpt lat="45.04861" lon="4.09779">
        <ele>1157</ele>
        <time>2016-07-24T14:48:56Z</time>
      </trkpt>
      <trkpt lat="45.04865" lon="4.09782">
        <ele>1157</ele>
        <time>2016-07-24T14:49:09Z</time>
      </trkpt>
      <trkpt lat="45.04866" lon="4.09785">
        <ele>1157</ele>
        <time>2016-07-24T14:49:20Z</time>
      </trkpt>
      <trkpt lat="45.0487" lon="4.0979">
        <ele>1157</ele>
        <time>2016-07-24T14:49:32Z</time>
      </trkpt>
      <trkpt lat="45.04872" lon="4.09793">
        <ele>1157</ele>
        <time>2016-07-24T14:49:42Z</time>
      </trkpt>
      <trkpt lat="45.04873" lon="4.09797">
        <ele>1156</ele>
        <time>2016-07-24T14:49:56Z</time>
      </trkpt>
      <trkpt lat="45.04874" lon="4.098">
        <ele>1156</ele>
        <time>2016-07-24T14:50:07Z</time>
      </trkpt>
      <trkpt lat="45.04877" lon="4.09804">
        <ele>1156</ele>
        <time>2016-07-24T14:50:20Z</time>
      </trkpt>
      <trkpt lat="45.0488" lon="4.09807">
        <ele>1156</ele>
        <time>2016-07-24T14:50:36Z</time>
      </trkpt>
      <trkpt lat="45.04882" lon="4.09813">
        <ele>1155</ele>
        <time>2016-07-24T14:50:51Z</time>
      </trkpt>
      <trkpt lat="45.04883" lon="4.09818">
        <ele>1155</ele>
        <time>2016-07-24T14:51:06Z</time>
      </trkpt>
      <trkpt lat="45.04886" lon="4.09821">
        <ele>1155</ele>
        <time>2016-07-24T14:51:17Z</time>
      </trkpt>
      <trkpt lat="45.04887" lon="4.09825">
        <ele>1154</ele>
        <time>2016-07-24T14:51:31Z</time>
      </trkpt>
      <trkpt lat="45.04887" lon="4.09826">
        <ele>1154</ele>
        <time>2016-07-24T14:51:33Z</time>
      </trkpt>
      <trkpt lat="45.04889" lon="4.09834">
        <ele>1141</ele>
        <time>2016-07-24T14:51:45Z</time>
      </trkpt>
      <trkpt lat="45.04893" lon="4.09842">
        <ele>1141</ele>
        <time>2016-07-24T14:52:00Z</time>
      </trkpt>
      <trkpt lat="45.04899" lon="4.09857">
        <ele>1139</ele>
        <time>2016-07-24T14:52:13Z</time>
      </trkpt>
      <trkpt lat="45.04893" lon="4.09861">
        <ele>1138</ele>
        <time>2016-07-24T14:52:26Z</time>
      </trkpt>
      <trkpt lat="45.04884" lon="4.09867">
        <ele>1136</ele>
        <time>2016-07-24T14:52:39Z</time>
      </trkpt>
      <trkpt lat="45.0488" lon="4.09869">
        <ele>1136</ele>
        <time>2016-07-24T14:52:51Z</time>
      </trkpt>
      <trkpt lat="45.04878" lon="4.09874">
        <ele>1135</ele>
        <time>2016-07-24T14:53:05Z</time>
      </trkpt>
      <trkpt lat="45.04879" lon="4.09879">
        <ele>1134</ele>
        <time>2016-07-24T14:53:20Z</time>
      </trkpt>
      <trkpt lat="45.04868" lon="4.09884">
        <ele>1133</ele>
        <time>2016-07-24T14:53:34Z</time>
      </trkpt>
      <trkpt lat="45.04869" lon="4.09888">
        <ele>1133</ele>
        <time>2016-07-24T14:53:51Z</time>
      </trkpt>
      <trkpt lat="45.04837" lon="4.09892">
        <ele>1131</ele>
        <time>2016-07-24T14:54:03Z</time>
      </trkpt>
      <trkpt lat="45.04827" lon="4.09893">
        <ele>1126</ele>
        <time>2016-07-24T14:54:21Z</time>
      </trkpt>
      <trkpt lat="45.04821" lon="4.09894">
        <ele>1126</ele>
        <time>2016-07-24T14:54:41Z</time>
      </trkpt>
      <trkpt lat="45.04815" lon="4.0989">
        <ele>1126</ele>
        <time>2016-07-24T14:54:55Z</time>
      </trkpt>
      <trkpt lat="45.0481" lon="4.09884">
        <ele>1126</ele>
        <time>2016-07-24T14:55:09Z</time>
      </trkpt>
      <trkpt lat="45.04807" lon="4.09881">
        <ele>1126</ele>
        <time>2016-07-24T14:55:12Z</time>
      </trkpt>
      <trkpt lat="45.04788" lon="4.09867">
        <ele>1125</ele>
        <time>2016-07-24T14:55:27Z</time>
      </trkpt>
      <trkpt lat="45.0478" lon="4.09861">
        <ele>1125</ele>
        <time>2016-07-24T14:55:40Z</time>
      </trkpt>
      <trkpt lat="45.04771" lon="4.0986">
        <ele>1124</ele>
        <time>2016-07-24T14:55:56Z</time>
      </trkpt>
      <trkpt lat="45.04764" lon="4.09865">
        <ele>1123</ele>
        <time>2016-07-24T14:56:11Z</time>
      </trkpt>
      <trkpt lat="45.04748" lon="4.09858">
        <ele>1111</ele>
        <time>2016-07-24T14:56:26Z</time>
      </trkpt>
      <trkpt lat="45.04741" lon="4.09847">
        <ele>1112</ele>
        <time>2016-07-24T14:56:37Z</time>
      </trkpt>
      <trkpt lat="45.04736" lon="4.09831">
        <ele>1112</ele>
        <time>2016-07-24T14:56:51Z</time>
      </trkpt>
      <trkpt lat="45.04729" lon="4.09815">
        <ele>1109</ele>
        <time>2016-07-24T14:57:03Z</time>
      </trkpt>
      <trkpt lat="45.04726" lon="4.09795">
        <ele>1108</ele>
        <time>2016-07-24T14:57:15Z</time>
      </trkpt>
      <trkpt lat="45.04722" lon="4.09776">
        <ele>1107</ele>
        <time>2016-07-24T14:57:30Z</time>
      </trkpt>
      <trkpt lat="45.0472" lon="4.09763">
        <ele>1107</ele>
        <time>2016-07-24T14:57:42Z</time>
      </trkpt>
      <trkpt lat="45.04718" lon="4.09739">
        <ele>1101</ele>
        <time>2016-07-24T14:57:55Z</time>
      </trkpt>
      <trkpt lat="45.0472" lon="4.0972">
        <ele>1100</ele>
        <time>2016-07-24T14:58:06Z</time>
      </trkpt>
      <trkpt lat="45.04723" lon="4.09707">
        <ele>1099</ele>
        <time>2016-07-24T14:58:16Z</time>
      </trkpt>
      <trkpt lat="45.04724" lon="4.09699">
        <ele>1098</ele>
        <time>2016-07-24T14:58:29Z</time>
      </trkpt>
      <trkpt lat="45.04717" lon="4.09692">
        <ele>1097</ele>
        <time>2016-07-24T14:58:44Z</time>
      </trkpt>
      <trkpt lat="45.04715" lon="4.09683">
        <ele>1096</ele>
        <time>2016-07-24T14:58:56Z</time>
      </trkpt>
      <trkpt lat="45.04708" lon="4.09664">
        <ele>1085</ele>
        <time>2016-07-24T14:59:11Z</time>
      </trkpt>
      <trkpt lat="45.04708" lon="4.09662">
        <ele>1085</ele>
        <time>2016-07-24T14:59:13Z</time>
      </trkpt>
      <trkpt lat="45.04712" lon="4.09646">
        <ele>1084</ele>
        <time>2016-07-24T14:59:22Z</time>
      </trkpt>
      <trkpt lat="45.04712" lon="4.09638">
        <ele>1083</ele>
        <time>2016-07-24T14:59:27Z</time>
      </trkpt>
      <trkpt lat="45.04715" lon="4.09621">
        <ele>1082</ele>
        <time>2016-07-24T14:59:39Z</time>
      </trkpt>
      <trkpt lat="45.04722" lon="4.09608">
        <ele>1081</ele>
        <time>2016-07-24T14:59:50Z</time>
      </trkpt>
      <trkpt lat="45.04728" lon="4.09599">
        <ele>1080</ele>
        <time>2016-07-24T15:00:00Z</time>
      </trkpt>
      <trkpt lat="45.04734" lon="4.09589">
        <ele>1080</ele>
        <time>2016-07-24T15:00:17Z</time>
      </trkpt>
      <trkpt lat="45.04735" lon="4.09587">
        <ele>1079</ele>
        <time>2016-07-24T15:00:36Z</time>
      </trkpt>
      <trkpt lat="45.04738" lon="4.09583">
        <ele>1073</ele>
        <time>2016-07-24T15:00:52Z</time>
      </trkpt>
      <trkpt lat="45.04741" lon="4.09578">
        <ele>1073</ele>
        <time>2016-07-24T15:01:10Z</time>
      </trkpt>
      <trkpt lat="45.04742" lon="4.09575">
        <ele>1073</ele>
        <time>2016-07-24T15:01:27Z</time>
      </trkpt>
      <trkpt lat="45.04742" lon="4.09575">
        <ele>1073</ele>
        <time>2016-07-24T15:01:47Z</time>
      </trkpt>
      <trkpt lat="45.04744" lon="4.09573">
        <ele>1073</ele>
        <time>2016-07-24T15:02:16Z</time>
      </trkpt>
      <trkpt lat="45.04744" lon="4.09573">
        <ele>1073</ele>
        <time>2016-07-24T15:02:49Z</time>
      </trkpt>
      <trkpt lat="45.04744" lon="4.09572">
        <ele>1073</ele>
        <time>2016-07-24T15:03:14Z</time>
      </trkpt>
      <trkpt lat="45.04744" lon="4.0957">
        <ele>1072</ele>
        <time>2016-07-24T15:03:31Z</time>
      </trkpt>
      <trkpt lat="45.04747" lon="4.09564">
        <ele>1071</ele>
        <time>2016-07-24T15:03:41Z</time>
      </trkpt>
      <trkpt lat="45.04754" lon="4.09559">
        <ele>1074</ele>
        <time>2016-07-24T15:03:56Z</time>
      </trkpt>
      <trkpt lat="45.04756" lon="4.09557">
        <ele>1073</ele>
        <time>2016-07-24T15:04:01Z</time>
      </trkpt>
      <trkpt lat="45.04765" lon="4.09548">
        <ele>1072</ele>
        <time>2016-07-24T15:04:14Z</time>
      </trkpt>
      <trkpt lat="45.0477" lon="4.09534">
        <ele>1070</ele>
        <time>2016-07-24T15:04:27Z</time>
      </trkpt>
      <trkpt lat="45.04777" lon="4.09525">
        <ele>1069</ele>
        <time>2016-07-24T15:04:44Z</time>
      </trkpt>
      <trkpt lat="45.04779" lon="4.09522">
        <ele>1069</ele>
        <time>2016-07-24T15:05:02Z</time>
      </trkpt>
      <trkpt lat="45.04783" lon="4.09515">
        <ele>1068</ele>
        <time>2016-07-24T15:05:17Z</time>
      </trkpt>
      <trkpt lat="45.04784" lon="4.09507">
        <ele>1068</ele>
        <time>2016-07-24T15:05:26Z</time>
      </trkpt>
      <trkpt lat="45.04786" lon="4.09489">
        <ele>1054</ele>
        <time>2016-07-24T15:05:43Z</time>
      </trkpt>
      <trkpt lat="45.04793" lon="4.09467">
        <ele>1052</ele>
        <time>2016-07-24T15:05:58Z</time>
      </trkpt>
      <trkpt lat="45.04799" lon="4.09459">
        <ele>1051</ele>
        <time>2016-07-24T15:06:11Z</time>
      </trkpt>
      <trkpt lat="45.04793" lon="4.09444">
        <ele>1049</ele>
        <time>2016-07-24T15:06:26Z</time>
      </trkpt>
      <trkpt lat="45.04792" lon="4.09444">
        <ele>1049</ele>
        <time>2016-07-24T15:06:30Z</time>
      </trkpt>
      <trkpt lat="45.04778" lon="4.09436">
        <ele>1048</ele>
        <time>2016-07-24T15:06:44Z</time>
      </trkpt>
      <trkpt lat="45.04767" lon="4.09427">
        <ele>1046</ele>
        <time>2016-07-24T15:06:57Z</time>
      </trkpt>
      <trkpt lat="45.04756" lon="4.09417">
        <ele>1043</ele>
        <time>2016-07-24T15:07:09Z</time>
      </trkpt>
      <trkpt lat="45.04743" lon="4.09403">
        <ele>1038</ele>
        <time>2016-07-24T15:07:20Z</time>
      </trkpt>
      <trkpt lat="45.04729" lon="4.09397">
        <ele>1037</ele>
        <time>2016-07-24T15:07:31Z</time>
      </trkpt>
      <trkpt lat="45.04715" lon="4.09391">
        <ele>1036</ele>
        <time>2016-07-24T15:07:46Z</time>
      </trkpt>
      <trkpt lat="45.04705" lon="4.09379">
        <ele>1035</ele>
        <time>2016-07-24T15:08:01Z</time>
      </trkpt>
      <trkpt lat="45.04702" lon="4.09362">
        <ele>1034</ele>
        <time>2016-07-24T15:08:18Z</time>
      </trkpt>
      <trkpt lat="45.04698" lon="4.09354">
        <ele>1033</ele>
        <time>2016-07-24T15:08:31Z</time>
      </trkpt>
      <trkpt lat="45.04704" lon="4.09337">
        <ele>1033</ele>
        <time>2016-07-24T15:08:47Z</time>
      </trkpt>
      <trkpt lat="45.04705" lon="4.09335">
        <ele>1033</ele>
        <time>2016-07-24T15:09:01Z</time>
      </trkpt>
      <trkpt lat="45.04705" lon="4.09333">
        <ele>1025</ele>
        <time>2016-07-24T15:09:20Z</time>
      </trkpt>
      <trkpt lat="45.04705" lon="4.09332">
        <ele>1025</ele>
        <time>2016-07-24T15:09:35Z</time>
      </trkpt>
      <trkpt lat="45.04705" lon="4.09332">
        <ele>1025</ele>
        <time>2016-07-24T15:09:51Z</time>
      </trkpt>
      <trkpt lat="45.04704" lon="4.09332">
        <ele>1025</ele>
        <time>2016-07-24T15:10:11Z</time>
      </trkpt>
      <trkpt lat="45.04703" lon="4.0933">
        <ele>1025</ele>
        <time>2016-07-24T15:10:24Z</time>
      </trkpt>
      <trkpt lat="45.04693" lon="4.0932">
        <ele>1024</ele>
        <time>2016-07-24T15:10:41Z</time>
      </trkpt>
      <trkpt lat="45.04682" lon="4.09314">
        <ele>1024</ele>
        <time>2016-07-24T15:10:53Z</time>
      </trkpt>
      <trkpt lat="45.04669" lon="4.09296">
        <ele>1023</ele>
        <time>2016-07-24T15:11:11Z</time>
      </trkpt>
      <trkpt lat="45.04657" lon="4.09286">
        <ele>1024</ele>
        <time>2016-07-24T15:11:25Z</time>
      </trkpt>
      <trkpt lat="45.0465" lon="4.09278">
        <ele>1024</ele>
        <time>2016-07-24T15:11:38Z</time>
      </trkpt>
      <trkpt lat="45.04635" lon="4.09263">
        <ele>1024</ele>
        <time>2016-07-24T15:11:56Z</time>
      </trkpt>
      <trkpt lat="45.04629" lon="4.09254">
        <ele>1024</ele>
        <time>2016-07-24T15:12:03Z</time>
      </trkpt>
      <trkpt lat="45.04622" lon="4.09236">
        <ele>1017</ele>
        <time>2016-07-24T15:12:20Z</time>
      </trkpt>
      <trkpt lat="45.04617" lon="4.09228">
        <ele>1017</ele>
        <time>2016-07-24T15:12:36Z</time>
      </trkpt>
      <trkpt lat="45.04614" lon="4.09212">
        <ele>1016</ele>
        <time>2016-07-24T15:12:48Z</time>
      </trkpt>
      <trkpt lat="45.04601" lon="4.09198">
        <ele>1015</ele>
        <time>2016-07-24T15:13:03Z</time>
      </trkpt>
      <trkpt lat="45.04588" lon="4.09184">
        <ele>1014</ele>
        <time>2016-07-24T15:13:19Z</time>
      </trkpt>
      <trkpt lat="45.04586" lon="4.09183">
        <ele>1014</ele>
        <time>2016-07-24T15:13:21Z</time>
      </trkpt>
      <trkpt lat="45.04565" lon="4.09174">
        <ele>1019</ele>
        <time>2016-07-24T15:13:40Z</time>
      </trkpt>
      <trkpt lat="45.04552" lon="4.09162">
        <ele>1012</ele>
        <time>2016-07-24T15:13:52Z</time>
      </trkpt>
      <trkpt lat="45.04537" lon="4.09156">
        <ele>1012</ele>
        <time>2016-07-24T15:14:05Z</time>
      </trkpt>
      <trkpt lat="45.04529" lon="4.09152">
        <ele>1012</ele>
        <time>2016-07-24T15:14:16Z</time>
      </trkpt>
      <trkpt lat="45.04514" lon="4.09133">
        <ele>1011</ele>
        <time>2016-07-24T15:14:36Z</time>
      </trkpt>
      <trkpt lat="45.04511" lon="4.09127">
        <ele>1011</ele>
        <time>2016-07-24T15:14:41Z</time>
      </trkpt>
      <trkpt lat="45.04496" lon="4.09107">
        <ele>1011</ele>
        <time>2016-07-24T15:14:59Z</time>
      </trkpt>
      <trkpt lat="45.04477" lon="4.09092">
        <ele>1010</ele>
        <time>2016-07-24T15:15:18Z</time>
      </trkpt>
      <trkpt lat="45.04471" lon="4.09085">
        <ele>1010</ele>
        <time>2016-07-24T15:15:25Z</time>
      </trkpt>
      <trkpt lat="45.04468" lon="4.09083">
        <ele>1010</ele>
        <time>2016-07-24T15:15:27Z</time>
      </trkpt>
      <trkpt lat="45.04457" lon="4.09066">
        <ele>1002</ele>
        <time>2016-07-24T15:15:42Z</time>
      </trkpt>
      <trkpt lat="45.0445" lon="4.09048">
        <ele>1001</ele>
        <time>2016-07-24T15:15:55Z</time>
      </trkpt>
      <trkpt lat="45.04451" lon="4.09036">
        <ele>1000</ele>
        <time>2016-07-24T15:16:03Z</time>
      </trkpt>
      <trkpt lat="45.04451" lon="4.09008">
        <ele>999</ele>
        <time>2016-07-24T15:16:21Z</time>
      </trkpt>
      <trkpt lat="45.04449" lon="4.08998">
        <ele>993</ele>
        <time>2016-07-24T15:16:27Z</time>
      </trkpt>
      <trkpt lat="45.04449" lon="4.08975">
        <ele>992</ele>
        <time>2016-07-24T15:16:39Z</time>
      </trkpt>
      <trkpt lat="45.04443" lon="4.08959">
        <ele>991</ele>
        <time>2016-07-24T15:16:45Z</time>
      </trkpt>
      <trkpt lat="45.04444" lon="4.08952">
        <ele>990</ele>
        <time>2016-07-24T15:16:49Z</time>
      </trkpt>
      <trkpt lat="45.04451" lon="4.08922">
        <ele>989</ele>
        <time>2016-07-24T15:17:06Z</time>
      </trkpt>
      <trkpt lat="45.04462" lon="4.08901">
        <ele>982</ele>
        <time>2016-07-24T15:17:19Z</time>
      </trkpt>
      <trkpt lat="45.04467" lon="4.08891">
        <ele>981</ele>
        <time>2016-07-24T15:17:26Z</time>
      </trkpt>
      <trkpt lat="45.04479" lon="4.0887">
        <ele>980</ele>
        <time>2016-07-24T15:17:43Z</time>
      </trkpt>
      <trkpt lat="45.04489" lon="4.08854">
        <ele>978</ele>
        <time>2016-07-24T15:17:56Z</time>
      </trkpt>
      <trkpt lat="45.04496" lon="4.08841">
        <ele>976</ele>
        <time>2016-07-24T15:18:07Z</time>
      </trkpt>
      <trkpt lat="45.04503" lon="4.08832">
        <ele>974</ele>
        <time>2016-07-24T15:18:19Z</time>
      </trkpt>
      <trkpt lat="45.0452" lon="4.08813">
        <ele>971</ele>
        <time>2016-07-24T15:18:36Z</time>
      </trkpt>
      <trkpt lat="45.04536" lon="4.08795">
        <ele>969</ele>
        <time>2016-07-24T15:18:52Z</time>
      </trkpt>
      <trkpt lat="45.04549" lon="4.08783">
        <ele>969</ele>
        <time>2016-07-24T15:19:05Z</time>
      </trkpt>
      <trkpt lat="45.04554" lon="4.08775">
        <ele>968</ele>
        <time>2016-07-24T15:19:13Z</time>
      </trkpt>
      <trkpt lat="45.04553" lon="4.08763">
        <ele>968</ele>
        <time>2016-07-24T15:19:22Z</time>
      </trkpt>
      <trkpt lat="45.04551" lon="4.08752">
        <ele>967</ele>
        <time>2016-07-24T15:19:29Z</time>
      </trkpt>
      <trkpt lat="45.04546" lon="4.08734">
        <ele>963</ele>
        <time>2016-07-24T15:19:39Z</time>
      </trkpt>
      <trkpt lat="45.04542" lon="4.08717">
        <ele>963</ele>
        <time>2016-07-24T15:19:48Z</time>
      </trkpt>
      <trkpt lat="45.04537" lon="4.08689">
        <ele>961</ele>
        <time>2016-07-24T15:20:02Z</time>
      </trkpt>
      <trkpt lat="45.04536" lon="4.08681">
        <ele>961</ele>
        <time>2016-07-24T15:20:06Z</time>
      </trkpt>
      <trkpt lat="45.04532" lon="4.08669">
        <ele>961</ele>
        <time>2016-07-24T15:20:15Z</time>
      </trkpt>
      <trkpt lat="45.04531" lon="4.08664">
        <ele>957</ele>
        <time>2016-07-24T15:20:18Z</time>
      </trkpt>
      <trkpt lat="45.04528" lon="4.08641">
        <ele>956</ele>
        <time>2016-07-24T15:20:31Z</time>
      </trkpt>
      <trkpt lat="45.04525" lon="4.08614">
        <ele>955</ele>
        <time>2016-07-24T15:20:46Z</time>
      </trkpt>
      <trkpt lat="45.04525" lon="4.08612">
        <ele>955</ele>
        <time>2016-07-24T15:20:47Z</time>
      </trkpt>
      <trkpt lat="45.04523" lon="4.08605">
        <ele>955</ele>
        <time>2016-07-24T15:20:51Z</time>
      </trkpt>
      <trkpt lat="45.04521" lon="4.08593">
        <ele>954</ele>
        <time>2016-07-24T15:20:57Z</time>
      </trkpt>
      <trkpt lat="45.04514" lon="4.08561">
        <ele>950</ele>
        <time>2016-07-24T15:21:16Z</time>
      </trkpt>
      <trkpt lat="45.04507" lon="4.08527">
        <ele>949</ele>
        <time>2016-07-24T15:21:35Z</time>
      </trkpt>
      <trkpt lat="45.04505" lon="4.08519">
        <ele>949</ele>
        <time>2016-07-24T15:21:39Z</time>
      </trkpt>
      <trkpt lat="45.04502" lon="4.08508">
        <ele>948</ele>
        <time>2016-07-24T15:21:46Z</time>
      </trkpt>
      <trkpt lat="45.04496" lon="4.08482">
        <ele>945</ele>
        <time>2016-07-24T15:22:01Z</time>
      </trkpt>
      <trkpt lat="45.04491" lon="4.08467">
        <ele>944</ele>
        <time>2016-07-24T15:22:10Z</time>
      </trkpt>
      <trkpt lat="45.04489" lon="4.08456">
        <ele>943</ele>
        <time>2016-07-24T15:22:17Z</time>
      </trkpt>
      <trkpt lat="45.04487" lon="4.08435">
        <ele>942</ele>
        <time>2016-07-24T15:22:30Z</time>
      </trkpt>
      <trkpt lat="45.04483" lon="4.08418">
        <ele>942</ele>
        <time>2016-07-24T15:22:41Z</time>
      </trkpt>
      <trkpt lat="45.04482" lon="4.0841">
        <ele>938</ele>
        <time>2016-07-24T15:22:46Z</time>
      </trkpt>
      <trkpt lat="45.04476" lon="4.08382">
        <ele>935</ele>
        <time>2016-07-24T15:23:03Z</time>
      </trkpt>
      <trkpt lat="45.04472" lon="4.08358">
        <ele>934</ele>
        <time>2016-07-24T15:23:17Z</time>
      </trkpt>
      <trkpt lat="45.04462" lon="4.08334">
        <ele>933</ele>
        <time>2016-07-24T15:23:34Z</time>
      </trkpt>
      <trkpt lat="45.04452" lon="4.08305">
        <ele>927</ele>
        <time>2016-07-24T15:23:51Z</time>
      </trkpt>
      <trkpt lat="45.04452" lon="4.08301">
        <ele>927</ele>
        <time>2016-07-24T15:23:53Z</time>
      </trkpt>
      <trkpt lat="45.04446" lon="4.08273">
        <ele>926</ele>
        <time>2016-07-24T15:24:10Z</time>
      </trkpt>
      <trkpt lat="45.04445" lon="4.08267">
        <ele>926</ele>
        <time>2016-07-24T15:24:21Z</time>
      </trkpt>
      <trkpt lat="45.04445" lon="4.08259">
        <ele>926</ele>
        <time>2016-07-24T15:24:37Z</time>
      </trkpt>
      <trkpt lat="45.04445" lon="4.08257">
        <ele>926</ele>
        <time>2016-07-24T15:24:57Z</time>
      </trkpt>
      <trkpt lat="45.04446" lon="4.08249">
        <ele>920</ele>
        <time>2016-07-24T15:25:10Z</time>
      </trkpt>
      <trkpt lat="45.04438" lon="4.0824">
        <ele>921</ele>
        <time>2016-07-24T15:25:23Z</time>
      </trkpt>
      <trkpt lat="45.04427" lon="4.0823">
        <ele>921</ele>
        <time>2016-07-24T15:25:38Z</time>
      </trkpt>
      <trkpt lat="45.04419" lon="4.08218">
        <ele>919</ele>
        <time>2016-07-24T15:25:54Z</time>
      </trkpt>
      <trkpt lat="45.04411" lon="4.08207">
        <ele>915</ele>
        <time>2016-07-24T15:26:06Z</time>
      </trkpt>
      <trkpt lat="45.04405" lon="4.08194">
        <ele>914</ele>
        <time>2016-07-24T15:26:18Z</time>
      </trkpt>
      <trkpt lat="45.04396" lon="4.08183">
        <ele>913</ele>
        <time>2016-07-24T15:26:32Z</time>
      </trkpt>
      <trkpt lat="45.04395" lon="4.08179">
        <ele>913</ele>
        <time>2016-07-24T15:26:48Z</time>
      </trkpt>
      <trkpt lat="45.04394" lon="4.08176">
        <ele>913</ele>
        <time>2016-07-24T15:27:10Z</time>
      </trkpt>
      <trkpt lat="45.04393" lon="4.08176">
        <ele>913</ele>
        <time>2016-07-24T15:27:33Z</time>
      </trkpt>
      <trkpt lat="45.04393" lon="4.08176">
        <ele>913</ele>
        <time>2016-07-24T15:27:45Z</time>
      </trkpt>
      <trkpt lat="45.04391" lon="4.08169">
        <ele>913</ele>
        <time>2016-07-24T15:27:57Z</time>
      </trkpt>
      <trkpt lat="45.0439" lon="4.08158">
        <ele>906</ele>
        <time>2016-07-24T15:28:10Z</time>
      </trkpt>
      <trkpt lat="45.04387" lon="4.08152">
        <ele>904</ele>
        <time>2016-07-24T15:28:20Z</time>
      </trkpt>
      <trkpt lat="45.0438" lon="4.0814">
        <ele>902</ele>
        <time>2016-07-24T15:28:34Z</time>
      </trkpt>
      <trkpt lat="45.04377" lon="4.08134">
        <ele>902</ele>
        <time>2016-07-24T15:28:50Z</time>
      </trkpt>
      <trkpt lat="45.04372" lon="4.08128">
        <ele>901</ele>
        <time>2016-07-24T15:29:02Z</time>
      </trkpt>
      <trkpt lat="45.0436" lon="4.08113">
        <ele>899</ele>
        <time>2016-07-24T15:29:19Z</time>
      </trkpt>
      <trkpt lat="45.04358" lon="4.08099">
        <ele>897</ele>
        <time>2016-07-24T15:29:34Z</time>
      </trkpt>
      <trkpt lat="45.04361" lon="4.08077">
        <ele>889</ele>
        <time>2016-07-24T15:29:52Z</time>
      </trkpt>
      <trkpt lat="45.04366" lon="4.08064">
        <ele>889</ele>
        <time>2016-07-24T15:30:04Z</time>
      </trkpt>
      <trkpt lat="45.04374" lon="4.08051">
        <ele>888</ele>
        <time>2016-07-24T15:30:18Z</time>
      </trkpt>
      <trkpt lat="45.04374" lon="4.08047">
        <ele>888</ele>
        <time>2016-07-24T15:30:31Z</time>
      </trkpt>
      <trkpt lat="45.04373" lon="4.08041">
        <ele>888</ele>
        <time>2016-07-24T15:30:47Z</time>
      </trkpt>
      <trkpt lat="45.04373" lon="4.08041">
        <ele>888</ele>
        <time>2016-07-24T15:31:04Z</time>
      </trkpt>
      <trkpt lat="45.04372" lon="4.08042">
        <ele>888</ele>
        <time>2016-07-24T15:31:18Z</time>
      </trkpt>
      <trkpt lat="45.0437" lon="4.08028">
        <ele>887</ele>
        <time>2016-07-24T15:31:33Z</time>
      </trkpt>
      <trkpt lat="45.04369" lon="4.08013">
        <ele>886</ele>
        <time>2016-07-24T15:31:49Z</time>
      </trkpt>
      <trkpt lat="45.04382" lon="4.07999">
        <ele>880</ele>
        <time>2016-07-24T15:32:03Z</time>
      </trkpt>
      <trkpt lat="45.04384" lon="4.07986">
        <ele>880</ele>
        <time>2016-07-24T15:32:17Z</time>
      </trkpt>
      <trkpt lat="45.04385" lon="4.07971">
        <ele>880</ele>
        <time>2016-07-24T15:32:33Z</time>
      </trkpt>
      <trkpt lat="45.04384" lon="4.07963">
        <ele>880</ele>
        <time>2016-07-24T15:32:48Z</time>
      </trkpt>
      <trkpt lat="45.0438" lon="4.07957">
        <ele>880</ele>
        <time>2016-07-24T15:33:10Z</time>
      </trkpt>
      <trkpt lat="45.04382" lon="4.07939">
        <ele>879</ele>
        <time>2016-07-24T15:33:23Z</time>
      </trkpt>
      <trkpt lat="45.0438" lon="4.0792">
        <ele>879</ele>
        <time>2016-07-24T15:33:38Z</time>
      </trkpt>
      <trkpt lat="45.0437" lon="4.07912">
        <ele>875</ele>
        <time>2016-07-24T15:33:54Z</time>
      </trkpt>
      <trkpt lat="45.04368" lon="4.07899">
        <ele>875</ele>
        <time>2016-07-24T15:34:08Z</time>
      </trkpt>
      <trkpt lat="45.04364" lon="4.07884">
        <ele>874</ele>
        <time>2016-07-24T15:34:22Z</time>
      </trkpt>
      <trkpt lat="45.04358" lon="4.07868">
        <ele>873</ele>
        <time>2016-07-24T15:34:35Z</time>
      </trkpt>
      <trkpt lat="45.04348" lon="4.07849">
        <ele>872</ele>
        <time>2016-07-24T15:34:48Z</time>
      </trkpt>
      <trkpt lat="45.04345" lon="4.0783">
        <ele>868</ele>
        <time>2016-07-24T15:35:01Z</time>
      </trkpt>
      <trkpt lat="45.04338" lon="4.07812">
        <ele>868</ele>
        <time>2016-07-24T15:35:16Z</time>
      </trkpt>
      <trkpt lat="45.04332" lon="4.07789">
        <ele>869</ele>
        <time>2016-07-24T15:35:32Z</time>
      </trkpt>
      <trkpt lat="45.04326" lon="4.07757">
        <ele>866</ele>
        <time>2016-07-24T15:35:48Z</time>
      </trkpt>
      <trkpt lat="45.04328" lon="4.07736">
        <ele>865</ele>
        <time>2016-07-24T15:36:04Z</time>
      </trkpt>
      <trkpt lat="45.04329" lon="4.07713">
        <ele>865</ele>
        <time>2016-07-24T15:36:17Z</time>
      </trkpt>
      <trkpt lat="45.0433" lon="4.07708">
        <ele>864</ele>
        <time>2016-07-24T15:36:21Z</time>
      </trkpt>
      <trkpt lat="45.04336" lon="4.07686">
        <ele>861</ele>
        <time>2016-07-24T15:36:35Z</time>
      </trkpt>
      <trkpt lat="45.04335" lon="4.07685">
        <ele>861</ele>
        <time>2016-07-24T15:36:36Z</time>
      </trkpt>
      <trkpt lat="45.04333" lon="4.0768">
        <ele>861</ele>
        <time>2016-07-24T15:36:39Z</time>
      </trkpt>
      <trkpt lat="45.04335" lon="4.07656">
        <ele>859</ele>
        <time>2016-07-24T15:36:55Z</time>
      </trkpt>
      <trkpt lat="45.04335" lon="4.07638">
        <ele>859</ele>
        <time>2016-07-24T15:37:08Z</time>
      </trkpt>
      <trkpt lat="45.04329" lon="4.07622">
        <ele>860</ele>
        <time>2016-07-24T15:37:18Z</time>
      </trkpt>
      <trkpt lat="45.04328" lon="4.076">
        <ele>859</ele>
        <time>2016-07-24T15:37:31Z</time>
      </trkpt>
      <trkpt lat="45.04328" lon="4.0759">
        <ele>857</ele>
        <time>2016-07-24T15:37:37Z</time>
      </trkpt>
      <trkpt lat="45.04327" lon="4.07569">
        <ele>856</ele>
        <time>2016-07-24T15:37:52Z</time>
      </trkpt>
      <trkpt lat="45.04332" lon="4.07547">
        <ele>856</ele>
        <time>2016-07-24T15:38:05Z</time>
      </trkpt>
      <trkpt lat="45.04326" lon="4.07529">
        <ele>856</ele>
        <time>2016-07-24T15:38:18Z</time>
      </trkpt>
      <trkpt lat="45.04323" lon="4.07505">
        <ele>855</ele>
        <time>2016-07-24T15:38:31Z</time>
      </trkpt>
      <trkpt lat="45.04316" lon="4.07478">
        <ele>852</ele>
        <time>2016-07-24T15:38:45Z</time>
      </trkpt>
      <trkpt lat="45.04307" lon="4.07453">
        <ele>852</ele>
        <time>2016-07-24T15:39:01Z</time>
      </trkpt>
      <trkpt lat="45.04284" lon="4.07418">
        <ele>851</ele>
        <time>2016-07-24T15:39:20Z</time>
      </trkpt>
      <trkpt lat="45.0426" lon="4.07397">
        <ele>849</ele>
        <time>2016-07-24T15:39:36Z</time>
      </trkpt>
      <trkpt lat="45.04256" lon="4.0737">
        <ele>848</ele>
        <time>2016-07-24T15:39:52Z</time>
      </trkpt>
      <trkpt lat="45.04252" lon="4.07348">
        <ele>847</ele>
        <time>2016-07-24T15:40:06Z</time>
      </trkpt>
      <trkpt lat="45.04249" lon="4.07328">
        <ele>846</ele>
        <time>2016-07-24T15:40:18Z</time>
      </trkpt>
      <trkpt lat="45.0424" lon="4.07312">
        <ele>846</ele>
        <time>2016-07-24T15:40:30Z</time>
      </trkpt>
      <trkpt lat="45.04234" lon="4.07307">
        <ele>846</ele>
        <time>2016-07-24T15:40:34Z</time>
      </trkpt>
      <trkpt lat="45.04216" lon="4.07281">
        <ele>846</ele>
        <time>2016-07-24T15:40:50Z</time>
      </trkpt>
      <trkpt lat="45.04203" lon="4.07253">
        <ele>846</ele>
        <time>2016-07-24T15:41:07Z</time>
      </trkpt>
      <trkpt lat="45.04197" lon="4.07245">
        <ele>845</ele>
        <time>2016-07-24T15:41:13Z</time>
      </trkpt>
      <trkpt lat="45.04187" lon="4.07235">
        <ele>845</ele>
        <time>2016-07-24T15:41:22Z</time>
      </trkpt>
      <trkpt lat="45.0417" lon="4.07219">
        <ele>845</ele>
        <time>2016-07-24T15:41:36Z</time>
      </trkpt>
      <trkpt lat="45.04166" lon="4.07214">
        <ele>846</ele>
        <time>2016-07-24T15:41:40Z</time>
      </trkpt>
      <trkpt lat="45.04146" lon="4.07195">
        <ele>846</ele>
        <time>2016-07-24T15:41:55Z</time>
      </trkpt>
      <trkpt lat="45.04126" lon="4.07182">
        <ele>846</ele>
        <time>2016-07-24T15:42:12Z</time>
      </trkpt>
      <trkpt lat="45.04106" lon="4.07163">
        <ele>844</ele>
        <time>2016-07-24T15:42:30Z</time>
      </trkpt>
      <trkpt lat="45.04093" lon="4.07143">
        <ele>843</ele>
        <time>2016-07-24T15:42:47Z</time>
      </trkpt>
      <trkpt lat="45.0408" lon="4.07121">
        <ele>843</ele>
        <time>2016-07-24T15:43:04Z</time>
      </trkpt>
      <trkpt lat="45.04075" lon="4.07113">
        <ele>843</ele>
        <time>2016-07-24T15:43:11Z</time>
      </trkpt>
      <trkpt lat="45.0407" lon="4.07103">
        <ele>843</ele>
        <time>2016-07-24T15:43:17Z</time>
      </trkpt>
      <trkpt lat="45.04055" lon="4.07087">
        <ele>843</ele>
        <time>2016-07-24T15:43:31Z</time>
      </trkpt>
      <trkpt lat="45.04033" lon="4.07073">
        <ele>840</ele>
        <time>2016-07-24T15:43:47Z</time>
      </trkpt>
      <trkpt lat="45.04011" lon="4.07068">
        <ele>840</ele>
        <time>2016-07-24T15:44:04Z</time>
      </trkpt>
      <trkpt lat="45.03988" lon="4.07058">
        <ele>839</ele>
        <time>2016-07-24T15:44:20Z</time>
      </trkpt>
      <trkpt lat="45.03972" lon="4.07054">
        <ele>839</ele>
        <time>2016-07-24T15:44:32Z</time>
      </trkpt>
      <trkpt lat="45.03952" lon="4.07039">
        <ele>838</ele>
        <time>2016-07-24T15:44:51Z</time>
      </trkpt>
      <trkpt lat="45.03937" lon="4.07021">
        <ele>838</ele>
        <time>2016-07-24T15:45:07Z</time>
      </trkpt>
      <trkpt lat="45.03916" lon="4.06996">
        <ele>836</ele>
        <time>2016-07-24T15:45:27Z</time>
      </trkpt>
      <trkpt lat="45.03906" lon="4.06986">
        <ele>837</ele>
        <time>2016-07-24T15:45:36Z</time>
      </trkpt>
      <trkpt lat="45.03892" lon="4.06968">
        <ele>837</ele>
        <time>2016-07-24T15:45:52Z</time>
      </trkpt>
      <trkpt lat="45.03883" lon="4.06945">
        <ele>837</ele>
        <time>2016-07-24T15:46:08Z</time>
      </trkpt>
      <trkpt lat="45.03874" lon="4.06908">
        <ele>836</ele>
        <time>2016-07-24T15:46:28Z</time>
      </trkpt>
      <trkpt lat="45.03867" lon="4.06876">
        <ele>836</ele>
        <time>2016-07-24T15:46:45Z</time>
      </trkpt>
      <trkpt lat="45.03857" lon="4.06845">
        <ele>836</ele>
        <time>2016-07-24T15:47:03Z</time>
      </trkpt>
      <trkpt lat="45.03851" lon="4.06812">
        <ele>835</ele>
        <time>2016-07-24T15:47:20Z</time>
      </trkpt>
      <trkpt lat="45.03846" lon="4.06777">
        <ele>834</ele>
        <time>2016-07-24T15:47:39Z</time>
      </trkpt>
      <trkpt lat="45.03843" lon="4.0675">
        <ele>834</ele>
        <time>2016-07-24T15:47:54Z</time>
      </trkpt>
      <trkpt lat="45.03835" lon="4.06724">
        <ele>833</ele>
        <time>2016-07-24T15:48:09Z</time>
      </trkpt>
      <trkpt lat="45.03821" lon="4.06704">
        <ele>835</ele>
        <time>2016-07-24T15:48:26Z</time>
      </trkpt>
      <trkpt lat="45.03806" lon="4.06682">
        <ele>835</ele>
        <time>2016-07-24T15:48:44Z</time>
      </trkpt>
      <trkpt lat="45.03794" lon="4.06649">
        <ele>832</ele>
        <time>2016-07-24T15:49:03Z</time>
      </trkpt>
      <trkpt lat="45.03773" lon="4.06626">
        <ele>832</ele>
        <time>2016-07-24T15:49:21Z</time>
      </trkpt>
      <trkpt lat="45.03753" lon="4.06604">
        <ele>832</ele>
        <time>2016-07-24T15:49:41Z</time>
      </trkpt>
      <trkpt lat="45.03742" lon="4.06589">
        <ele>834</ele>
        <time>2016-07-24T15:49:53Z</time>
      </trkpt>
      <trkpt lat="45.03738" lon="4.06581">
        <ele>833</ele>
        <time>2016-07-24T15:49:58Z</time>
      </trkpt>
      <trkpt lat="45.0373" lon="4.06558">
        <ele>833</ele>
        <time>2016-07-24T15:50:12Z</time>
      </trkpt>
      <trkpt lat="45.03717" lon="4.06537">
        <ele>833</ele>
        <time>2016-07-24T15:50:28Z</time>
      </trkpt>
      <trkpt lat="45.03708" lon="4.06533">
        <ele>834</ele>
        <time>2016-07-24T15:50:43Z</time>
      </trkpt>
      <trkpt lat="45.03706" lon="4.06534">
        <ele>834</ele>
        <time>2016-07-24T15:51:07Z</time>
      </trkpt>
      <trkpt lat="45.03704" lon="4.06534">
        <ele>834</ele>
        <time>2016-07-24T15:51:14Z</time>
      </trkpt>
      <trkpt lat="45.03681" lon="4.06548">
        <ele>835</ele>
        <time>2016-07-24T15:51:34Z</time>
      </trkpt>
      <trkpt lat="45.03658" lon="4.06563">
        <ele>837</ele>
        <time>2016-07-24T15:51:54Z</time>
      </trkpt>
      <trkpt lat="45.03649" lon="4.06563">
        <ele>837</ele>
        <time>2016-07-24T15:52:02Z</time>
      </trkpt>
      <trkpt lat="45.03639" lon="4.06553">
        <ele>837</ele>
        <time>2016-07-24T15:52:15Z</time>
      </trkpt>
      <trkpt lat="45.03636" lon="4.06522">
        <ele>837</ele>
        <time>2016-07-24T15:52:34Z</time>
      </trkpt>
      <trkpt lat="45.03632" lon="4.06504">
        <ele>837</ele>
        <time>2016-07-24T15:52:51Z</time>
      </trkpt>
      <trkpt lat="45.03632" lon="4.06504">
        <ele>837</ele>
        <time>2016-07-24T15:52:51Z</time>
      </trkpt>
      <trkpt lat="45.03628" lon="4.065">
        <ele>837</ele>
        <time>2016-07-24T15:53:08Z</time>
      </trkpt>
      <trkpt lat="45.03628" lon="4.065">
        <ele>835</ele>
        <time>2016-07-24T15:53:26Z</time>
      </trkpt>
      <trkpt lat="45.03627" lon="4.06498">
        <ele>835</ele>
        <time>2016-07-24T15:53:51Z</time>
      </trkpt>
      <trkpt lat="45.03626" lon="4.06496">
        <ele>835</ele>
        <time>2016-07-24T15:54:12Z</time>
      </trkpt>
    </trkseg>
  </trk>
</gpx>